[[{"header":{"parameterUnit":"m.s-1","parameterCategory":1,"la1":31.0,"la2":29.5877,"lo1":-88.7671,"lo2":-86.6584,"dy":0.0162,"dx":0.0185,"nx":115,"ny":88,"refTime":"2023-10-15T00:00:00:Z","depth":0,"parameterNumber":2,"parameterNumberName":"U-component_of_WINDS"},"data":[0.0,0.0,0.0,0.0,0.0,0.0,0.0,0.0,0.0,0.0,0.0,0.0,0.0,0.0,0.0,0.0,0.0,0.0,0.0,0.0,0.0,0.0,0.0,0.0,0.0,0.0,0.0,0.0,0.0,0.0,0.0,0.0,0.0,0.0,0.0,0.0,0.0,0.0,0.0,0.0,0.0,0.0,0.0,0.0,0.0,0.0,0.0,0.0,0.0,0.0,0.0,0.0,0.0,0.0,0.0,0.0,0.0,0.0,0.0,0.0,0.0,0.0,0.0,0.0,0.0,0.0,0.0,0.0,0.0,0.0,0.0,0.0,0.0,0.0,0.0,0.0,0.0,0.0,0.0,0.0,0.0,0.0,0.0,0.0,0.0,0.0,0.0,0.0,0.0,0.0,0.0,0.0,0.0,0.0,0.0,0.0,0.0,0.0,0.0,0.0,0.0,0.0,0.0,0.0,0.0,0.0,0.0,0.0,0.0,0.0,0.0,0.0,0.0,0.0,0.0,0.0,0.0,0.0,0.0,0.0,0.0,0.0,0.0,0.0,0.0,0.0,0.0,0.0,0.0,0.0,0.0,0.0,0.0,0.0,0.0,0.0,0.0,0.0,0.0,0.0,0.0,0.0,0.0,0.0,0.0,0.0,0.0,0.0,0.0,0.0,0.0,0.0,0.0,0.0,0.0,0.0,0.0,0.0,0.0,0.0,0.0,0.0,0.0,0.0,0.0,0.0,0.0,0.0,0.0,0.0,0.0,0.0,0.0,0.0,0.0,0.0,0.0,0.0,0.0,0.0,0.0,0.0,0.0,0.0,0.0,0.0,0.0,0.0,0.0,0.0,0.0,0.0,0.0,0.0,0.0,0.0,0.0,0.0,0.0,0.0,0.0,0.0,0.0,0.0,0.0,0.0,0.0,0.0,0.0,0.0,0.0,0.0,0.0,0.0,0.0,0.0,0.0,0.0,0.0,0.0,0.0,0.0,0.0,0.0,0.0,0.0,0.0,0.0,0.0,0.0,0.0,0.0,0.0,0.0,0.0,0.0,0.0,0.0,0.0,0.0,0.0,0.0,0.0,0.0,0.0,0.0,0.0,0.0,0.0,0.0,0.0,0.0,0.0,0.0,0.0,0.0,0.0,0.0,0.0,0.0,0.0,0.0,0.0,0.0,0.0,0.0,0.0,0.0,0.0,0.0,0.0,0.0,0.0,0.0,0.0,0.0,0.0,0.0,0.0,0.0,0.0,0.0,0.0,0.0,0.0,0.0,0.0,0.0,0.0,0.0,0.0,0.0,0.0,0.0,0.0,0.0,0.0,0.0,0.0,0.0,0.0,0.0,0.0,0.0,0.0,0.0,0.0,0.0,0.0,0.0,0.0,0.0,0.0,0.0,0.0,0.0,0.0,0.0,0.0,0.0,0.0,0.0,0.0,0.0,0.0,0.0,0.0,0.0,0.0,0.0,0.0,0.0,0.0,0.0,0.0,0.0,0.0,0.0,0.0,0.0,0.0,0.0,0.0,0.0,0.0,0.0,0.0,0.0,0.0,0.0,0.0,0.0,0.0,0.0,0.0,0.0,0.0,0.0,0.0,0.0,0.0,0.0,0.0,0.0,0.0,0.0,0.0,0.0,0.0,0.0,0.0,0.0,0.0,0.0,0.0,0.0,0.0,0.0,0.0,0.0,0.0,0.0,0.0,0.0,0.0,0.0,0.0,0.0,0.0,0.0,0.0,0.0,0.0,0.0,0.0,0.0,0.0,0.0,0.0,0.0,0.0,0.0,0.0,0.0,0.0,0.0,0.0,0.0,0.0,0.0,0.0,0.0,0.0,0.0,0.0,0.0,0.0,0.0,0.0,0.0,0.0,0.0,0.0,0.0,0.0,0.0,0.0,0.0,0.0,0.0,0.0,0.0,0.0,0.0,0.0,0.0,0.0,0.0,0.0,0.0,0.0,0.0,0.0,0.0,0.0,0.0,0.0,0.0,0.0,0.0,0.0,0.0,0.0,0.0,0.0,0.0,0.0,0.0,0.0,0.0,0.0,0.0,0.0,0.0,0.0,0.0,0.0,0.0,0.0,0.0,0.0,0.0,0.0,0.0,0.0,0.0,0.0,0.0,0.0,0.0,0.0,0.0,0.0,0.0,0.0,0.0,0.0,0.0,0.0,0.0,0.0,0.0,0.0,0.0,0.0,0.0,0.0,0.0,0.0,0.0,0.0,0.0,0.0,0.0,0.0,0.0,0.0,0.0,0.0,0.0,0.0,0.0,0.0,0.0,0.0,0.0,0.0,0.0,0.0,0.0,0.0,0.0,0.0,0.0,0.0,0.0,0.0,0.0,0.0,0.0,0.0,0.0,0.0,0.0,0.0,0.0,0.0,0.0,0.0,0.0,0.0,0.0,0.0,0.0,0.0,0.0,0.0,0.0,0.0,0.0,0.0,0.0,0.0,0.0,0.0,0.0,0.0,0.0,0.0,0.0,0.0,0.0,0.0,0.0,0.0,0.0,0.0,0.0,0.0,0.0,0.0,0.0,0.0,0.0,0.0,0.0,0.0,0.0,0.0,0.0,0.0,0.0,0.0,0.0,0.0,0.0,0.0,0.0,0.0,0.0,0.0,0.0,0.0,0.0,0.0,0.0,0.0,0.0,0.0,0.0,0.0,0.0,0.0,0.0,0.0,0.0,0.0,0.0,0.0,0.0,0.0,0.0,0.0,0.0,0.0,0.0,0.0,0.0,0.0,0.0,0.0,0.0,0.0,0.0,0.0,0.0,0.0,0.0,0.0,0.0,0.0,0.0,0.0,0.0,0.0,0.0,0.0,0.0,0.0,0.0,0.0,0.0,0.0,0.0,0.0,0.0,0.0,0.0,0.0,0.0,0.0,0.0,0.0,0.0,0.0,0.0,0.0,0.0,0.0,0.0,0.0,0.0,0.0,0.0,0.0,0.0,0.0,0.0,0.0,0.0,0.0,0.0,0.0,0.0,0.0,0.0,0.0,0.0,0.0,0.0,0.0,0.0,0.0,0.0,0.0,0.0,0.0,0.0,0.0,0.0,0.0,0.0,0.0,0.0,0.0,0.0,0.0,0.0,0.0,0.0,0.0,0.0,0.0,0.0,0.0,0.0,0.0,0.0,0.0,0.0,0.0,0.0,0.0,0.0,0.0,0.0,0.0,0.0,0.0,0.0,0.0,0.0,0.0,0.0,0.0,0.0,0.0,0.0,0.0,0.0,0.0,0.0,0.0,0.0,0.0,0.0,0.0,0.0,0.0,0.0,0.0,0.0,0.0,0.0,0.0,0.0,0.0,0.0,0.0,0.0,0.0,0.0,0.0,0.0,0.0,0.0,0.0,0.0,0.0,0.0,0.0,0.0,0.0,0.0,0.0,0.0,0.0,0.0,0.0,0.0,0.0,0.0,0.0,0.0,0.0,0.0,0.0,0.0,0.0,0.0,0.0,0.0,0.0,0.0,0.0,0.0,0.0,0.0,0.0,0.0,0.0,0.0,0.0,0.0,0.0,0.0,0.0,0.0,0.0,0.0,0.0,0.0,0.0,0.0,0.0,0.0,0.0,0.0,0.0,0.0,0.0,0.0,0.0,0.0,0.0,0.0,0.0,0.0,0.0,0.0,0.0,0.0,0.0,0.0,0.0,0.0,0.0,0.0,0.0,0.0,0.0,0.0,0.0,0.0,0.0,0.0,0.0,0.0,0.0,0.0,0.0,0.0,0.0,0.0,0.0,0.0,0.0,0.0,0.0,0.0,0.0,0.0,0.0,0.0,0.0,0.0,0.0,0.0,0.0,0.0,0.0,0.0,0.0,0.0,0.0,0.0,0.0,0.0,0.0,0.0,0.0,0.0,0.0,0.0,0.0,0.0,0.0,0.0,0.0,0.0,0.0,0.0,0.0,0.0,0.0,0.0,0.0,0.0,0.0,0.0,0.0,0.0,0.0,0.0,0.0,0.0,0.0,0.0,0.0,0.0,0.0,0.0,0.0,0.0,0.0,0.0,0.0,0.0,0.0,0.0,0.0,0.0,0.0,0.0,0.0,0.0,0.0,0.0,0.0,0.0,0.0,0.0,0.0,0.0,0.0,0.0,0.0,0.0,0.0,0.0,0.0,0.0,0.0,0.0,0.0,0.0,0.0,0.0,0.0,0.0,0.0,0.0,0.0,0.0,0.0,0.0,0.0,0.0,0.0,0.0,0.0,0.0,0.0,0.0,0.0,0.0,0.0,0.0,0.0,0.0,0.0,0.0,0.0,0.0,0.0,0.0,1.9718,0.0,0.0,0.0,0.0,0.0,0.0,0.0,0.0,0.0,0.0,0.0,0.0,0.0,0.0,0.0,0.0,0.0,0.0,0.0,0.0,0.0,0.0,0.0,0.0,0.0,0.0,0.0,0.0,0.0,0.0,0.0,0.0,0.0,0.0,0.0,0.0,0.0,0.0,0.0,0.0,0.0,0.0,0.0,0.0,0.0,0.0,0.0,0.0,0.0,0.0,0.0,0.0,0.0,0.0,0.0,0.0,0.0,0.0,0.0,0.0,0.0,0.0,0.0,0.0,0.0,0.0,0.0,0.0,0.0,0.0,0.0,0.0,0.0,0.0,0.0,0.0,0.0,0.0,0.0,0.0,0.0,0.0,0.0,0.0,0.0,0.0,0.0,0.0,0.0,0.0,0.0,0.0,0.0,0.0,0.0,0.0,0.0,0.0,0.0,0.0,0.0,0.0,0.0,0.0,0.0,0.0,0.0,0.0,0.0,0.0,2.0052,1.966,2.007,2.0108,1.966,0.0,0.0,0.0,0.0,0.0,0.0,0.0,0.0,0.0,0.0,0.0,0.0,0.0,0.0,0.0,0.0,0.0,0.0,0.0,0.0,0.0,0.0,0.0,0.0,0.0,0.0,0.0,0.0,0.0,0.0,0.0,0.0,0.0,0.0,0.0,0.0,0.0,0.0,0.0,0.0,0.0,0.0,0.0,0.0,0.0,0.0,0.0,0.0,0.0,0.0,0.0,0.0,0.0,0.0,0.0,0.0,0.0,0.0,0.0,0.0,0.0,0.0,0.0,0.0,0.0,0.0,0.0,0.0,0.0,0.0,0.0,0.0,0.0,0.0,0.0,0.0,0.0,0.0,0.0,0.0,0.0,0.0,0.0,0.0,0.0,0.0,0.0,0.0,0.0,0.0,0.0,0.0,0.0,0.0,0.0,0.0,0.0,0.0,0.0,0.0,0.0,0.0,0.0,0.0,0.0,0.0,0.0,0.0,0.0,0.0,0.0,0.0,2.054,2.0391,1.9611,0.0,0.0,0.0,0.0,0.0,0.0,0.0,0.0,0.0,0.0,0.0,0.0,0.0,0.0,0.0,0.0,0.0,0.0,0.0,0.0,0.0,0.0,0.0,0.0,0.0,0.0,0.0,0.0,0.0,0.0,0.0,0.0,0.0,0.0,0.0,0.0,0.0,0.0,0.0,0.0,0.0,0.0,0.0,0.0,0.0,0.0,0.0,0.0,0.0,0.0,0.0,0.0,0.0,0.0,0.0,0.0,0.0,0.0,0.0,0.0,0.0,0.0,0.0,0.0,0.0,0.0,0.0,0.0,0.0,0.0,0.0,0.0,0.0,0.0,0.0,0.0,0.0,0.0,0.0,0.0,0.0,0.0,0.0,0.0,0.0,0.0,0.0,0.0,0.0,0.0,0.0,0.0,0.0,0.0,0.0,0.0,0.0,0.0,0.0,0.0,0.0,0.0,0.0,0.0,0.0,0.0,0.0,0.0,0.0,0.0,2.1031,2.1662,2.105,0.0,1.9571,0.0,0.0,0.0,0.0,0.0,0.0,0.0,0.0,0.0,0.0,0.0,0.0,0.0,0.0,0.0,0.0,0.0,0.0,0.0,0.0,0.0,0.0,0.0,0.0,0.0,0.0,0.0,0.0,0.0,0.0,0.0,0.0,0.0,0.0,0.0,0.0,0.0,0.0,0.0,0.0,0.0,0.0,0.0,0.0,0.0,0.0,0.0,0.0,0.0,0.0,0.0,0.0,0.0,0.0,0.0,0.0,0.0,0.0,0.0,0.0,0.0,0.0,0.0,0.0,0.0,0.0,0.0,0.0,0.0,0.0,0.0,0.0,0.0,0.0,0.0,0.0,0.0,0.0,0.0,0.0,0.0,0.0,0.0,0.0,0.0,0.0,0.0,0.0,0.0,0.0,0.0,0.0,0.0,0.0,0.0,0.0,0.0,0.0,0.0,0.0,0.0,0.0,0.0,0.0,0.0,0.0,0.0,0.0,0.0,0.0,2.1879,2.1785,2.0996,2.0205,0.0,0.0,0.0,0.0,0.0,0.0,0.0,0.0,0.0,0.0,0.0,0.0,0.0,0.0,0.0,0.0,0.0,0.0,0.0,0.0,0.0,0.0,0.0,0.0,0.0,0.0,0.0,0.0,0.0,0.0,0.0,0.0,0.0,0.0,0.0,0.0,0.0,0.0,0.0,0.0,0.0,0.0,0.0,0.0,0.0,0.0,0.0,0.0,0.0,0.0,0.0,0.0,0.0,0.0,0.0,0.0,0.0,0.0,0.0,0.0,0.0,0.0,0.0,0.0,0.0,0.0,0.0,0.0,0.0,0.0,0.0,0.0,0.0,0.0,0.0,0.0,0.0,0.0,0.0,0.0,0.0,0.0,0.0,0.0,0.0,0.0,0.0,0.0,0.0,0.0,0.0,0.0,0.0,0.0,0.0,0.0,0.0,0.0,0.0,0.0,0.0,0.0,0.0,0.0,0.0,0.0,0.0,0.0,0.0,0.0,2.2044,2.2408,2.168,2.1078,2.0294,1.9289,0.0,0.0,0.0,0.0,0.0,0.0,0.0,0.0,0.0,0.0,0.0,0.0,0.0,0.0,0.0,0.0,0.0,0.0,0.0,0.0,0.0,0.0,0.0,0.0,0.0,0.0,0.0,0.0,0.0,0.0,0.0,0.0,0.0,0.0,0.0,0.0,0.0,0.0,0.0,0.0,0.0,0.0,0.0,0.0,0.0,0.0,0.0,0.0,0.0,0.0,0.0,0.0,0.0,0.0,0.0,0.0,0.0,0.0,0.0,0.0,0.0,0.0,0.0,0.0,0.0,0.0,0.0,0.0,0.0,0.0,0.0,0.0,0.0,0.0,0.0,0.0,0.0,0.0,0.0,0.0,0.0,0.0,0.0,0.0,0.0,0.0,0.0,0.0,0.0,0.0,0.0,0.0,0.0,0.0,0.0,0.0,0.0,0.0,0.0,0.0,0.0,0.0,0.0,0.0,0.0,0.0,0.0,0.0,2.1312,2.2182,2.2254,2.155,2.1477,2.0717,0.0,0.0,0.0,0.0,0.0,0.0,0.0,0.0,0.0,0.0,0.0,0.0,0.0,0.0,0.0,0.0,0.0,0.0,0.0,0.0,0.0,0.0,0.0,0.0,0.0,0.0,0.0,0.0,0.0,0.0,0.0,0.0,0.0,0.0,0.0,0.0,0.0,0.0,0.0,0.0,0.0,0.0,0.0,0.0,0.0,0.0,0.0,0.0,0.0,0.0,0.0,0.0,0.0,0.0,0.0,0.0,0.0,0.0,0.0,0.0,0.0,0.0,0.0,0.0,0.0,0.0,0.0,0.0,0.0,0.0,0.0,0.0,0.0,0.0,0.0,0.0,0.0,0.0,0.0,0.0,0.0,0.0,0.0,0.0,0.0,0.0,0.0,0.0,0.0,0.0,0.0,0.0,0.0,0.0,0.0,0.0,0.0,0.0,0.0,0.0,0.0,0.0,0.0,0.0,0.0,0.0,0.0,0.0,0.0,2.1243,2.2457,2.274,2.1971,2.1473,2.0668,0.0,0.0,0.0,0.0,0.0,0.0,0.0,0.0,0.0,0.0,0.0,0.0,0.0,0.0,0.0,0.0,0.0,0.0,0.0,0.0,0.0,0.0,0.0,0.0,0.0,0.0,0.0,0.0,0.0,0.0,0.0,0.0,0.0,0.0,0.0,0.0,0.0,0.0,0.0,0.0,0.0,0.0,0.0,0.0,0.0,0.0,0.0,0.0,0.0,0.0,0.0,0.0,0.0,0.0,0.0,0.0,0.0,0.0,0.0,0.0,0.0,0.0,0.0,0.0,0.0,0.0,0.0,0.0,0.0,0.0,0.0,0.0,0.0,0.0,0.0,0.0,0.0,0.0,0.0,0.0,0.0,0.0,0.0,0.0,0.0,0.0,0.0,0.0,0.0,0.0,0.0,0.0,0.0,0.0,0.0,0.0,0.0,0.0,0.0,0.0,0.0,0.0,0.0,0.0,0.0,0.0,0.0,0.0,0.0,2.168,0.0,2.287,2.2053,2.1282,2.0527,0.0,0.0,0.0,0.0,0.0,0.0,0.0,0.0,0.0,0.0,0.0,0.0,0.0,0.0,0.0,0.0,0.0,0.0,0.0,0.0,0.0,0.0,0.0,0.0,0.0,0.0,0.0,0.0,0.0,0.0,0.0,0.0,0.0,0.0,0.0,0.0,0.0,0.0,0.0,0.0,0.0,0.0,0.0,0.0,0.0,0.0,0.0,0.0,0.0,0.0,0.0,0.0,0.0,0.0,0.0,0.0,0.0,0.0,0.0,0.0,0.0,0.0,0.0,0.0,0.0,0.0,0.0,0.0,0.0,0.0,0.0,0.0,0.0,0.0,0.0,0.0,0.0,0.0,0.0,0.0,0.0,0.0,0.0,0.0,0.0,0.0,0.0,0.0,0.0,0.0,0.0,0.0,0.0,0.0,0.0,0.0,0.0,0.0,0.0,0.0,0.0,0.0,0.0,0.0,0.0,0.0,0.0,0.0,2.1365,2.2815,2.2859,2.2511,2.1729,2.0981,2.0256,0.0,0.0,0.0,0.0,0.0,0.0,0.0,0.0,0.0,0.0,0.0,0.0,0.0,0.0,0.0,0.0,0.0,0.0,0.0,0.0,0.0,0.0,0.0,0.0,0.0,0.0,0.0,0.0,0.0,0.0,0.0,0.0,0.0,0.0,0.0,0.0,0.0,0.0,0.0,0.0,0.0,0.0,0.0,0.0,0.0,0.0,0.0,0.0,0.0,0.0,0.0,0.0,0.0,0.0,0.0,0.0,0.0,0.0,0.0,0.0,0.0,0.0,0.0,0.0,0.0,0.0,0.0,0.0,0.0,0.0,0.0,0.0,0.0,0.0,0.0,0.0,0.0,0.0,0.0,0.0,0.0,0.0,0.0,0.0,0.0,0.0,0.0,0.0,0.0,0.0,0.0,0.0,0.0,0.0,0.0,0.0,0.0,0.0,0.0,0.0,0.0,0.0,0.0,0.0,0.0,0.0,0.0,0.0,0.0,2.2351,2.2375,2.2228,2.1946,2.0807,2.0106,0.0,0.0,0.0,0.0,0.0,0.0,0.0,0.0,0.0,0.0,0.0,0.0,0.0,0.0,0.0,0.0,0.0,0.0,0.0,0.0,0.0,0.0,0.0,0.0,0.0,0.0,0.0,0.0,0.0,0.0,0.0,0.0,0.0,0.0,0.0,0.0,0.0,0.0,0.0,0.0,0.0,0.0,0.0,0.0,0.0,0.0,0.0,0.0,0.0,0.0,0.0,0.0,0.0,0.0,0.0,0.0,0.0,0.0,0.0,0.0,0.0,0.0,0.0,0.0,0.0,0.0,0.0,0.0,0.0,0.0,0.0,0.0,0.0,0.0,0.0,0.0,0.0,0.0,0.0,0.0,0.0,0.0,0.0,0.0,0.0,0.0,0.0,0.0,0.0,0.0,0.0,0.0,0.0,0.0,0.0,0.0,0.0,0.0,0.0,0.0,0.0,0.0,0.0,0.0,0.0,0.0,0.0,0.0,0.0,2.1437,2.1685,2.179,2.179,2.0467,1.9796,1.9807,0.0,0.0,0.0,0.0,0.0,0.0,0.0,0.0,0.0,0.0,0.0,0.0,0.0,0.0,0.0,0.0,0.0,0.0,0.0,0.0,0.0,0.0,0.0,0.0,0.0,0.0,0.0,0.0,0.0,0.0,0.0,0.0,0.0,0.0,0.0,0.0,0.0,0.0,0.0,0.0,0.0,0.0,0.0,0.0,0.0,0.0,0.0,0.0,0.0,0.0,0.0,0.0,0.0,0.0,0.0,0.0,0.0,0.0,0.0,0.0,0.0,0.0,0.0,0.0,0.0,0.0,0.0,0.0,0.0,0.0,0.0,0.0,0.0,0.0,0.0,0.0,0.0,0.0,0.0,0.0,0.0,0.0,0.0,0.0,0.0,0.0,0.0,0.0,0.0,0.0,0.0,0.0,0.0,0.0,0.0,0.0,0.0,0.0,0.0,0.0,0.0,0.0,0.0,0.0,0.0,0.0,0.0,0.0,2.0215,2.0862,2.1166,2.1213,1.9994,1.9316,0.0,0.0,0.0,0.0,0.0,0.0,0.0,0.0,0.0,0.0,0.0,0.0,0.0,0.0,0.0,0.0,0.0,0.0,0.0,0.0,0.0,0.0,0.0,0.0,0.0,0.0,0.0,0.0,0.0,0.0,0.0,0.0,0.0,0.0,0.0,0.0,0.0,0.0,0.0,0.0,0.0,0.0,0.0,0.0,0.0,0.0,0.0,0.0,0.0,0.0,0.0,0.0,0.0,0.0,0.0,0.0,0.0,0.0,0.0,0.0,0.0,0.0,0.0,0.0,0.0,0.0,0.0,0.0,0.0,0.0,0.0,0.0,0.0,0.0,0.0,0.0,0.0,0.0,0.0,0.0,0.0,0.0,0.0,0.0,0.0,0.0,0.0,0.0,0.0,0.0,0.0,0.0,0.0,0.0,0.0,0.0,0.0,0.0,0.0,0.0,0.0,0.0,0.0,0.0,0.0,0.0,0.0,0.0,0.0,1.9309,1.9353,1.9707,2.0364,1.9734,1.9184,0.0,0.0,0.0,0.0,0.0,0.0,0.0,0.0,0.0,0.0,0.0,0.0,0.0,0.0,0.0,0.0,0.0,0.0,0.0,0.0,0.0,0.0,0.0,0.0,0.0,0.0,0.0,0.0,0.0,0.0,0.0,0.0,0.0,0.0,0.0,0.0,0.0,0.0,0.0,0.0,0.0,0.0,0.0,0.0,0.0,0.0,0.0,0.0,0.0,0.0,0.0,0.0,0.0,0.0,0.0,0.0,0.0,0.0,0.0,0.0,0.0,0.0,0.0,0.0,0.0,0.0,0.0,0.0,0.0,0.0,0.0,0.0,0.0,0.0,0.0,0.0,0.0,0.0,0.0,0.0,0.0,0.0,0.0,0.0,0.0,0.0,0.0,0.0,0.0,0.0,0.0,0.0,0.0,0.0,0.0,0.0,0.0,0.0,0.0,0.0,0.0,0.0,0.0,0.0,0.0,0.0,0.0,0.0,1.7263,1.8349,1.8249,1.8405,1.8902,1.8882,1.8642,0.0,0.0,0.0,0.0,0.0,0.0,0.0,0.0,0.0,0.0,0.0,0.0,0.0,0.0,0.0,0.0,0.0,0.0,0.0,0.0,0.0,0.0,0.0,0.0,0.0,0.0,0.0,0.0,0.0,0.0,0.0,0.0,0.0,0.0,0.0,0.0,0.0,0.0,0.0,0.0,0.0,0.0,0.0,0.0,0.0,0.0,0.0,0.0,0.0,0.0,0.0,0.0,0.0,0.0,0.0,0.0,0.0,0.0,0.0,0.0,0.0,0.0,0.0,0.0,0.0,0.0,0.0,0.0,0.0,0.0,0.0,0.0,0.0,0.0,0.0,0.0,0.0,0.0,0.0,0.0,0.0,0.0,0.0,0.0,0.0,0.0,0.0,0.0,0.0,0.0,0.0,0.0,0.0,0.0,0.0,0.0,0.0,0.0,0.0,0.0,0.0,0.0,0.0,0.0,0.0,0.0,0.0,0.0,1.6367,1.7313,1.7299,1.7271,1.7216,1.7847,1.7972,0.0,0.0,0.0,0.0,0.0,0.0,0.0,0.0,0.0,0.0,0.0,0.0,0.0,0.0,0.0,0.0,0.0,0.0,0.0,0.0,0.0,0.0,0.0,0.0,0.0,0.0,0.0,0.0,0.0,0.0,0.0,0.0,0.0,0.0,0.0,0.0,0.0,0.0,0.0,0.0,0.0,0.0,0.0,0.0,0.0,0.0,0.0,0.0,0.0,0.0,0.0,0.0,0.0,0.0,0.0,0.0,0.0,0.0,0.0,0.0,0.0,0.0,0.0,0.0,0.0,0.0,0.0,0.0,0.0,0.0,0.0,0.0,0.0,0.0,0.0,0.0,0.0,0.0,0.0,0.0,0.0,0.0,0.0,0.0,0.0,0.0,0.0,0.0,0.0,0.0,0.0,0.0,0.0,0.0,0.0,0.0,0.0,0.0,0.0,0.0,0.0,0.0,0.0,0.0,0.0,0.0,0.0,0.0,1.5222,1.6133,1.6058,1.6139,1.643,1.7464,1.767,0.0,0.0,0.0,0.0,0.0,0.0,0.0,0.0,0.0,0.0,0.0,0.0,0.0,0.0,0.0,0.0,0.0,0.0,0.0,0.0,0.0,0.0,0.0,0.0,0.0,0.0,0.0,0.0,0.0,0.0,0.0,0.0,0.0,0.0,0.0,0.0,0.0,0.0,0.0,0.0,0.0,0.0,0.0,0.0,0.0,0.0,0.0,0.0,2.2764,0.0,0.0,0.0,0.0,0.0,0.0,0.0,0.0,0.0,0.0,0.0,0.0,0.0,0.0,0.0,0.0,0.0,0.0,0.0,0.0,0.0,0.0,0.0,0.0,0.0,0.0,0.0,0.0,0.0,0.0,0.0,0.0,0.0,0.0,0.0,0.0,0.0,0.0,0.0,0.0,0.0,0.0,0.0,0.0,0.0,0.0,0.0,0.0,0.0,0.0,0.0,0.0,0.0,0.0,0.0,0.0,0.0,0.0,0.0,1.4197,1.4971,1.4971,1.5085,1.5345,1.6256,1.665,0.0,0.0,0.0,0.0,0.0,0.0,0.0,0.0,0.0,0.0,0.0,0.0,0.0,0.0,0.0,0.0,0.0,0.0,0.0,0.0,0.0,0.0,0.0,0.0,0.0,0.0,0.0,0.0,0.0,0.0,0.0,0.0,0.0,0.0,0.0,0.0,0.0,0.0,0.0,0.0,0.0,0.0,0.0,0.0,0.0,0.0,0.0,0.0,0.0,0.0,0.0,0.0,0.0,0.0,0.0,0.0,0.0,0.0,0.0,0.0,0.0,0.0,0.0,0.0,0.0,0.0,0.0,0.0,0.0,0.0,0.0,0.0,0.0,0.0,0.0,0.0,0.0,0.0,0.0,0.0,0.0,0.0,0.0,0.0,0.0,0.0,0.0,0.0,0.0,0.0,0.0,0.0,0.0,0.0,0.0,0.0,0.0,0.0,0.0,0.0,0.0,0.0,0.0,0.0,0.0,0.0,0.0,1.3073,1.3162,1.381,1.3873,1.3978,1.4107,1.472,1.5301,1.5722,0.0,0.0,0.0,0.0,0.0,0.0,0.0,0.0,0.0,0.0,0.0,0.0,0.0,0.0,0.0,0.0,0.0,0.0,0.0,0.0,0.0,0.0,0.0,0.0,0.0,0.0,0.0,0.0,0.0,0.0,0.0,0.0,0.0,0.0,0.0,0.0,0.0,0.0,2.3277,2.3659,0.0,0.0,0.0,0.0,0.0,0.0,0.0,0.0,2.3472,0.0,0.0,0.0,0.0,0.0,0.0,0.0,0.0,0.0,0.0,0.0,0.0,0.0,0.0,0.0,0.0,0.0,0.0,0.0,0.0,0.0,0.0,0.0,0.0,0.0,0.0,0.0,0.0,0.0,0.0,0.0,0.0,0.0,0.0,0.0,0.0,0.0,0.0,0.0,0.0,0.0,0.0,0.0,0.0,0.0,0.0,0.0,0.0,0.0,0.0,0.0,0.0,0.0,0.0,0.0,0.0,1.2542,1.2042,1.2069,1.2677,1.2706,1.2861,1.3122,1.3721,1.3793,1.3338,0.0,0.0,0.0,0.0,0.0,0.0,0.0,0.0,0.0,0.0,0.0,0.0,0.0,0.0,0.0,0.0,0.0,0.0,0.0,0.0,0.0,0.0,0.0,0.0,0.0,0.0,0.0,0.0,0.0,0.0,0.0,0.0,0.0,0.0,0.0,0.0,0.0,0.0,0.0,2.3635,2.383,0.0,0.0,0.0,0.0,0.0,0.0,0.0,0.0,2.3489,0.0,0.0,0.0,0.0,0.0,0.0,0.0,0.0,0.0,0.0,0.0,0.0,0.0,0.0,0.0,0.0,0.0,0.0,0.0,0.0,0.0,0.0,0.0,0.0,0.0,0.0,0.0,0.0,0.0,0.0,0.0,0.0,0.0,0.0,0.0,0.0,0.0,0.0,0.0,0.0,0.0,0.0,0.0,0.0,0.0,0.0,0.0,0.0,0.0,0.0,0.0,0.0,0.0,0.0,0.0,1.1388,1.0909,1.0946,1.1557,1.1584,1.1742,1.2089,1.2812,1.2976,0.0,0.0,0.0,0.0,0.0,0.0,0.0,0.0,0.0,0.0,0.0,0.0,0.0,0.0,0.0,0.0,0.0,0.0,0.0,0.0,0.0,0.0,0.0,0.0,0.0,0.0,0.0,0.0,0.0,0.0,0.0,0.0,0.0,0.0,0.0,0.0,0.0,0.0,0.0,0.0,2.3958,2.4408,2.4695,0.0,0.0,0.0,0.0,0.0,0.0,2.4013,2.3754,0.0,0.0,0.0,0.0,0.0,0.0,0.0,0.0,0.0,0.0,0.0,0.0,0.0,0.0,0.0,0.0,0.0,0.0,0.0,0.0,0.0,0.0,0.0,0.0,0.0,0.0,0.0,0.0,0.0,0.0,0.0,0.0,0.0,0.0,0.0,0.0,0.0,0.0,0.0,0.0,0.0,0.0,0.0,0.0,0.0,0.0,0.0,0.0,0.0,0.0,0.0,0.0,0.0,0.0,0.0,1.0257,0.9856,0.9882,1.045,1.0498,1.0753,1.1141,1.1931,1.2261,0.0,0.0,0.0,0.0,0.0,0.0,0.0,0.0,0.0,0.0,0.0,0.0,0.0,0.0,0.0,0.0,0.0,0.0,0.0,0.0,0.0,0.0,0.0,0.0,0.0,0.0,0.0,0.0,0.0,0.0,0.0,0.0,0.0,0.0,0.0,0.0,0.0,0.0,0.0,0.0,0.0,2.4905,2.4982,2.5253,0.0,0.0,0.0,0.0,2.4338,2.4242,0.0,0.0,0.0,0.0,0.0,0.0,0.0,0.0,0.0,0.0,0.0,0.0,0.0,0.0,0.0,0.0,0.0,0.0,0.0,0.0,0.0,0.0,0.0,0.0,0.0,0.0,0.0,0.0,0.0,0.0,0.0,0.0,0.0,0.0,0.0,0.0,0.0,0.0,0.0,0.0,0.0,0.0,0.0,0.0,0.0,0.0,0.0,0.0,0.0,0.0,0.0,0.0,0.0,0.0,0.0,0.0,0.9258,0.8827,0.8907,0.9526,0.9562,0.9814,1.032,1.099,1.1375,0.0,0.0,0.0,0.0,0.0,0.0,0.0,0.0,0.0,0.0,0.0,0.0,0.0,0.0,0.0,0.0,0.0,0.0,0.0,0.0,0.0,0.0,0.0,0.0,0.0,0.0,0.0,0.0,0.0,0.0,0.0,0.0,0.0,0.0,0.0,0.0,0.0,0.0,0.0,0.0,0.0,2.4567,2.4891,2.4934,2.4918,0.0,0.0,2.4549,2.4471,2.4471,0.0,0.0,0.0,0.0,0.0,0.0,0.0,0.0,0.0,0.0,0.0,0.0,0.0,0.0,0.0,0.0,0.0,0.0,0.0,0.0,0.0,0.0,0.0,0.0,0.0,0.0,0.0,0.0,0.0,0.0,0.0,0.0,0.0,0.0,0.0,0.0,0.0,0.0,0.0,0.0,0.0,0.0,0.0,0.0,0.0,0.0,0.0,0.0,0.0,0.0,0.0,0.0,0.0,0.0,0.0,0.7911,0.8191,0.7788,0.7826,0.8435,0.8508,0.8823,0.9399,1.0123,1.0589,0.0,0.0,0.0,0.0,0.0,0.0,0.0,0.0,0.0,0.0,0.0,0.0,0.0,0.0,0.0,0.0,0.0,0.0,0.0,0.0,0.0,0.0,0.0,0.0,0.0,0.0,0.0,0.0,0.0,0.0,0.0,0.0,0.0,0.0,0.0,0.0,0.0,0.0,0.0,0.0,0.0,0.0,2.4894,2.5078,0.0,0.0,0.0,2.431,2.431,0.0,0.0,0.0,0.0,0.0,0.0,0.0,0.0,0.0,0.0,0.0,0.0,0.0,0.0,0.0,0.0,0.0,0.0,0.0,0.0,0.0,0.0,0.0,0.0,0.0,0.0,0.0,0.0,0.0,0.0,0.0,0.0,0.0,0.0,0.0,0.0,0.0,0.0,0.0,0.0,0.0,0.0,0.0,0.0,0.0,0.0,0.0,0.0,0.0,0.0,0.0,0.0,0.0,0.0,0.0,0.0,0.0,0.711,0.6744,0.6795,0.7326,0.7498,0.7865,0.856,0.934,0.0,0.0,0.0,0.0,0.0,0.0,0.0,0.0,0.0,0.0,0.0,0.0,0.0,0.0,0.0,0.0,0.0,0.0,0.0,0.0,0.0,0.0,0.0,0.0,0.0,0.0,0.0,0.0,0.0,0.0,0.0,0.0,0.0,0.0,0.0,0.0,0.0,0.0,0.0,0.0,0.0,0.0,2.482,2.4597,2.498,2.5206,0.0,0.0,2.4236,2.4236,2.3772,2.3422,0.0,0.0,0.0,0.0,0.0,0.0,0.0,0.0,0.0,0.0,0.0,0.0,0.0,0.0,0.0,0.0,0.0,0.0,0.0,0.0,0.0,0.0,0.0,0.0,0.0,0.0,0.0,0.0,0.0,0.0,0.0,0.0,0.0,0.0,0.0,0.0,0.0,0.0,0.0,0.0,0.0,0.0,0.0,0.0,0.0,0.0,0.0,0.0,0.0,0.0,0.0,0.0,0.0,0.0,0.0,0.5955,0.5687,0.5848,0.647,0.6593,0.7122,0.7925,0.8659,0.9242,0.0,0.0,0.0,0.0,0.0,0.0,0.0,0.0,0.0,0.0,0.0,0.0,0.0,0.0,0.0,0.0,0.0,0.0,0.0,0.0,0.0,0.0,0.0,0.0,0.0,0.0,0.0,0.0,0.0,0.0,0.0,0.0,0.0,0.0,0.0,0.0,0.0,0.0,0.0,0.0,0.0,2.3883,2.3725,2.4192,2.4525,0.0,0.0,2.4305,2.4305,2.3798,2.3431,2.3554,0.0,0.0,0.0,0.0,0.0,0.0,0.0,0.0,0.0,0.0,0.0,0.0,0.0,0.0,0.0,0.0,0.0,0.0,0.0,0.0,0.0,0.0,0.0,0.0,0.0,0.0,0.0,0.0,0.0,0.0,0.0,0.0,0.0,0.0,0.0,0.0,0.0,0.0,0.0,0.0,0.0,0.0,0.0,0.0,0.0,0.0,0.0,0.0,0.0,0.0,0.0,0.0,0.0,0.4852,0.5078,0.4902,0.5034,0.5597,0.5837,0.6263,0.6966,0.7765,0.8338,0.0,0.0,0.0,0.0,0.0,0.0,0.0,0.0,0.0,0.0,0.0,0.0,0.0,0.0,0.0,0.0,0.0,0.0,0.0,0.0,0.0,0.0,0.0,0.0,0.0,0.0,0.0,0.0,1.581,1.6218,1.6702,0.0,0.0,0.0,0.0,0.0,0.0,0.0,0.0,0.0,0.0,2.3593,2.3689,2.4254,0.0,0.0,2.4136,2.389,2.3996,2.3527,2.3156,2.2958,2.2935,0.0,0.0,0.0,0.0,0.0,0.0,0.0,0.0,0.0,0.0,0.0,0.0,0.0,0.0,0.0,0.0,0.0,0.0,0.0,0.0,0.0,0.0,0.0,0.0,0.0,0.0,0.0,0.0,0.0,0.0,0.0,0.0,0.0,0.0,0.0,0.0,0.0,0.0,0.0,0.0,0.0,0.0,0.0,0.0,0.0,0.0,0.0,0.0,0.0,0.0,0.0,0.0,0.4031,0.4253,0.4111,0.4264,0.4791,0.5073,0.5563,0.6164,0.702,0.761,0.0,0.0,0.0,0.0,0.0,0.0,0.0,0.0,0.0,0.0,0.0,0.0,0.0,0.0,0.0,0.0,0.0,0.0,0.0,0.0,0.0,0.0,0.0,0.0,0.0,0.0,0.0,0.0,1.5167,1.5532,1.5941,0.0,0.0,0.0,0.0,0.0,0.0,0.0,0.0,0.0,0.0,2.2961,2.33,2.3839,2.4195,2.415,2.3751,2.3559,2.3715,2.3349,2.2978,2.2719,0.0,0.0,0.0,0.0,0.0,0.0,0.0,0.0,0.0,0.0,0.0,0.0,0.0,0.0,0.0,0.0,0.0,0.0,0.0,0.0,0.0,0.0,0.0,0.0,0.0,0.0,0.0,0.0,0.0,0.0,-0.0654,0.0,0.0,0.0,0.0,0.0,0.0,0.0,0.0,0.0,0.0,0.0,0.0,0.0,0.0,0.0,0.0,0.0,0.0,0.0,0.0,0.0,0.0,0.3161,0.3415,0.3271,0.3493,0.4012,0.4353,0.4846,0.5567,0.6426,0.7214,0.7823,0.0,0.0,0.0,0.0,0.0,0.0,0.0,0.0,0.0,0.0,0.0,0.0,0.0,0.0,0.0,0.0,0.0,0.0,0.0,0.0,0.0,0.0,0.0,0.0,0.0,0.0,1.5004,1.4767,1.4669,0.0,0.0,0.0,0.0,0.0,0.0,0.0,0.0,0.0,0.0,2.1362,2.2002,2.2214,2.2749,2.3148,2.3301,2.3289,2.3361,2.3539,2.3193,2.2933,0.0,0.0,0.0,0.0,0.0,0.0,0.0,0.0,0.0,0.0,0.0,0.0,0.0,0.0,0.0,0.0,0.0,0.0,0.0,0.0,0.0,0.0,0.0,0.0,0.0,0.0,0.0,-0.3915,-0.3599,0.0,0.0,0.0,0.0,0.0,0.0,0.0,0.0,0.0,0.0,0.0,-0.252,-0.2491,0.0,0.0,0.0,0.0,0.0,0.0,0.0,0.0,0.0,0.0,0.0,0.0,0.2533,0.2713,0.2838,0.3045,0.3403,0.3796,0.4349,0.5018,0.5773,0.6618,0.7626,0.0,0.0,0.0,0.0,0.0,0.0,0.0,0.0,0.0,0.0,0.0,0.0,0.0,0.0,0.0,0.0,0.0,0.0,0.0,0.0,0.0,0.0,0.0,0.0,0.0,1.3893,0.0,0.0,0.0,0.0,0.0,0.0,0.0,0.0,0.0,0.0,0.0,1.924,1.9889,2.0342,2.0813,2.1213,2.1673,2.2002,0.0,0.0,0.0,0.0,0.0,0.0,0.0,0.0,0.0,0.0,0.0,0.0,0.0,0.0,2.1511,2.1509,2.1461,2.1415,2.131,0.0,0.0,0.0,0.0,0.0,0.0,0.0,0.0,0.0,0.0,0.0,0.0,0.0,0.0,-0.5724,0.0,-0.5046,0.0,0.0,0.0,0.0,0.0,0.0,0.0,0.0,-0.4545,-0.4428,-0.4314,-0.421,-0.3919,0.0,-0.3143,-0.2142,0.0,0.0,0.0,0.0,0.0,0.0,0.0,0.0,0.1978,0.2208,0.2368,0.2599,0.2961,0.3352,0.3852,0.4467,0.5445,0.646,0.7431,0.8126,0.862,0.0,0.0,0.0,0.0,0.0,0.0,0.0,0.0,0.0,0.0,0.0,0.0,0.0,0.0,0.0,0.0,0.0,0.0,0.0,0.0,0.0,0.0,0.0,1.3036,0.0,0.0,0.0,0.0,0.0,0.0,0.0,0.0,0.0,1.6576,1.7413,1.8086,1.8733,1.921,1.9628,2.0073,0.0,0.0,0.0,0.0,0.0,0.0,0.0,2.1906,2.1789,2.1968,2.1962,2.1617,2.17,2.175,2.1549,0.0,0.0,2.1752,2.177,2.177,2.1669,2.1925,2.214,2.1957,2.2273,2.2497,0.0,0.0,0.0,0.0,0.0,0.0,0.0,0.0,-0.8282,-0.7806,0.0,-0.7096,0.0,0.0,0.0,0.0,0.0,-0.6027,0.0,0.0,-0.6506,-0.652,-0.6322,-0.5972,-0.5596,-0.5235,-0.458,-0.3944,-0.3227,-0.1693,0.0,0.0,0.0,0.0,0.0,0.0,0.1594,0.1862,0.187,0.2172,0.2687,0.2965,0.3408,0.4024,0.5546,0.6632,0.7183,0.7814,0.8332,0.8679,0.904,0.0,0.0,0.0,0.0,0.0,0.0,0.0,0.0,0.0,0.0,0.0,0.0,0.0,0.0,0.0,0.0,0.0,0.0,0.0,0.0,1.2241,0.0,0.0,0.0,0.0,0.0,0.0,0.0,0.0,0.0,0.0,1.5084,1.6277,1.6986,1.7118,0.0,0.0,0.0,0.0,1.9375,1.9704,1.9901,2.0237,2.0764,2.0955,2.1123,2.1313,0.0,0.0,2.1512,2.1618,2.1577,2.1039,2.0921,2.1112,2.1686,2.172,2.1737,2.175,2.1763,2.1771,2.1771,2.1835,2.1843,-1.4417,0.0,0.0,0.0,0.0,-1.0729,-1.0336,-0.9819,-0.9704,-0.935,-0.8762,-0.8592,0.0,0.0,0.0,0.0,0.0,0.0,-0.7478,-0.7591,-0.7709,-0.7709,-0.765,-0.7352,-0.6953,-0.6406,-0.5884,-0.5202,-0.4334,-0.3428,-0.2327,-0.1162,0.0,0.0,0.0,0.0,0.1002,0.1333,0.1639,0.1944,0.2184,0.2685,0.3463,0.4467,0.5559,0.6328,0.6729,0.751,0.8076,0.8478,0.898,0.0,0.0,0.0,0.0,0.0,0.0,0.0,0.0,0.0,0.0,0.0,0.0,0.0,0.0,0.0,0.0,0.0,0.0,0.0,1.1004,1.0718,1.0588,0.0,0.0,0.0,0.0,0.0,0.0,0.0,0.0,0.0,1.3029,1.4418,1.5547,0.0,0.0,1.6991,1.7217,1.7765,1.824,1.8499,0.0,0.0,0.0,1.9987,2.0313,2.042,2.088,2.1227,2.1276,2.1315,2.1319,2.1155,2.1143,2.1216,2.128,2.1289,2.1168,2.1087,2.1313,2.1513,2.1492,2.1797,2.2078,-1.6057,-1.4583,-1.367,-1.3094,-1.2694,-1.2291,-1.1892,-1.1483,-1.1263,-1.0901,-1.0412,-1.0173,-0.994,-0.9693,-0.9398,0.0,0.0,0.0,-0.8986,-0.9041,-0.9102,-0.9102,-0.8914,-0.8686,-0.8266,-0.7592,-0.6947,-0.6167,-0.5322,-0.4487,-0.3501,-0.2318,0.0,0.0,-0.0316,0.0215,0.0707,0.1143,0.1444,0.1738,0.2071,0.2796,0.3633,0.4577,0.5399,0.6054,0.6508,0.7184,0.776,0.827,0.8776,0.9275,0.0,0.0,0.0,0.0,0.0,0.0,0.0,0.0,0.0,0.0,0.0,1.2388,0.0,0.0,0.0,0.0,1.0997,1.0552,0.9917,0.9719,0.0,0.0,0.0,0.0,0.0,0.0,0.0,1.0499,1.0818,1.1116,1.1361,1.2506,1.3648,1.4577,1.5163,1.5587,1.5745,0.0,1.7065,1.7502,1.8154,1.8644,1.8849,1.9266,1.9617,1.9878,2.0183,2.0442,2.07,2.0839,2.0914,2.0903,2.0914,2.0978,2.099,2.0888,2.0878,2.095,2.126,2.1547,2.1461,2.1723,2.2011,-1.7134,-1.6751,-1.5555,-1.4855,-1.4529,-1.3872,-1.3511,-1.3321,-1.2842,-1.2397,-1.2081,-1.1787,-1.1553,-1.1365,-1.1052,0.0,-1.0395,-1.0541,-1.0548,-1.0428,-1.0561,-1.0491,-1.0098,-0.9897,-0.945,-0.8734,-0.7857,-0.7001,-0.6217,-0.5091,-0.4184,-0.3411,-0.2181,-0.1343,-0.0898,-0.0112,0.0561,0.1178,0.129,0.1626,0.2238,0.3135,0.3913,0.4519,0.5179,0.5837,0.6376,0.6922,0.7461,0.8119,0.847,0.8845,0.9307,0.0,0.0,0.0,0.0,0.0,0.0,0.0,0.0,0.0,0.0,0.0,0.0,0.0,0.0,0.0,0.9781,0.0,0.9136,0.9125,0.0,0.0,0.0,0.885,0.8865,0.886,0.9024,0.9327,0.0,0.0,1.0034,0.0,1.1552,1.3018,1.3803,1.4235,1.4466,1.5188,1.5962,1.6624,1.727,1.784,1.8197,1.8645,1.9079,1.9404,1.9539,1.966,1.9987,2.0194,2.0346,2.041,2.0529,2.0604,2.068,2.0624,2.0786,2.1215,2.1451,2.1612,2.16,2.1612,2.1686,-1.7865,-1.7434,-1.6673,-1.5931,-1.5303,-1.4834,-1.4478,-1.4172,-1.3821,-1.3459,-1.313,-1.2789,-1.2421,-1.2058,-1.1872,-1.1677,-1.1421,-1.1365,-1.1303,-1.131,-1.1185,-1.1059,-1.0989,-1.0544,-1.0079,-0.9419,-0.8557,-0.7549,-0.6506,-0.5481,-0.4519,-0.3685,-0.2573,-0.1737,-0.1178,-0.0336,0.0449,0.1234,0.1459,0.1962,0.2852,0.3466,0.4021,0.4632,0.512,0.5668,0.6381,0.6972,0.7629,0.8266,0.8676,0.9147,0.964,0.9849,0.0,0.0,0.0,0.0,0.0,0.0,0.0,0.0,0.0,1.1202,1.0994,0.0,1.0328,0.0,0.9267,0.8748,0.824,0.8211,0.0,0.0,0.7769,0.7856,0.7997,0.802,0.8093,0.8364,0.8623,0.8803,0.8998,0.9463,1.0067,1.0881,1.2144,1.3178,1.347,1.4194,1.4792,1.5383,1.5988,1.6607,1.7046,1.7732,1.8398,1.8664,1.8988,1.9274,1.9473,1.9671,1.9868,2.0009,2.0074,2.014,2.0205,2.0335,2.054,2.0786,2.0978,2.1094,2.1106,2.1233,2.136,-1.815,-1.7778,-1.7362,-1.6885,-1.6351,-1.5566,-1.5069,-1.4883,-1.4419,-1.4121,-1.3923,-1.345,-1.3033,-1.2728,-1.2552,-1.2375,-1.2182,-1.2058,-1.1934,-1.1685,-1.156,-1.1428,-1.1178,-1.087,-1.0269,-0.9547,-0.8687,-0.7724,-0.6687,-0.5592,-0.4625,-0.3907,-0.274,-0.1961,-0.1515,-0.0505,0.0449,0.129,0.1738,0.2352,0.3074,0.363,0.4187,0.4794,0.5281,0.5828,0.6485,0.7031,0.7622,0.8268,0.8639,0.9054,0.951,0.9673,0.9956,0.0,0.0,0.0,0.0,0.0,0.0,0.0,0.0,0.0,0.0,0.0,0.934,0.0,0.8389,0.7952,0.7425,0.7368,0.7202,0.6917,0.6842,0.6919,0.7013,0.7025,0.7135,0.7387,0.7629,0.7863,0.8093,0.8556,0.917,0.969,1.0887,1.1929,1.2599,1.3331,1.403,1.4686,1.5363,1.6019,1.6741,1.7288,1.7794,1.8182,1.8596,1.8875,1.9085,1.9274,1.9539,1.9736,1.9868,1.9933,2.0074,2.0281,2.041,2.054,2.0722,2.0903,2.1031,2.1094,2.1233,-1.8193,-1.7888,-1.7682,-1.753,-1.7275,-1.5986,-1.5498,-1.5488,-1.4852,-1.4529,-1.441,-1.3812,-1.345,-1.3329,-1.3103,-1.2858,-1.2691,-1.2621,-1.2305,-1.1864,-1.1809,-1.1553,-1.1178,-1.0829,-1.0299,-0.9425,-0.8468,-0.7639,-0.6744,-0.5481,-0.457,-0.3913,-0.2742,-0.2018,-0.1628,-0.0561,0.0505,0.1346,0.213,0.2745,0.3132,0.3747,0.4298,0.4897,0.55,0.61,0.6701,0.709,0.7586,0.8168,0.8421,0.8738,0.9159,0.9292,0.9592,0.0,1.0031,0.0,0.0,0.0,0.0,0.0,0.0,0.0,0.0,0.8765,0.8205,0.7683,0.7456,0.7136,0.6725,0.657,0.6432,0.6204,0.6086,0.6167,0.6167,0.6089,0.6247,0.6483,0.671,0.7019,0.7407,0.7944,0.8556,0.9165,0.9992,1.0881,1.1787,1.2599,1.3425,1.432,1.502,1.5883,1.6759,1.7101,1.7373,1.7862,1.8279,1.8549,1.8751,1.9085,1.9351,1.9539,1.9813,1.9944,2.0074,2.0281,2.041,2.0464,2.0775,2.0967,2.1094,2.1158,2.1233,-1.8193,-1.7854,-1.7333,-1.6981,-1.6707,-1.605,-1.5988,-1.6267,-1.535,-1.4606,-1.413,-1.395,-1.3761,-1.345,-1.3155,-1.2989,-1.2928,-1.2552,-1.2305,-1.2182,-1.1809,-1.1622,-1.1483,-1.0684,-1.0045,-0.9583,-0.8399,-0.7353,-0.6625,-0.5477,-0.4457,-0.368,-0.2685,-0.1793,-0.1066,0.0,0.0,0.0,0.2352,0.2914,0.3471,0.3916,0.4467,0.5069,0.5559,0.0,0.6701,0.7095,0.7586,0.8168,0.8374,0.0,0.0,0.0,0.0,0.0,0.0,0.0,0.0,0.0,0.0,0.0,0.9215,0.9188,0.9107,0.8346,0.7654,0.7223,0.6927,0.6559,0.6152,0.6033,0.5976,0.5752,0.5696,0.5712,0.5712,0.5712,0.5789,0.6018,0.6402,0.6714,0.7019,0.7714,0.8331,0.8784,0.9539,1.0293,1.1192,1.215,1.2994,1.3653,1.476,1.5686,1.6378,1.6875,1.7304,1.7598,1.8144,1.8482,1.8617,1.9019,1.9341,1.9539,1.9813,2.0009,2.027,2.0399,2.0529,2.0775,2.0967,2.1094,2.0967,2.1094,2.1233,-1.8061,0.0,-1.7412,-1.7034,0.0,-1.6226,-1.6108,-1.6207,-1.5388,-1.4675,-1.4139,-1.3881,-1.3631,-1.3511,-1.3164,-1.292,-1.2805,-1.256,-1.2313,-1.1934,-1.1615,-1.1293,-1.0897,-1.0119,-0.9481,-0.8792,-0.7772,-0.6859,-0.6086,-0.5049,-0.4181,-0.3463,-0.2685,-0.1849,-0.0897,0.0336,0.1345,0.1959,0.2575,0.319,0.3805,0.4301,0.4794,0.5344,0.0,0.0,0.0,0.0,0.0,0.0,0.0,0.0,0.0,0.0,0.0,0.9608,0.9636,0.9599,0.955,0.94,0.9191,0.8925,0.8658,0.8454,0.828,0.7762,0.7192,0.6611,0.6471,0.6249,0.5699,0.5631,0.5476,0.5329,0.5329,0.5326,0.5326,0.5404,0.5556,0.5789,0.6177,0.6567,0.7026,0.7642,0.8331,0.8932,0.969,1.0519,1.126,1.1996,1.2746,1.3775,1.4784,1.5709,1.6202,1.6821,1.7304,1.7657,1.8144,1.8549,1.8751,1.9085,1.9407,1.9726,1.9922,2.0118,2.0464,2.0658,2.085,2.1031,2.1233,2.1423,2.1296,2.136,2.1434,-1.7875,-1.7545,-1.7355,-1.7069,-1.6745,-1.6138,-1.5776,-1.5556,0.0,0.0,0.0,-1.3692,-1.345,-1.3329,-1.3042,-1.2805,-1.2498,-1.2436,-1.2027,-1.1418,-1.1162,-1.0629,-0.9993,-0.9373,-0.864,-0.7847,-0.6997,-0.6216,-0.5403,-0.4512,-0.3793,-0.3246,-0.2519,-0.168,-0.0505,0.1066,0.2018,0.2352,0.2852,0.3408,0.3965,0.457,0.512,0.5618,0.6109,0.6652,0.7139,0.7359,0.7806,0.8444,0.8661,0.8925,0.9269,0.9426,0.957,0.9803,0.9562,0.9432,0.9378,0.9081,0.8887,0.8696,0.8251,0.7815,0.7444,0.7241,0.6821,0.6067,0.611,0.5948,0.5323,0.5243,0.5165,0.5018,0.5018,0.5018,0.5093,0.5165,0.5398,0.5715,0.618,0.6641,0.7257,0.7868,0.8556,0.9316,1.0067,1.0962,1.1848,1.2439,1.3178,1.4346,1.5213,1.585,1.6342,1.689,1.7442,1.794,1.8347,1.8741,1.9065,1.9341,1.966,2.0053,2.0183,2.0377,2.0711,2.1031,2.1221,2.1296,2.1561,2.1761,2.1824,2.1824,2.1824,-1.7468,-1.7067,-1.6524,-1.6107,-1.582,-1.5351,-1.4809,-1.4261,-1.4156,-1.3941,-1.3571,-1.339,-1.3155,-1.2867,-1.2744,-1.2498,-1.212,-1.1685,-1.1229,0.0,-1.0228,-0.9713,-0.9206,-0.8374,-0.7722,-0.7192,-0.6235,-0.5419,-0.4787,-0.4064,-0.3297,-0.2631,-0.1846,-0.0671,0.0785,0.168,0.2406,0.2963,0.3077,0.3408,0.4021,0.457,0.5171,0.5719,0.6164,0.6657,0.7257,0.7419,0.7889,0.8711,0.8762,0.9065,0.9613,0.9781,0.9778,0.9646,0.9537,0.936,0.9081,0.877,0.8501,0.8359,0.8047,0.7647,0.727,0.704,0.6678,0.5986,0.5777,0.5559,0.5093,0.5096,0.5093,0.5018,0.5018,0.5093,0.5246,0.5321,0.5553,0.6103,0.656,0.7096,0.7706,0.8394,0.9155,0.9765,1.0663,1.1626,1.2879,1.3615,1.4194,1.4911,1.563,1.6202,1.676,1.7304,1.7784,1.8202,1.8674,1.9142,1.9473,1.9791,2.0053,2.0335,2.0582,2.0828,2.1106,2.1273,2.1463,2.1737,2.1999,2.2123,2.2199,2.2359,2.2322,-1.7022,-1.6549,-1.6002,-1.5605,-1.5264,-1.4538,-1.3941,-1.3467,-1.3094,-1.3103,-1.3164,-1.285,-1.2552,-1.2367,-1.2058,-1.1747,-1.1553,-1.0993,-1.0479,-1.0046,-0.9396,-0.877,-0.8178,-0.7535,-0.691,-0.635,-0.5542,-0.4787,-0.4181,-0.3463,-0.291,-0.2354,-0.1008,0.0448,0.1737,0.2242,0.2742,0.335,0.3522,0.3852,0.446,0.5011,0.5508,0.6,0.644,0.6879,0.7317,0.7712,0.8275,0.8775,0.9202,0.9545,0.9913,0.9956,0.9918,0.98,0.9527,0.9274,0.9017,0.8748,0.8432,0.8146,0.8162,0.7961,0.7585,0.7126,0.671,0.6177,0.587,0.5634,0.5404,0.5326,0.5326,0.5326,0.5326,0.5404,0.5634,0.5864,0.617,0.6637,0.7176,0.771,0.8241,0.9008,0.976,1.0513,1.1545,1.2799,1.397,1.4625,1.5125,1.548,1.5982,1.6612,1.7235,1.7716,1.8192,1.8674,1.9075,1.9462,1.9791,2.0172,2.0442,2.0775,2.1031,2.1285,2.1537,2.1737,2.1925,2.2111,2.2309,2.2408,2.2261,2.2191,2.2191,-1.656,-1.6036,-1.5439,-1.4968,-1.4488,-1.3631,-1.3033,-1.2674,-1.2127,-1.212,-1.2359,-1.205,-1.1872,-1.1747,-1.1303,-1.0954,-1.0615,-1.0085,-0.9599,-0.8999,-0.844,-0.7742,-0.7089,-0.6619,-0.603,-0.5348,-0.467,-0.407,-0.3574,-0.2798,-0.2128,-0.1568,-0.0,0.14,0.2465,0.2742,0.3188,0.3741,0.4076,0.4463,0.4956,0.5399,0.5841,0.6228,0.6717,0.7117,0.7454,0.8078,0.8577,0.8985,0.9583,0.9964,1.0221,1.0121,1.0047,0.9983,0.9594,0.921,0.8922,0.8811,0.8574,0.8226,0.8388,0.8399,0.8089,0.7557,0.6945,0.6486,0.6177,0.5941,0.5789,0.5712,0.5712,0.5712,0.5789,0.5944,0.617,0.6556,0.6949,0.7249,0.794,0.8551,0.9084,0.9765,1.0588,1.162,1.2872,1.397,1.4768,1.5551,1.6053,1.6254,1.6603,1.7088,1.7716,1.8259,1.8731,1.9198,1.9605,1.9987,2.0302,2.0624,2.0955,2.1285,2.1526,2.1714,2.1963,2.2029,2.2214,2.2347,2.2357,2.2303,2.2081,2.1927,2.1971,-1.6036,-1.541,-1.4834,-1.4001,-1.3164,-1.2605,-1.2236,-1.1864,-1.1435,-1.0996,-1.0793,-1.1178,-1.117,-1.0933,-1.0667,-1.0082,-0.9365,-0.9009,-0.8383,-0.7652,-0.7068,-0.6487,-0.5927,-0.5364,-0.475,-0.4184,-0.3577,-0.3244,-0.297,-0.1902,-0.0839,0.0336,0.1174,0.1903,0.2633,0.3241,0.3741,0.4135,0.4688,0.5014,0.5069,0.5559,0.5996,0.6381,0.6874,0.7351,0.7829,0.8223,0.8755,0.9513,0.9784,1.0124,1.0474,1.0358,1.018,0.9989,0.9658,0.9204,0.8668,0.8947,0.899,0.8685,0.8827,0.8922,0.8846,0.8322,0.7642,0.7099,0.671,0.6483,0.617,0.6167,0.6167,0.6244,0.6405,0.656,0.6861,0.7173,0.7633,0.8169,0.8851,0.9377,0.9986,1.0812,1.1774,1.3018,1.3897,1.4768,1.5551,1.6333,1.6959,1.7364,1.7569,1.7784,1.8259,1.8787,1.932,1.9736,2.0194,2.0571,2.0967,2.1285,2.1663,2.1788,2.1978,2.2212,2.2347,2.2272,2.2138,2.2309,2.2185,2.1837,2.1873,2.1856,2.1992,-1.5274,-1.4638,-1.4103,-1.3268,-1.2297,-1.174,-1.1296,-1.085,-1.0351,-0.9964,-0.9615,-0.9481,-0.96,-0.9799,-0.9351,-0.8836,-0.8297,-0.772,-0.7153,-0.6568,-0.5996,-0.5397,-0.4842,-0.4343,-0.3846,-0.3352,-0.3021,-0.2575,-0.1902,-0.0783,0.0336,0.1232,0.2128,0.28,0.3241,0.3852,0.4294,0.4743,0.523,0.5618,0.5837,0.605,0.6322,0.6642,0.7187,0.7689,0.8279,0.8783,0.9291,0.9797,1.0102,1.0378,1.0611,1.0434,1.0244,1.0174,0.9856,0.9536,0.9151,0.9203,0.9262,0.9141,0.9233,0.9388,0.9523,0.9165,0.8856,0.8475,0.771,0.7096,0.7015,0.6938,0.7011,0.7092,0.7249,0.7476,0.7936,0.8241,0.8623,0.9236,0.9836,1.0426,1.1111,1.207,1.3164,1.4178,1.4911,1.5621,1.6333,1.7097,1.7706,1.8104,1.8519,1.8798,1.8921,1.932,1.9791,2.0248,2.0646,2.1106,2.1474,2.18,2.2049,2.2273,2.2274,2.2342,2.248,2.2163,2.1889,2.2099,2.1998,2.1705,2.1758,2.1551,2.1642,-1.451,-1.3786,-1.3139,-1.2282,-1.1358,-1.0793,-1.0281,-0.9812,-0.9249,-0.8798,-0.842,-0.7918,-0.7828,-0.8039,-0.7838,-0.7557,-0.7101,-0.6467,-0.5914,-0.5466,-0.4942,-0.445,-0.4015,-0.3574,-0.3016,-0.246,-0.2183,-0.1568,-0.0559,0.0672,0.1511,0.2069,0.297,0.358,0.3849,0.446,0.4901,0.5344,0.5832,0.6213,0.6593,0.6707,0.681,0.7015,0.7509,0.8021,0.8577,0.9189,0.9702,0.9992,1.0463,1.0744,1.0744,1.0618,1.0498,1.0428,1.018,0.9926,0.9658,0.9634,0.9632,0.9695,0.9796,0.9957,1.0157,1.0067,0.9916,0.9841,0.8927,0.8318,0.8016,0.8012,0.8089,0.8237,0.8318,0.8546,0.8932,0.9301,0.983,1.0368,1.0962,1.1626,1.2365,1.3382,1.4402,1.518,1.5824,1.6464,1.7176,1.7842,1.8452,1.8777,1.9396,1.9715,1.9639,1.9911,2.0313,2.0764,2.1221,2.16,2.1901,2.2235,2.2323,2.2454,2.2309,2.2266,2.2331,2.2061,2.1684,2.1705,2.1694,2.1597,2.1519,2.1299,2.1399,-1.3674,-1.2879,-1.1663,-1.085,-1.0338,-0.964,-0.9122,-0.8692,-0.8049,-0.7492,-0.7044,-0.6564,-0.599,-0.5541,-0.6292,-0.637,-0.5752,-0.5254,-0.477,-0.4262,-0.3738,-0.3516,-0.3585,-0.3026,-0.2183,-0.1285,-0.0896,-0.0056,0.1174,0.2296,0.2856,0.2907,0.3519,0.4018,0.446,0.5007,0.5504,0.5946,0.6436,0.6864,0.7235,0.7509,0.7568,0.7574,0.7735,0.8184,0.8775,0.9405,0.9872,1.0282,1.0767,1.1059,1.1059,1.1059,1.0996,1.0807,1.0688,1.0371,1.0079,1.0223,1.0294,1.0297,1.0467,1.0743,1.0965,1.0875,1.0812,1.0738,1.0513,0.9981,0.9448,0.9221,0.9226,0.9301,0.9609,0.9765,0.9841,1.0507,1.1111,1.1632,1.2224,1.3025,1.4042,1.4697,1.5401,1.6097,1.6742,1.7373,1.8046,1.8664,1.9131,1.9594,2.0053,2.0431,2.0237,2.0495,2.1019,2.1463,2.1851,2.2187,2.2519,2.2774,2.2714,2.266,2.2585,2.2433,2.2304,2.2009,2.1575,2.1488,2.1442,2.1341,2.1484,2.1434,2.1518,-1.2132,-1.1329,-1.0401,-0.9709,-0.9111,-0.8328,-0.7691,-0.7152,-0.6599,-0.5986,-0.5493,-0.5072,-0.4556,-0.4057,-0.4349,-0.4475,-0.4316,-0.3975,-0.3671,-0.3357,-0.2683,-0.2179,-0.1843,-0.1343,-0.0784,-0.0168,0.0336,0.1285,0.2516,0.3074,0.3408,0.3685,0.4181,0.4736,0.5234,0.5727,0.6218,0.6603,0.7085,0.7509,0.7889,0.815,0.8362,0.8573,0.8474,0.8784,0.9473,0.9931,1.0282,1.0636,1.1138,1.1435,1.1435,1.1435,1.138,1.131,1.1247,1.1059,1.0758,1.0776,1.077,1.0721,1.1005,1.1288,1.148,1.1672,1.1781,1.1706,1.1706,1.1477,1.1174,1.0582,1.0207,1.0432,1.0588,1.0887,1.1335,1.1706,1.215,1.2799,1.368,1.4545,1.5251,1.5895,1.6515,1.7148,1.7638,1.8182,1.8844,1.9375,1.9846,2.0237,2.0816,2.1325,2.1416,2.1325,2.1588,2.2037,2.2445,2.2503,2.2727,2.274,2.2706,2.2489,2.2531,2.2378,2.2101,2.1947,2.1547,2.1551,2.1506,2.1554,2.1616,2.1712,2.1793,-1.0361,-0.9599,-0.8941,-0.8316,-0.7613,-0.6906,-0.6228,-0.5651,-0.5321,-0.484,-0.4222,-0.3632,-0.3058,-0.2646,-0.2482,-0.24,-0.2397,-0.2456,-0.2406,-0.2184,-0.151,-0.0894,-0.0335,0.0168,0.0672,0.1232,0.1676,0.2512,0.3516,0.379,0.407,0.4515,0.5066,0.5555,0.605,0.6539,0.6918,0.7354,0.783,0.8209,0.8527,0.8784,0.9099,0.9368,0.9316,0.9436,0.9894,1.0231,1.0587,1.096,1.1473,1.1759,1.1856,1.1872,1.1872,1.1872,1.1864,1.1802,1.156,1.1435,1.1383,1.1355,1.1593,1.1895,1.2191,1.2494,1.2652,1.2673,1.2739,1.2813,1.2659,1.2063,1.1694,1.17,1.1774,1.207,1.2592,1.2879,1.3455,1.4178,1.5108,1.5895,1.6385,1.6941,1.756,1.8104,1.8586,1.9044,1.9639,2.0161,2.0613,2.0955,2.1514,2.2013,2.2298,2.2372,2.2433,2.2811,2.2658,2.2715,2.2725,2.2729,2.2604,2.2418,2.2231,2.2065,2.193,2.1849,2.1794,2.1821,2.1902,2.1996,2.2044,2.2077,2.217,-0.8504,-0.7871,-0.7245,-0.6625,-0.6034,-0.5453,-0.4833,-0.4394,-0.416,-0.3712,-0.3128,-0.2281,-0.1519,-0.1011,-0.0784,-0.0391,-0.0167,-0.0614,-0.0837,-0.067,-0.0223,0.0391,0.1005,0.1341,0.2014,0.2912,0.3239,0.3677,0.4288,0.4728,0.512,0.5614,0.5991,0.6421,0.6907,0.7278,0.7717,0.8156,0.8626,0.8942,0.9211,0.9465,0.9777,0.9999,1.0095,1.011,0.9933,1.0356,1.0808,1.1293,1.181,1.2186,1.2488,1.2482,1.2482,1.2544,1.2482,1.2428,1.2297,1.2189,1.2125,1.2149,1.238,1.2711,1.2983,1.3344,1.3564,1.3557,1.3688,1.3825,1.3825,1.3825,1.3542,1.282,1.3091,1.339,1.368,1.4178,1.4895,1.5683,1.6455,1.7001,1.7413,1.7969,1.8519,1.911,1.9573,1.9977,2.0495,2.1008,2.1451,2.1702,2.2199,2.2689,2.3065,2.3365,2.3458,2.3513,2.3103,2.2871,2.2818,2.2775,2.2485,2.2302,2.2378,2.2213,2.2138,2.2052,2.2099,2.2137,2.2278,2.237,2.2356,2.2402,2.254,-0.6933,-0.6276,-0.5611,-0.5321,-0.514,-0.4383,-0.3572,-0.2791,-0.2187,-0.1705,-0.1193,-0.0674,-0.0168,0.0391,0.0783,0.1174,0.1454,0.1788,0.1563,0.0838,0.1118,0.1843,0.2571,0.2629,0.3074,0.3965,0.4398,0.4831,0.5273,0.571,0.6145,0.6529,0.6966,0.7391,0.7759,0.819,0.862,0.8988,0.9354,0.9666,0.9991,1.0249,1.0454,1.071,1.0769,1.0863,1.0981,1.1068,1.1364,1.176,1.2291,1.2772,1.3132,1.3208,1.3208,1.3208,1.3208,1.3147,1.3033,1.2972,1.2883,1.2899,1.3235,1.3592,1.3799,1.4307,1.4617,1.4633,1.4768,1.4768,1.4768,1.4919,1.4768,1.4034,1.4178,1.4537,1.5037,1.5745,1.6367,1.6853,1.7491,1.8046,1.8509,1.9054,1.9507,1.9966,2.042,2.088,2.1336,2.1765,2.2137,2.2322,2.2884,2.3305,2.359,2.3722,2.3704,2.3629,2.3286,2.2892,2.2844,2.2704,2.2446,2.2344,2.2394,2.2432,2.2348,2.2356,2.2417,2.2463,2.2555,2.2586,2.2632,2.2723,2.2814,-0.5428,-0.4965,-0.4083,-0.3613,-0.3436,-0.2729,-0.196,-0.115,-0.0507,0.0056,0.0559,0.1116,0.162,0.2012,0.2347,0.2569,0.2792,0.363,0.3514,0.2674,0.2569,0.313,0.3913,0.4073,0.4453,0.5113,0.5492,0.581,0.6185,0.673,0.7171,0.7551,0.7984,0.8408,0.8659,0.9079,0.9503,0.9769,1.0131,1.0446,1.0702,1.1015,1.1226,1.1377,1.1469,1.1619,1.1796,1.1824,1.2026,1.2483,1.3098,1.3626,1.3846,1.3863,1.3863,1.3872,1.3872,1.3812,1.3752,1.37,1.3571,1.357,1.4085,1.451,1.4654,1.5206,1.5596,1.5613,1.5692,1.5692,1.5762,1.5974,1.5974,1.5666,1.5392,1.5604,1.6385,1.7079,1.756,1.8027,1.8509,1.9044,1.9518,1.9966,2.042,2.0805,2.125,2.1628,2.2075,2.2506,2.2763,2.3053,2.3531,2.3884,2.4105,2.408,2.396,2.3717,2.3419,2.3013,2.2774,2.26,2.24,2.2479,2.2544,2.2666,2.2632,2.2723,2.2783,2.2828,2.2859,2.2963,2.3008,2.3038,2.3127,-0.3904,-0.3799,-0.2623,-0.1681,-0.1123,-0.056,0.0056,0.0615,0.1005,0.1509,0.2068,0.2792,0.3466,0.3802,0.3738,0.3843,0.4174,0.4615,0.4999,0.4827,0.4556,0.445,0.4842,0.5441,0.6032,0.6465,0.6637,0.6838,0.7132,0.7741,0.819,0.856,0.904,0.9413,0.9658,1.0064,1.0328,1.06,1.1065,1.1326,1.1427,1.1719,1.1968,1.1968,1.2215,1.2372,1.2431,1.275,1.2959,1.3214,1.4002,1.4483,1.4519,1.4529,1.4529,1.4519,1.4588,1.4529,1.4469,1.4419,1.4309,1.4303,1.489,1.531,1.54,1.599,1.6446,1.6455,1.6594,1.6742,1.6742,1.7019,1.7235,1.7373,1.6881,1.6941,1.7638,1.8124,1.8586,1.9065,1.9584,2.0031,2.0431,2.0869,2.1262,2.1702,2.2137,2.2506,2.2763,2.3125,2.3556,2.3852,2.4176,2.4452,2.4711,2.4245,2.4127,2.3941,2.3525,2.3055,2.2777,2.2653,2.2573,2.2689,2.2754,2.2904,2.2994,2.3053,2.3142,2.3187,2.3231,2.3334,2.3363,2.3392,2.3436,-0.184,-0.1339,-0.0613,0.0056,0.0614,0.1171,0.1953,0.2794,0.3297,0.335,0.3461,0.3843,0.4398,0.4783,0.4941,0.5214,0.5601,0.5928,0.6249,0.6568,0.6725,0.6455,0.6357,0.6794,0.7272,0.7646,0.7925,0.8243,0.86,0.902,0.9392,0.9592,1.0123,1.0446,1.0643,1.0998,1.1309,1.1619,1.1769,1.2076,1.2323,1.2491,1.2628,1.2725,1.288,1.3035,1.3212,1.3942,1.418,1.3936,1.4668,1.5177,1.5177,1.5177,1.5177,1.5177,1.5177,1.5177,1.5177,1.5118,1.5069,1.5136,1.5842,1.631,1.6348,1.7102,1.7512,1.7579,1.7725,1.7852,1.7852,1.8046,1.8307,1.8529,1.824,1.8172,1.8664,1.9121,1.9584,2.0042,2.0495,2.0869,2.1262,2.1753,2.2125,2.2396,2.2884,2.3305,2.3424,2.3826,2.4234,2.4452,2.4724,2.5007,2.5053,2.4574,2.4258,2.4127,2.3658,2.2969,2.2873,2.285,2.2917,2.2994,2.3127,2.3216,2.326,2.3319,2.3422,2.3509,2.3538,2.3625,2.3668,2.3711,2.3797,-0.0056,0.0558,0.1114,0.184,0.2569,0.2839,0.345,0.4125,0.4629,0.4849,0.4838,0.5105,0.5483,0.5973,0.619,0.6519,0.6902,0.7235,0.7551,0.796,0.8435,0.8277,0.7966,0.8078,0.8448,0.8862,0.9131,0.951,0.9932,1.0328,1.0643,1.0981,1.1267,1.146,1.1584,1.19,1.2147,1.2452,1.2598,1.2852,1.3055,1.3218,1.3341,1.3447,1.3552,1.3757,1.4157,1.4898,1.5081,1.479,1.5249,1.5758,1.5768,1.5758,1.5758,1.5768,1.5768,1.5768,1.5768,1.5758,1.5768,1.5918,1.6577,1.7049,1.7289,1.7941,1.8472,1.8519,1.8654,1.8721,1.8865,1.9044,1.9375,1.9715,1.9694,1.9628,1.9649,2.0042,2.0484,2.0933,2.1313,2.1753,2.2025,2.2567,2.2884,2.3138,2.3603,2.3839,2.4015,2.4509,2.4894,2.5007,2.5342,2.5687,2.5737,2.5322,2.4826,2.4615,2.4141,2.3376,2.3185,2.3215,2.3216,2.3304,2.3436,2.3538,2.3581,2.3625,2.3668,2.3754,2.3839,2.3882,2.3925,2.4009,2.4067,0.1726,0.2171,0.2724,0.3619,0.4522,0.4501,0.4765,0.5156,0.5546,0.5932,0.6312,0.6578,0.6891,0.732,0.7593,0.7865,0.8131,0.8455,0.8869,0.9332,0.9799,0.985,0.9577,0.9384,0.9703,1.0108,1.0312,1.0685,1.1099,1.1434,1.1868,1.2162,1.2391,1.2501,1.2618,1.2861,1.3006,1.3218,1.3505,1.3658,1.38,1.3978,1.4118,1.4176,1.4457,1.4715,1.5218,1.5736,1.5861,1.5342,1.6008,1.6348,1.641,1.641,1.64,1.64,1.641,1.641,1.64,1.64,1.641,1.6545,1.723,1.7801,1.7989,1.8645,1.932,1.9365,1.9431,1.9649,1.9857,2.0107,2.0484,2.088,2.106,2.106,2.0869,2.0996,2.1376,2.1776,2.2187,2.2567,2.2823,2.3258,2.3662,2.3708,2.4176,2.4509,2.4738,2.5119,2.5398,2.5508,2.5906,2.6351,2.6265,2.6141,2.5623,2.5198,2.4726,2.4149,2.3822,2.3762,2.3641,2.3653,2.3696,2.3797,2.3882,2.3925,2.4009,2.4067,2.4135,2.4109,2.4109,2.4177,2.4219,0.4116,0.4103,0.4542,0.5097,0.571,0.6086,0.6401,0.6676,0.7111,0.7385,0.7652,0.8078,0.8396,0.8652,0.8967,0.9287,0.954,0.985,1.0305,1.0864,1.1091,1.1484,1.1408,1.1007,1.0872,1.1233,1.1616,1.1873,1.2178,1.2579,1.288,1.2997,1.3344,1.3563,1.3637,1.3768,1.4025,1.4176,1.4269,1.4398,1.4536,1.472,1.488,1.4971,1.5464,1.5869,1.6195,1.6877,1.7277,1.719,1.7092,1.7123,1.7078,1.7022,1.7022,1.7032,1.7032,1.7099,1.7022,1.7022,1.7032,1.7151,1.7932,1.8505,1.857,1.9487,2.0041,2.0237,2.0366,2.0624,2.0944,2.1198,2.1502,2.1815,2.2063,2.231,2.2408,2.2298,2.2261,2.2445,2.2944,2.3378,2.3437,2.3943,2.4221,2.4337,2.4667,2.5119,2.5453,2.5742,2.596,2.6082,2.6457,2.6826,2.6821,2.6686,2.6307,2.5914,2.5485,2.5105,2.4758,2.444,2.442,2.4207,2.3994,2.4094,2.4177,2.4276,2.4317,2.4359,2.4441,2.4441,2.4426,2.4426,2.4606,0.5814,0.5955,0.6288,0.6666,0.7106,0.754,0.7913,0.8165,0.8547,0.8869,0.9065,0.9436,0.9747,1.0041,1.0254,1.0509,1.0864,1.1208,1.1607,1.207,1.2286,1.2618,1.3054,1.2745,1.2511,1.2482,1.2754,1.2996,1.3246,1.3589,1.3826,1.392,1.4212,1.4398,1.4571,1.4674,1.4812,1.4994,1.5085,1.5164,1.5355,1.5501,1.5802,1.5968,1.6428,1.6809,1.7424,1.7845,1.8289,1.8398,1.8342,1.8061,1.7733,1.7634,1.7634,1.7645,1.7645,1.7645,1.7634,1.7645,1.779,1.8126,1.887,1.9358,1.9742,2.0523,2.0928,2.1123,2.125,2.1514,2.1889,2.2149,2.2396,2.2689,2.2944,2.3173,2.3399,2.322,2.2992,2.3233,2.3649,2.3943,2.4176,2.4553,2.4838,2.4951,2.5398,2.5837,2.596,2.6244,2.6525,2.675,2.7063,2.724,2.7274,2.7145,2.6862,2.661,2.6321,2.6087,2.587,2.5515,2.5219,2.4914,2.4579,2.4359,2.4426,2.4523,2.4714,2.4651,2.4692,2.4726,2.4798,2.4876,2.5152,0.7261,0.7688,0.796,0.8277,0.8639,0.902,0.9325,0.9688,0.9858,1.021,1.0559,1.0661,1.1007,1.1358,1.1507,1.1756,1.215,1.2453,1.2851,1.3236,1.3341,1.3721,1.4097,1.4143,1.4097,1.3721,1.3862,1.4061,1.4247,1.4536,1.4755,1.4892,1.504,1.5254,1.5445,1.5534,1.5623,1.5812,1.5888,1.5976,1.612,1.6231,1.6541,1.704,1.7513,1.7947,1.8571,1.8909,1.912,1.9515,1.9565,1.9239,1.8762,1.8398,1.829,1.8302,1.8356,1.8344,1.8344,1.8379,1.8608,1.93,1.9806,2.037,2.0937,2.1448,2.1818,2.2013,2.2137,2.2322,2.275,2.2944,2.3198,2.3497,2.3675,2.3956,2.4176,2.4002,2.4002,2.4002,2.4337,2.461,2.4838,2.5119,2.5342,2.5618,2.6122,2.6457,2.6563,2.6721,2.7063,2.7321,2.7524,2.7775,2.7834,2.7939,2.7626,2.7489,2.7285,2.7157,2.7011,2.6804,2.6369,2.5581,2.5181,2.5098,2.5211,2.5529,2.5564,2.5177,2.5312,2.5765,2.5654,2.5393,2.5767,0.896,0.9235,0.9644,0.9902,1.0151,1.061,1.0805,1.0956,1.1258,1.1516,1.1765,1.1963,1.2209,1.2511,1.2812,1.315,1.3521,1.3721,1.3956,1.4318,1.4457,1.4687,1.5107,1.5254,1.5389,1.5466,1.5242,1.5073,1.5197,1.5433,1.5656,1.58,1.5964,1.6139,1.6281,1.6411,1.6509,1.6607,1.6693,1.6748,1.6897,1.7072,1.7415,1.8085,1.8747,1.9292,1.9616,2.0008,2.0306,2.0396,2.0308,2.0169,1.9901,1.95,1.9251,1.9158,1.9158,1.9093,1.9146,1.9194,1.949,2.0007,2.0592,2.1116,2.1758,2.2309,2.2652,2.2823,2.3005,2.3245,2.3564,2.3754,2.3989,2.4234,2.4478,2.4765,2.5021,2.5063,2.4908,2.4865,2.5077,2.5287,2.5453,2.5728,2.6014,2.6283,2.6616,2.6945,2.71,2.7306,2.756,2.776,2.7974,2.822,2.8398,2.8543,2.8514,2.8513,2.8355,2.8271,2.8155,2.8084,2.7597,2.6983,2.6604,2.6509,2.664,2.6649,2.6627,2.6461,2.6693,2.6901,2.6727,2.6543,2.6807,1.0509,1.0872,1.1065,1.1316,1.1566,1.1855,1.211,1.2267,1.2599,1.2841,1.3044,1.3246,1.3484,1.3768,1.3899,1.4283,1.4617,1.4698,1.5017,1.532,1.5443,1.5632,1.6051,1.6194,1.6398,1.6527,1.6398,1.6182,1.6095,1.6312,1.6497,1.6625,1.674,1.6909,1.7005,1.706,1.7227,1.7323,1.7419,1.7606,1.8024,1.8323,1.8919,1.9512,2.003,2.0469,2.0846,2.0938,2.1091,2.1104,2.1019,2.0921,2.0822,2.0623,2.0233,1.9939,1.9849,1.9836,1.9911,2.0049,2.058,2.1218,2.1736,2.235,2.2878,2.3331,2.3543,2.3662,2.391,2.4203,2.4292,2.4523,2.4738,2.4964,2.5147,2.5425,2.5742,2.5837,2.5797,2.5701,2.5851,2.5946,2.596,2.6297,2.663,2.6959,2.7167,2.7372,2.7575,2.776,2.8008,2.8253,2.8462,2.8653,2.8842,2.9013,2.9136,2.9198,2.9212,2.9141,2.9134,2.8938,2.8962,2.8705,2.8399,2.7811,2.7474,2.7265,2.7517,2.7745,2.768,2.7648,2.7672,2.7762,2.7996,1.2003,1.2307,1.2404,1.2648,1.2938,1.314,1.3294,1.3542,1.3768,1.405,1.4247,1.4398,1.4617,1.488,1.5062,1.5254,1.5656,1.5644,1.5908,1.6256,1.6373,1.66,1.6837,1.7047,1.7214,1.7462,1.7544,1.7421,1.7034,1.7076,1.7256,1.7393,1.7449,1.7571,1.7666,1.776,1.7828,1.7975,1.8206,1.8644,1.9405,2.0061,2.0592,2.108,2.1147,2.1435,2.1749,2.1799,2.1779,2.1732,2.165,2.1602,2.1616,2.1568,2.1318,2.0854,2.0692,2.0654,2.081,2.1251,2.1863,2.2533,2.2965,2.3559,2.4037,2.4253,2.4421,2.458,2.4751,2.4948,2.5048,2.5286,2.5425,2.5577,2.5811,2.6042,2.6351,2.651,2.6602,2.6602,2.6602,2.6616,2.6616,2.6826,2.7203,2.7408,2.7625,2.7825,2.8024,2.8155,2.835,2.8653,2.8889,2.9075,2.9259,2.9335,2.947,2.956,2.9649,2.9641,2.9701,2.9713,2.9708,2.9605,2.9333,2.8737,2.8322,2.8167,2.8549,2.8746,2.8478,2.8461,2.8739,2.882,2.8934,1.3379,1.3437,1.3779,1.4003,1.4111,1.4365,1.4571,1.472,1.4858,1.504,1.5242,1.5242,1.5522,1.58,1.6039,1.6269,1.6484,1.66,1.6782,1.7089,1.7256,1.7407,1.7666,1.7828,1.7974,1.8226,1.8344,1.8121,1.7854,1.7854,1.7922,1.8055,1.8147,1.8226,1.8344,1.8397,1.8553,1.8768,1.9276,1.9955,2.0569,2.1155,2.1498,2.1741,2.2024,2.2324,2.2438,2.242,2.2374,2.2374,2.231,2.2278,2.2278,2.217,2.2412,2.2464,2.241,2.2136,2.2231,2.2625,2.3124,2.3649,2.396,2.4297,2.4732,2.5048,2.5216,2.5508,2.5605,2.5605,2.577,2.6042,2.6136,2.6229,2.6404,2.6683,2.6997,2.7086,2.7188,2.7357,2.7393,2.7306,2.7255,2.7524,2.779,2.7925,2.8073,2.8268,2.8462,2.8605,2.8764,2.9106,2.9243,2.9425,2.9576,2.9694,2.9738,2.9886,2.993,3.0017,3.0103,3.0103,3.0146,3.0009,2.9798,2.9757,2.9551,2.9559,2.9796,2.9739,2.951,2.9683,2.9976,2.9985,2.9839,1.5196,1.4755,1.4915,1.505,1.5186,1.541,1.5543,1.5644,1.5876,1.6064,1.6225,1.6256,1.6471,1.6727,1.698,1.716,1.7338,1.7407,1.7652,1.7882,1.8042,1.8201,1.8397,1.8553,1.8745,1.8846,1.8997,1.9058,1.8831,1.8602,1.8553,1.8721,1.8769,1.8884,1.8988,1.9011,1.9371,1.9967,2.0808,2.1554,2.1951,2.2364,2.2717,2.2731,2.301,2.3069,2.3098,2.3054,2.2995,2.3009,2.2934,2.3107,2.3354,2.3499,2.3685,2.4293,2.4517,2.417,2.3571,2.4007,2.4343,2.4648,2.4966,2.5396,2.5659,2.5865,2.5974,2.6136,2.6258,2.6312,2.6418,2.663,2.6736,2.6893,2.7049,2.7255,2.7473,2.761,2.771,2.7925,2.8088,2.8024,2.791,2.8073,2.822,2.8317,2.851,2.8685,2.8889,2.9045,2.9243,2.9483,2.9633,2.9738,2.9886,3.0017,3.0017,3.0103,3.0103,3.0189,3.0316,3.0359,3.0401,3.0543,3.0484,3.0501,3.0584,3.0518,3.0419,3.0485,3.0593,3.0543,3.0501,3.0551,3.0468,1.6896,1.6262,1.6058,1.6071,1.6157,1.633,1.6459,1.6544,1.6824,1.6993,1.7118,1.7242,1.7435,1.7598,1.7814,1.7948,1.8028,1.8187,1.8422,1.8577,1.8731,1.8846,1.8997,1.9199,1.931,1.9347,1.9551,1.9696,1.966,1.953,1.9369,1.9325,1.9384,1.9457,1.9574,1.9849,2.0311,2.1368,2.2244,2.2772,2.3103,2.348,2.3676,2.3752,2.3767,2.3782,2.3767,2.3681,2.3638,2.3908,2.388,2.4134,2.4672,2.4729,2.5027,2.5577,2.5942,2.5894,2.5437,2.5443,2.5517,2.5702,2.594,2.6347,2.6549,2.6683,2.6788,2.6774,2.6826,2.6893,2.6997,2.7203,2.7372,2.7473,2.7625,2.7825,2.7989,2.8073,2.8204,2.835,2.8542,2.8685,2.8637,2.8605,2.8716,2.8811,2.8936,2.9059,2.9259,2.9457,2.9621,2.9853,2.9913,3.0017,3.0146,3.0248,3.029,3.0316,3.0316,3.0401,3.0526,3.0609,3.0667,3.079,3.0912,3.0871,3.0773,3.0871,3.0912,3.0831,3.079,3.0831,3.0871,3.0912,3.0912,1.8135,1.8054,1.738,1.7131,1.7188,1.7216,1.7366,1.753,1.7585,1.7747,1.7948,1.8108,1.8266,1.8422,1.85,1.863,1.8731,1.895,1.9064,1.9161,1.931,1.9479,1.9588,1.9732,1.9839,1.9995,2.012,2.0224,2.0342,2.0342,2.0135,1.999,1.994,2.001,2.0335,2.0874,2.1675,2.2593,2.3262,2.3646,2.3953,2.4214,2.4245,2.4261,2.4245,2.4261,2.4261,2.428,2.451,2.5013,2.5065,2.5389,2.5909,2.5986,2.6306,2.6822,2.7035,2.7167,2.7184,2.6905,2.6858,2.6946,2.7041,2.7152,2.7284,2.7335,2.7386,2.7473,2.7509,2.7509,2.761,2.7775,2.7875,2.8008,2.8107,2.8317,2.8414,2.851,2.8653,2.8826,2.8967,2.9059,2.9198,2.9152,2.9121,2.9183,2.9305,2.9425,2.9649,2.9798,2.9973,3.0103,3.0146,3.0231,3.0375,3.0459,3.0501,3.0568,3.0609,3.0692,3.0814,3.0871,3.0831,3.0912,3.0992,3.0992,3.0975,3.0992,3.0992,3.0912,3.0912,3.1009,3.0992,3.0992,3.0952,1.895,1.895,1.8669,1.8344,1.8054,1.8094,1.8147,1.8266,1.8344,1.85,1.8707,1.8898,1.9026,1.9101,1.9236,1.931,1.9384,1.9545,1.9639,1.9732,1.9874,2.0015,2.0135,2.0273,2.0376,2.0494,2.0579,2.0712,2.0827,2.0893,2.0909,2.0761,2.0624,2.0821,2.126,2.2108,2.3067,2.3552,2.4085,2.4507,2.4585,2.4726,2.4726,2.4726,2.471,2.471,2.4789,2.5164,2.5446,2.579,2.6139,2.6686,2.7217,2.7266,2.7595,2.8124,2.8155,2.8342,2.8403,2.8012,2.768,2.776,2.776,2.7825,2.8005,2.8005,2.8054,2.8088,2.8073,2.8073,2.8137,2.8235,2.8365,2.8446,2.859,2.8748,2.8889,2.8936,2.9029,2.9152,2.9335,2.9486,2.9576,2.9694,2.9621,2.9547,2.9665,2.9798,2.9973,3.013,3.0274,3.0359,3.0401,3.0485,3.0626,3.0708,3.0749,3.0831,3.0855,3.0912,3.0992,3.0975,3.0975,3.1032,3.1112,3.1112,3.1095,3.1112,3.1072,3.1072,3.1089,3.1128,3.1072,3.1072,3.1099,1.9468,1.969,1.9705,1.9339,1.8822,1.8822,1.886,1.8921,1.9011,1.9213,1.9362,1.9545,1.9632,1.969,1.9833,1.9925,1.9975,2.0131,2.022,2.0308,2.0395,2.0496,2.0646,2.0761,2.0843,2.0941,2.1055,2.1183,2.1277,2.1356,2.1566,2.1616,2.1521,2.1744,2.2136,2.3351,2.4143,2.4531,2.485,2.5162,2.5146,2.5162,2.5162,2.5281,2.5408,2.5584,2.5775,2.619,2.6675,2.6993,2.7392,2.7917,2.8347,2.8666,2.8889,2.9114,2.9289,2.9305,2.9136,2.8764,2.8334,2.8462,2.8462,2.8525,2.8589,2.8589,2.8573,2.8573,2.8573,2.8636,2.8652,2.8748,2.8842,2.8873,2.8967,2.9121,2.9259,2.9305,2.9441,2.9531,2.9681,2.983,2.9962,3.0065,3.0131,3.0054,3.006,3.0146,3.0231,3.0401,3.0526,3.0568,3.0593,3.0733,3.0855,3.0871,3.0912,3.0912,3.0975,3.1032,3.1072,3.1089,3.1112,3.1157,3.1213,3.1252,3.1286,3.132,3.1263,3.119,3.1207,3.1207,3.1151,3.1168,3.1388,1.9682,2.0361,2.0354,1.9985,1.9435,1.9391,1.9508,1.9639,1.9675,1.9812,1.9955,2.0045,2.0135,2.0224,2.0326,2.041,2.0494,2.061,2.0711,2.0778,2.0861,2.1023,2.1087,2.1199,2.1262,2.1402,2.1511,2.1603,2.1777,2.1936,2.2247,2.2775,2.2879,2.285,2.2621,2.3802,2.4822,2.5475,2.5572,2.5589,2.5567,2.5584,2.56,2.5913,2.6221,2.6448,2.6805,2.7356,2.7908,2.8304,2.8579,2.9049,2.9518,2.9615,2.9713,2.9733,2.981,2.9793,2.975,2.9319,2.9121,2.9045,2.9045,2.9045,2.9091,2.9091,2.9091,2.9045,2.9091,2.9122,2.9153,2.9277,2.937,2.9653,2.9809,2.9948,3.0103,3.018,3.0412,3.0522,3.0254,3.0125,3.0314,3.0432,3.0573,3.054,3.0492,3.0485,3.0576,3.0626,3.0749,3.0814,3.0855,3.0935,3.1032,3.1015,3.1055,3.1072,3.1112,3.119,3.1275,3.1433,3.1404,3.138,3.1703,3.2117,3.1866,3.1581,3.181,3.2004,3.1404,3.1247,3.123,3.1365,3.171,2.0146,2.078,2.0811,2.0663,2.0447,2.0239,2.0185,2.0254,2.0323,2.0407,2.0475,2.0579,2.063,2.0697,2.0844,2.0925,2.0958,2.1119,2.1198,2.1198,2.1324,2.1464,2.1542,2.1556,2.1601,2.1691,2.1814,2.2249,2.2725,2.2781,2.3278,2.3832,2.4353,2.4512,2.4513,2.517,2.5829,2.5977,2.601,2.601,2.5974,2.6023,2.6237,2.6685,2.7015,2.741,2.7838,2.8547,2.905,2.9379,2.9593,3.002,3.0225,3.0258,3.0241,3.0258,3.0258,3.0258,3.0215,2.9957,2.9798,2.9685,2.9582,2.9553,2.9398,2.9382,2.9428,2.9537,2.9694,2.9884,3.0183,3.0312,3.0564,3.1189,3.1426,3.1489,3.1613,3.1613,3.1736,3.1798,3.1675,3.1748,3.1855,3.1691,3.17,3.155,3.1533,3.1124,3.1082,3.0931,3.0945,3.1032,3.1112,3.119,3.128,3.1585,3.1676,3.1659,3.1511,3.1385,3.1521,3.1913,3.2088,3.2269,3.2622,3.2963,3.2826,3.2745,3.2935,3.2889,3.2332,3.1776,3.1703,3.1947,3.2275,2.0321,2.0935,2.1224,2.1306,2.1229,2.0861,2.0679,2.0728,2.0843,2.0941,2.0958,2.1039,2.1135,2.1198,2.1309,2.1388,2.1402,2.1509,2.1584,2.1615,2.1735,2.1857,2.1886,2.1961,2.1991,2.2082,2.2408,2.2849,2.3354,2.3748,2.4305,2.505,2.5766,2.5892,2.5966,2.6202,2.6315,2.6365,2.6349,2.6365,2.6449,2.6649,2.7,2.752,2.8022,2.8557,2.9075,2.9571,3.0089,3.0222,3.0416,3.0733,3.0733,3.0733,3.0733,3.0733,3.0941,3.0983,3.0999,3.1364,3.1248,3.1029,3.0542,3.0376,3.0432,3.0674,3.0687,3.0716,3.0554,3.0904,3.129,3.145,3.1723,3.2338,3.2433,3.2462,3.2475,3.2488,3.2595,3.2706,3.2829,3.3078,3.3295,3.3195,3.3001,3.2807,3.2611,3.2215,3.1837,3.1719,3.1725,3.1862,3.2026,3.227,3.2412,3.2497,3.2502,3.2354,3.2239,3.2158,3.2466,3.2906,3.3014,3.3144,3.3459,3.3722,3.3876,3.3945,3.3945,3.3739,3.3313,3.284,3.2376,3.2615,3.3009,2.0212,2.0866,2.1613,2.189,2.1735,2.1323,2.115,2.123,2.1294,2.134,2.1401,2.1417,2.1509,2.1678,2.1724,2.1754,2.1797,2.1886,2.1957,2.1998,2.2084,2.2175,2.2299,2.2412,2.2587,2.2796,2.3164,2.3779,2.399,2.4844,2.5562,2.6074,2.6695,2.6888,2.6899,2.6853,2.6791,2.6758,2.6928,2.6962,2.708,2.7606,2.7961,2.8469,2.913,2.9793,3.0264,3.0705,3.1009,3.1145,3.1173,3.123,3.123,3.119,3.119,3.141,3.1796,3.19,3.2161,3.2555,3.2847,3.253,3.1996,3.2011,3.1941,3.1913,3.1876,3.1909,3.1937,3.2183,3.2475,3.2508,3.2557,3.283,3.2941,3.297,3.3027,3.3117,3.3267,3.3406,3.3483,3.3691,3.3931,3.3973,3.4193,3.4243,3.4114,3.4086,3.3669,3.3128,3.3134,3.3214,3.3374,3.3579,3.3596,3.3453,3.339,3.3223,3.339,3.339,3.3699,3.3859,3.4042,3.4172,3.4285,3.4476,3.4852,3.4857,3.4692,3.4484,3.4458,3.3952,3.352,3.3682,3.4077,2.0492,2.1221,2.2004,2.2343,2.226,2.213,2.1915,2.1648,2.1708,2.1735,2.1781,2.1866,2.194,2.1998,2.2077,2.2152,2.218,2.2237,2.2304,2.2343,2.2381,2.248,2.2767,2.3103,2.3337,2.3725,2.4247,2.4896,2.5576,2.6281,2.6735,2.7217,2.7339,2.7474,2.7474,2.7461,2.731,2.7321,2.7616,2.7789,2.8081,2.863,2.9008,2.9572,3.0105,3.0739,3.1219,3.1408,3.1596,3.1614,3.1614,3.1596,3.1466,3.15,3.1585,3.2173,3.244,3.2638,3.3049,3.3354,3.3643,3.3997,3.3698,3.3117,3.2907,3.28,3.2878,3.3039,3.3106,3.3238,3.3499,3.3599,3.3748,3.3943,3.4056,3.4101,3.4175,3.422,3.4353,3.4442,3.4547,3.4703,3.4908,3.5112,3.5351,3.5503,3.557,3.5549,3.5301,3.4726,3.4427,3.445,3.4456,3.4576,3.438,3.4198,3.4181,3.4164,3.4402,3.454,3.4567,3.4727,3.497,3.5183,3.5405,3.5697,3.6052,3.5941,3.5692,3.5958,3.5931,3.5248,3.4775,3.4886,3.4944,2.0401,2.1135,2.1893,2.2375,2.2624,2.2659,2.2497,2.2243,2.2175,2.213,2.2186,2.2271,2.2326,2.2354,2.2415,2.246,2.2443,2.2525,2.2579,2.2605,2.272,2.3023,2.3397,2.3805,2.4162,2.4642,2.5244,2.5911,2.6592,2.7227,2.7719,2.7713,2.7766,2.7795,2.7865,2.8064,2.818,2.8198,2.8349,2.8731,2.9204,2.9726,3.0196,3.0525,3.0959,3.1496,3.1842,3.1929,3.1929,3.1946,3.1929,3.1893,3.1906,3.2061,3.23,3.2896,3.3562,3.3865,3.4247,3.4624,3.4848,3.5062,3.5155,3.4882,3.4418,3.4253,3.4192,3.4181,3.413,3.4164,3.4477,3.4774,3.5043,3.5295,3.5374,3.5453,3.5453,3.5481,3.5554,3.5671,3.5786,3.5942,3.6122,3.6293,3.6402,3.6295,3.6348,3.6354,3.6232,3.5873,3.5584,3.555,3.5469,3.5456,3.5262,3.52,3.53,3.544,3.5671,3.5723,3.5535,3.5661,3.6032,3.6295,3.6545,3.6738,3.6773,3.686,3.6759,3.6943,3.6943,3.64,3.5941,3.5866,3.5931,2.0061,2.0845,2.1593,2.2408,2.2875,2.2944,2.2927,2.2919,2.2685,2.2579,2.2623,2.2632,2.2685,2.2694,2.2738,2.2738,2.2738,2.279,2.2998,2.2929,2.3163,2.3571,2.4165,2.4454,2.5094,2.5692,2.6264,2.6792,2.7,2.7533,2.7968,2.7996,2.8202,2.8273,2.8408,2.8994,2.9319,2.9609,2.9589,2.9757,3.0261,3.0775,3.1234,3.1323,3.1708,3.2126,3.2126,3.2144,3.2144,3.2144,3.2144,3.2144,3.2527,3.2717,3.3045,3.372,3.4549,3.503,3.5388,3.5745,3.6039,3.6205,3.6326,3.6094,3.5719,3.5351,3.5213,3.5169,3.5162,3.5162,3.5365,3.5477,3.562,3.5766,3.5783,3.5844,3.5844,3.5888,3.6036,3.6105,3.6233,3.636,3.6444,3.6585,3.669,3.6771,3.6851,3.6987,3.6917,3.6659,3.6566,3.6457,3.6374,3.6274,3.6383,3.6352,3.6619,3.6777,3.6781,3.6767,3.6488,3.672,3.7132,3.7132,3.7079,3.717,3.7261,3.7259,3.7259,3.7259,3.7259,3.7314,3.7129,3.6829,3.6698,2.0334,2.1128,2.2513,2.3177,2.3271,2.3336,2.333,2.3289,2.3283,2.3112,2.292,2.2962,2.2995,2.2995,2.2995,2.302,2.302,2.3185,2.3455,2.3804,2.397,2.4496,2.5296,2.572,2.618,2.6639,2.7161,2.7561,2.7634,2.7931,2.8191,2.8272,2.8657,2.9032,2.9231,2.9948,3.0539,3.0915,3.1088,3.1021,3.1225,3.1762,3.2241,3.2223,3.2437,3.2489,3.2489,3.2489,3.2489,3.2472,3.2472,3.2772,3.3284,3.3424,3.4036,3.4964,3.5469,3.5976,3.6339,3.6596,3.6719,3.6771,3.6731,3.6708,3.655,3.6301,3.6131,3.6131,3.6131,3.6131,3.6131,3.6131,3.6131,3.6131,3.6131,3.6131,3.6174,3.6276,3.6377,3.6502,3.6568,3.665,3.6731,3.6851,3.6952,3.7087,3.7143,3.722,3.7241,3.7114,3.7114,3.7041,3.7038,3.7058,3.7182,3.7182,3.7203,3.7241,3.719,3.7246,3.7337,3.7374,3.7466,3.7466,3.7485,3.7521,3.7521,3.7521,3.7521,3.7521,3.7521,3.7539,3.7592,3.741,3.7279,2.0263,2.1429,2.2973,2.3598,2.3594,2.3598,2.3616,2.3594,2.3616,2.3526,2.3354,2.3313,2.3271,2.3289,2.3265,2.33,2.3395,2.3678,2.4045,2.446,2.5052,2.5575,2.6223,2.6783,2.7148,2.754,2.7861,2.812,2.8219,2.8282,2.8434,2.8856,2.9494,2.9909,3.0234,3.101,3.166,3.2029,3.239,3.2433,3.2224,3.2585,3.2752,3.2734,3.2737,3.2773,3.2707,3.2707,3.2657,3.2783,3.2942,3.3563,3.4147,3.4606,3.5098,3.5733,3.6244,3.665,3.7002,3.7143,3.7143,3.7105,3.7105,3.7027,3.7027,3.6753,3.6609,3.6568,3.6461,3.6419,3.6461,3.6461,3.6461,3.6461,3.6461,3.6444,3.6485,3.6568,3.669,3.6794,3.6873,3.693,3.7009,3.7066,3.7203,3.7337,3.7447,3.7484,3.7503,3.754,3.754,3.7558,3.7484,3.7484,3.7466,3.7503,3.7503,3.754,3.7558,3.7613,3.7649,3.7703,3.7739,3.7739,3.7739,3.7739,3.7739,3.7775,3.7757,3.7757,3.7757,3.7757,3.7847,3.8098,3.8221,2.0079,2.1642,2.3075,2.3764,2.3837,2.3855,2.3855,2.3855,2.3855,2.3837,2.3813,2.3678,2.3589,2.3544,2.3544,2.3616,2.383,2.43,2.4658,2.5344,2.5828,2.6534,2.7025,2.7384,2.7805,2.8101,2.8352,2.8612,2.8801,2.8915,2.9238,2.9826,3.0214,3.0521,3.1229,3.1919,3.2518,3.27,3.2962,3.3266,3.3256,3.3152,3.3042,3.2979,3.2948,3.2902,3.287,3.2838,3.2737,3.3217,3.3697,3.4443,3.5083,3.5652,3.6061,3.654,3.6966,3.7232,3.741,3.7427,3.7427,3.739,3.7372,3.7334,3.7334,3.7294,3.7101,3.718,3.7061,3.6835,3.6835,3.6835,3.6835,3.6835,3.6876,3.6858,3.6881,3.6921,3.7062,3.7161,3.722,3.7276,3.7297,3.7334,3.7447,3.7594,3.7649,3.7739,3.781,3.7757,3.7757,3.7792,3.7775,3.7757,3.7703,3.7775,3.7811,3.7775,3.7775,3.7846,3.7969,3.7985,3.8002,3.7985,3.7985,3.8057,3.8021,3.802,3.8003,3.8095,3.8328,3.8489,3.8597,3.8868,3.9373,2.026,2.1751,2.2685,2.3453,2.4058,2.4132,2.4113,2.4113,2.4113,2.4132,2.4094,2.4074,2.3976,2.3756,2.3753,2.3985,2.4599,2.5055,2.5995,2.6826,2.6971,2.7585,2.8001,2.8117,2.8363,2.8551,2.8782,2.9116,2.9468,2.9682,3.0403,3.1485,3.178,3.2052,3.2279,3.292,3.3351,3.3415,3.3387,3.3587,3.3491,3.3345,3.3196,3.3135,3.3055,3.3055,3.3042,3.3024,3.3418,3.401,3.4745,3.55,3.6075,3.654,3.6862,3.7167,3.7596,3.7667,3.7685,3.7685,3.7685,3.7667,3.7685,3.7684,3.7684,3.77,3.7785,3.8264,3.8079,3.7553,3.7482,3.7443,3.7443,3.7443,3.7443,3.7482,3.7503,3.7485,3.7544,3.7567,3.7571,3.7592,3.7577,3.7631,3.7703,3.781,3.781,3.7917,3.815,3.8077,3.8092,3.8218,3.829,3.7969,3.7917,3.8043,3.8079,3.8024,3.8148,3.8506,3.859,3.8307,3.8307,3.8676,3.8564,3.8525,3.8452,3.8712,3.8583,3.8764,3.9107,3.934,3.9467,3.9763,4.0309]},{"header":{"parameterUnit":"m.s-1","parameterCategory":1,"la1":31.0,"la2":29.5877,"lo1":-88.7671,"lo2":-86.6584,"dy":0.0162,"dx":0.0185,"nx":115,"ny":88,"refTime":"2023-10-15T00:00:00:Z","depth":0,"parameterNumber":3,"parameterNumberName":"V-component_of_WINDS"},"data":[0.0,0.0,0.0,0.0,0.0,0.0,0.0,0.0,0.0,0.0,0.0,0.0,0.0,0.0,0.0,0.0,0.0,0.0,0.0,0.0,0.0,0.0,0.0,0.0,0.0,0.0,0.0,0.0,0.0,0.0,0.0,0.0,0.0,0.0,0.0,0.0,0.0,0.0,0.0,0.0,0.0,0.0,0.0,0.0,0.0,0.0,0.0,0.0,0.0,0.0,0.0,0.0,0.0,0.0,0.0,0.0,0.0,0.0,0.0,0.0,0.0,0.0,0.0,0.0,0.0,0.0,0.0,0.0,0.0,0.0,0.0,0.0,0.0,0.0,0.0,0.0,0.0,0.0,0.0,0.0,0.0,0.0,0.0,0.0,0.0,0.0,0.0,0.0,0.0,0.0,0.0,0.0,0.0,0.0,0.0,0.0,0.0,0.0,0.0,0.0,0.0,0.0,0.0,0.0,0.0,0.0,0.0,0.0,0.0,0.0,0.0,0.0,0.0,0.0,0.0,0.0,0.0,0.0,0.0,0.0,0.0,0.0,0.0,0.0,0.0,0.0,0.0,0.0,0.0,0.0,0.0,0.0,0.0,0.0,0.0,0.0,0.0,0.0,0.0,0.0,0.0,0.0,0.0,0.0,0.0,0.0,0.0,0.0,0.0,0.0,0.0,0.0,0.0,0.0,0.0,0.0,0.0,0.0,0.0,0.0,0.0,0.0,0.0,0.0,0.0,0.0,0.0,0.0,0.0,0.0,0.0,0.0,0.0,0.0,0.0,0.0,0.0,0.0,0.0,0.0,0.0,0.0,0.0,0.0,0.0,0.0,0.0,0.0,0.0,0.0,0.0,0.0,0.0,0.0,0.0,0.0,0.0,0.0,0.0,0.0,0.0,0.0,0.0,0.0,0.0,0.0,0.0,0.0,0.0,0.0,0.0,0.0,0.0,0.0,0.0,0.0,0.0,0.0,0.0,0.0,0.0,0.0,0.0,0.0,0.0,0.0,0.0,0.0,0.0,0.0,0.0,0.0,0.0,0.0,0.0,0.0,0.0,0.0,0.0,0.0,0.0,0.0,0.0,0.0,0.0,0.0,0.0,0.0,0.0,0.0,0.0,0.0,0.0,0.0,0.0,0.0,0.0,0.0,0.0,0.0,0.0,0.0,0.0,0.0,0.0,0.0,0.0,0.0,0.0,0.0,0.0,0.0,0.0,0.0,0.0,0.0,0.0,0.0,0.0,0.0,0.0,0.0,0.0,0.0,0.0,0.0,0.0,0.0,0.0,0.0,0.0,0.0,0.0,0.0,0.0,0.0,0.0,0.0,0.0,0.0,0.0,0.0,0.0,0.0,0.0,0.0,0.0,0.0,0.0,0.0,0.0,0.0,0.0,0.0,0.0,0.0,0.0,0.0,0.0,0.0,0.0,0.0,0.0,0.0,0.0,0.0,0.0,0.0,0.0,0.0,0.0,0.0,0.0,0.0,0.0,0.0,0.0,0.0,0.0,0.0,0.0,0.0,0.0,0.0,0.0,0.0,0.0,0.0,0.0,0.0,0.0,0.0,0.0,0.0,0.0,0.0,0.0,0.0,0.0,0.0,0.0,0.0,0.0,0.0,0.0,0.0,0.0,0.0,0.0,0.0,0.0,0.0,0.0,0.0,0.0,0.0,0.0,0.0,0.0,0.0,0.0,0.0,0.0,0.0,0.0,0.0,0.0,0.0,0.0,0.0,0.0,0.0,0.0,0.0,0.0,0.0,0.0,0.0,0.0,0.0,0.0,0.0,0.0,0.0,0.0,0.0,0.0,0.0,0.0,0.0,0.0,0.0,0.0,0.0,0.0,0.0,0.0,0.0,0.0,0.0,0.0,0.0,0.0,0.0,0.0,0.0,0.0,0.0,0.0,0.0,0.0,0.0,0.0,0.0,0.0,0.0,0.0,0.0,0.0,0.0,0.0,0.0,0.0,0.0,0.0,0.0,0.0,0.0,0.0,0.0,0.0,0.0,0.0,0.0,0.0,0.0,0.0,0.0,0.0,0.0,0.0,0.0,0.0,0.0,0.0,0.0,0.0,0.0,0.0,0.0,0.0,0.0,0.0,0.0,0.0,0.0,0.0,0.0,0.0,0.0,0.0,0.0,0.0,0.0,0.0,0.0,0.0,0.0,0.0,0.0,0.0,0.0,0.0,0.0,0.0,0.0,0.0,0.0,0.0,0.0,0.0,0.0,0.0,0.0,0.0,0.0,0.0,0.0,0.0,0.0,0.0,0.0,0.0,0.0,0.0,0.0,0.0,0.0,0.0,0.0,0.0,0.0,0.0,0.0,0.0,0.0,0.0,0.0,0.0,0.0,0.0,0.0,0.0,0.0,0.0,0.0,0.0,0.0,0.0,0.0,0.0,0.0,0.0,0.0,0.0,0.0,0.0,0.0,0.0,0.0,0.0,0.0,0.0,0.0,0.0,0.0,0.0,0.0,0.0,0.0,0.0,0.0,0.0,0.0,0.0,0.0,0.0,0.0,0.0,0.0,0.0,0.0,0.0,0.0,0.0,0.0,0.0,0.0,0.0,0.0,0.0,0.0,0.0,0.0,0.0,0.0,0.0,0.0,0.0,0.0,0.0,0.0,0.0,0.0,0.0,0.0,0.0,0.0,0.0,0.0,0.0,0.0,0.0,0.0,0.0,0.0,0.0,0.0,0.0,0.0,0.0,0.0,0.0,0.0,0.0,0.0,0.0,0.0,0.0,0.0,0.0,0.0,0.0,0.0,0.0,0.0,0.0,0.0,0.0,0.0,0.0,0.0,0.0,0.0,0.0,0.0,0.0,0.0,0.0,0.0,0.0,0.0,0.0,0.0,0.0,0.0,0.0,0.0,0.0,0.0,0.0,0.0,0.0,0.0,0.0,0.0,0.0,0.0,0.0,0.0,0.0,0.0,0.0,0.0,0.0,0.0,0.0,0.0,0.0,0.0,0.0,0.0,0.0,0.0,0.0,0.0,0.0,0.0,0.0,0.0,0.0,0.0,0.0,0.0,0.0,0.0,0.0,0.0,0.0,0.0,0.0,0.0,0.0,0.0,0.0,0.0,0.0,0.0,0.0,0.0,0.0,0.0,0.0,0.0,0.0,0.0,0.0,0.0,0.0,0.0,0.0,0.0,0.0,0.0,0.0,0.0,0.0,0.0,0.0,0.0,0.0,0.0,0.0,0.0,0.0,0.0,0.0,0.0,0.0,0.0,0.0,0.0,0.0,0.0,0.0,0.0,0.0,0.0,0.0,0.0,0.0,0.0,0.0,0.0,0.0,0.0,0.0,0.0,0.0,0.0,0.0,0.0,0.0,0.0,0.0,0.0,0.0,0.0,0.0,0.0,0.0,0.0,0.0,0.0,0.0,0.0,0.0,0.0,0.0,0.0,0.0,0.0,0.0,0.0,0.0,0.0,0.0,0.0,0.0,0.0,0.0,0.0,0.0,0.0,0.0,0.0,0.0,0.0,0.0,0.0,0.0,0.0,0.0,0.0,0.0,0.0,0.0,0.0,0.0,0.0,0.0,0.0,0.0,0.0,0.0,0.0,0.0,0.0,0.0,0.0,0.0,0.0,0.0,0.0,0.0,0.0,0.0,0.0,0.0,0.0,0.0,0.0,0.0,0.0,0.0,0.0,0.0,0.0,0.0,0.0,0.0,0.0,0.0,0.0,0.0,0.0,0.0,0.0,0.0,0.0,0.0,0.0,0.0,0.0,0.0,0.0,0.0,0.0,0.0,0.0,0.0,0.0,0.0,0.0,0.0,0.0,0.0,0.0,0.0,0.0,0.0,0.0,0.0,0.0,0.0,0.0,0.0,0.0,0.0,0.0,0.0,0.0,0.0,0.0,0.0,0.0,0.0,0.0,0.0,0.0,0.0,0.0,0.0,0.0,0.0,0.0,0.0,0.0,0.0,0.0,0.0,0.0,0.0,0.0,0.0,0.0,0.0,0.0,0.0,0.0,0.0,0.0,0.0,0.0,0.0,0.0,0.0,0.0,0.0,0.0,0.0,0.0,0.0,0.0,0.0,0.0,0.0,0.0,0.0,0.0,0.0,0.0,0.0,0.0,0.0,0.0,0.0,0.0,0.0,0.0,0.0,0.0,0.0,0.0,0.0,0.0,0.0,0.0,0.0,0.0,0.0,0.0,0.0,0.0,0.0,0.0,0.0,0.0,0.0,0.0,0.0,0.0,0.0,0.0,0.0,0.0,0.0,0.0,0.0,0.0,0.0,0.0,0.0,0.0,0.0,0.0,-0.5981,0.0,0.0,0.0,0.0,0.0,0.0,0.0,0.0,0.0,0.0,0.0,0.0,0.0,0.0,0.0,0.0,0.0,0.0,0.0,0.0,0.0,0.0,0.0,0.0,0.0,0.0,0.0,0.0,0.0,0.0,0.0,0.0,0.0,0.0,0.0,0.0,0.0,0.0,0.0,0.0,0.0,0.0,0.0,0.0,0.0,0.0,0.0,0.0,0.0,0.0,0.0,0.0,0.0,0.0,0.0,0.0,0.0,0.0,0.0,0.0,0.0,0.0,0.0,0.0,0.0,0.0,0.0,0.0,0.0,0.0,0.0,0.0,0.0,0.0,0.0,0.0,0.0,0.0,0.0,0.0,0.0,0.0,0.0,0.0,0.0,0.0,0.0,0.0,0.0,0.0,0.0,0.0,0.0,0.0,0.0,0.0,0.0,0.0,0.0,0.0,0.0,0.0,0.0,0.0,0.0,0.0,0.0,0.0,0.0,0.0,-0.6419,-0.6105,-0.6232,-0.6244,-0.6105,0.0,0.0,0.0,0.0,0.0,0.0,0.0,0.0,0.0,0.0,0.0,0.0,0.0,0.0,0.0,0.0,0.0,0.0,0.0,0.0,0.0,0.0,0.0,0.0,0.0,0.0,0.0,0.0,0.0,0.0,0.0,0.0,0.0,0.0,0.0,0.0,0.0,0.0,0.0,0.0,0.0,0.0,0.0,0.0,0.0,0.0,0.0,0.0,0.0,0.0,0.0,0.0,0.0,0.0,0.0,0.0,0.0,0.0,0.0,0.0,0.0,0.0,0.0,0.0,0.0,0.0,0.0,0.0,0.0,0.0,0.0,0.0,0.0,0.0,0.0,0.0,0.0,0.0,0.0,0.0,0.0,0.0,0.0,0.0,0.0,0.0,0.0,0.0,0.0,0.0,0.0,0.0,0.0,0.0,0.0,0.0,0.0,0.0,0.0,0.0,0.0,0.0,0.0,0.0,0.0,0.0,0.0,0.0,0.0,0.0,0.0,0.0,-0.6624,-0.6576,-0.6325,0.0,0.0,0.0,0.0,0.0,0.0,0.0,0.0,0.0,0.0,0.0,0.0,0.0,0.0,0.0,0.0,0.0,0.0,0.0,0.0,0.0,0.0,0.0,0.0,0.0,0.0,0.0,0.0,0.0,0.0,0.0,0.0,0.0,0.0,0.0,0.0,0.0,0.0,0.0,0.0,0.0,0.0,0.0,0.0,0.0,0.0,0.0,0.0,0.0,0.0,0.0,0.0,0.0,0.0,0.0,0.0,0.0,0.0,0.0,0.0,0.0,0.0,0.0,0.0,0.0,0.0,0.0,0.0,0.0,0.0,0.0,0.0,0.0,0.0,0.0,0.0,0.0,0.0,0.0,0.0,0.0,0.0,0.0,0.0,0.0,0.0,0.0,0.0,0.0,0.0,0.0,0.0,0.0,0.0,0.0,0.0,0.0,0.0,0.0,0.0,0.0,0.0,0.0,0.0,0.0,0.0,0.0,0.0,0.0,0.0,-0.719,-0.7459,-0.7197,0.0,-0.6691,0.0,0.0,0.0,0.0,0.0,0.0,0.0,0.0,0.0,0.0,0.0,0.0,0.0,0.0,0.0,0.0,0.0,0.0,0.0,0.0,0.0,0.0,0.0,0.0,0.0,0.0,0.0,0.0,0.0,0.0,0.0,0.0,0.0,0.0,0.0,0.0,0.0,0.0,0.0,0.0,0.0,0.0,0.0,0.0,0.0,0.0,0.0,0.0,0.0,0.0,0.0,0.0,0.0,0.0,0.0,0.0,0.0,0.0,0.0,0.0,0.0,0.0,0.0,0.0,0.0,0.0,0.0,0.0,0.0,0.0,0.0,0.0,0.0,0.0,0.0,0.0,0.0,0.0,0.0,0.0,0.0,0.0,0.0,0.0,0.0,0.0,0.0,0.0,0.0,0.0,0.0,0.0,0.0,0.0,0.0,0.0,0.0,0.0,0.0,0.0,0.0,0.0,0.0,0.0,0.0,0.0,0.0,0.0,0.0,0.0,-0.8072,-0.7929,-0.7642,-0.7304,0.0,0.0,0.0,0.0,0.0,0.0,0.0,0.0,0.0,0.0,0.0,0.0,0.0,0.0,0.0,0.0,0.0,0.0,0.0,0.0,0.0,0.0,0.0,0.0,0.0,0.0,0.0,0.0,0.0,0.0,0.0,0.0,0.0,0.0,0.0,0.0,0.0,0.0,0.0,0.0,0.0,0.0,0.0,0.0,0.0,0.0,0.0,0.0,0.0,0.0,0.0,0.0,0.0,0.0,0.0,0.0,0.0,0.0,0.0,0.0,0.0,0.0,0.0,0.0,0.0,0.0,0.0,0.0,0.0,0.0,0.0,0.0,0.0,0.0,0.0,0.0,0.0,0.0,0.0,0.0,0.0,0.0,0.0,0.0,0.0,0.0,0.0,0.0,0.0,0.0,0.0,0.0,0.0,0.0,0.0,0.0,0.0,0.0,0.0,0.0,0.0,0.0,0.0,0.0,0.0,0.0,0.0,0.0,0.0,0.0,-0.8628,-0.8714,-0.8322,-0.8091,-0.779,-0.7356,0.0,0.0,0.0,0.0,0.0,0.0,0.0,0.0,0.0,0.0,0.0,0.0,0.0,0.0,0.0,0.0,0.0,0.0,0.0,0.0,0.0,0.0,0.0,0.0,0.0,0.0,0.0,0.0,0.0,0.0,0.0,0.0,0.0,0.0,0.0,0.0,0.0,0.0,0.0,0.0,0.0,0.0,0.0,0.0,0.0,0.0,0.0,0.0,0.0,0.0,0.0,0.0,0.0,0.0,0.0,0.0,0.0,0.0,0.0,0.0,0.0,0.0,0.0,0.0,0.0,0.0,0.0,0.0,0.0,0.0,0.0,0.0,0.0,0.0,0.0,0.0,0.0,0.0,0.0,0.0,0.0,0.0,0.0,0.0,0.0,0.0,0.0,0.0,0.0,0.0,0.0,0.0,0.0,0.0,0.0,0.0,0.0,0.0,0.0,0.0,0.0,0.0,0.0,0.0,0.0,0.0,0.0,0.0,-0.8773,-0.9018,-0.9048,-0.8707,-0.8677,-0.837,0.0,0.0,0.0,0.0,0.0,0.0,0.0,0.0,0.0,0.0,0.0,0.0,0.0,0.0,0.0,0.0,0.0,0.0,0.0,0.0,0.0,0.0,0.0,0.0,0.0,0.0,0.0,0.0,0.0,0.0,0.0,0.0,0.0,0.0,0.0,0.0,0.0,0.0,0.0,0.0,0.0,0.0,0.0,0.0,0.0,0.0,0.0,0.0,0.0,0.0,0.0,0.0,0.0,0.0,0.0,0.0,0.0,0.0,0.0,0.0,0.0,0.0,0.0,0.0,0.0,0.0,0.0,0.0,0.0,0.0,0.0,0.0,0.0,0.0,0.0,0.0,0.0,0.0,0.0,0.0,0.0,0.0,0.0,0.0,0.0,0.0,0.0,0.0,0.0,0.0,0.0,0.0,0.0,0.0,0.0,0.0,0.0,0.0,0.0,0.0,0.0,0.0,0.0,0.0,0.0,0.0,0.0,0.0,0.0,-0.9237,-0.9823,-1.0006,-0.9667,-0.9393,-0.904,0.0,0.0,0.0,0.0,0.0,0.0,0.0,0.0,0.0,0.0,0.0,0.0,0.0,0.0,0.0,0.0,0.0,0.0,0.0,0.0,0.0,0.0,0.0,0.0,0.0,0.0,0.0,0.0,0.0,0.0,0.0,0.0,0.0,0.0,0.0,0.0,0.0,0.0,0.0,0.0,0.0,0.0,0.0,0.0,0.0,0.0,0.0,0.0,0.0,0.0,0.0,0.0,0.0,0.0,0.0,0.0,0.0,0.0,0.0,0.0,0.0,0.0,0.0,0.0,0.0,0.0,0.0,0.0,0.0,0.0,0.0,0.0,0.0,0.0,0.0,0.0,0.0,0.0,0.0,0.0,0.0,0.0,0.0,0.0,0.0,0.0,0.0,0.0,0.0,0.0,0.0,0.0,0.0,0.0,0.0,0.0,0.0,0.0,0.0,0.0,0.0,0.0,0.0,0.0,0.0,0.0,0.0,0.0,0.0,-1.0167,0.0,-1.0847,-1.0519,-1.0094,-0.9681,0.0,0.0,0.0,0.0,0.0,0.0,0.0,0.0,0.0,0.0,0.0,0.0,0.0,0.0,0.0,0.0,0.0,0.0,0.0,0.0,0.0,0.0,0.0,0.0,0.0,0.0,0.0,0.0,0.0,0.0,0.0,0.0,0.0,0.0,0.0,0.0,0.0,0.0,0.0,0.0,0.0,0.0,0.0,0.0,0.0,0.0,0.0,0.0,0.0,0.0,0.0,0.0,0.0,0.0,0.0,0.0,0.0,0.0,0.0,0.0,0.0,0.0,0.0,0.0,0.0,0.0,0.0,0.0,0.0,0.0,0.0,0.0,0.0,0.0,0.0,0.0,0.0,0.0,0.0,0.0,0.0,0.0,0.0,0.0,0.0,0.0,0.0,0.0,0.0,0.0,0.0,0.0,0.0,0.0,0.0,0.0,0.0,0.0,0.0,0.0,0.0,0.0,0.0,0.0,0.0,0.0,0.0,0.0,-1.0769,-1.1625,-1.171,-1.1532,-1.1131,-1.0748,-1.0321,0.0,0.0,0.0,0.0,0.0,0.0,0.0,0.0,0.0,0.0,0.0,0.0,0.0,0.0,0.0,0.0,0.0,0.0,0.0,0.0,0.0,0.0,0.0,0.0,0.0,0.0,0.0,0.0,0.0,0.0,0.0,0.0,0.0,0.0,0.0,0.0,0.0,0.0,0.0,0.0,0.0,0.0,0.0,0.0,0.0,0.0,0.0,0.0,0.0,0.0,0.0,0.0,0.0,0.0,0.0,0.0,0.0,0.0,0.0,0.0,0.0,0.0,0.0,0.0,0.0,0.0,0.0,0.0,0.0,0.0,0.0,0.0,0.0,0.0,0.0,0.0,0.0,0.0,0.0,0.0,0.0,0.0,0.0,0.0,0.0,0.0,0.0,0.0,0.0,0.0,0.0,0.0,0.0,0.0,0.0,0.0,0.0,0.0,0.0,0.0,0.0,0.0,0.0,0.0,0.0,0.0,0.0,0.0,0.0,-1.2453,-1.253,-1.2512,-1.2416,-1.1652,-1.1145,0.0,0.0,0.0,0.0,0.0,0.0,0.0,0.0,0.0,0.0,0.0,0.0,0.0,0.0,0.0,0.0,0.0,0.0,0.0,0.0,0.0,0.0,0.0,0.0,0.0,0.0,0.0,0.0,0.0,0.0,0.0,0.0,0.0,0.0,0.0,0.0,0.0,0.0,0.0,0.0,0.0,0.0,0.0,0.0,0.0,0.0,0.0,0.0,0.0,0.0,0.0,0.0,0.0,0.0,0.0,0.0,0.0,0.0,0.0,0.0,0.0,0.0,0.0,0.0,0.0,0.0,0.0,0.0,0.0,0.0,0.0,0.0,0.0,0.0,0.0,0.0,0.0,0.0,0.0,0.0,0.0,0.0,0.0,0.0,0.0,0.0,0.0,0.0,0.0,0.0,0.0,0.0,0.0,0.0,0.0,0.0,0.0,0.0,0.0,0.0,0.0,0.0,0.0,0.0,0.0,0.0,0.0,0.0,0.0,-1.3788,-1.3616,-1.3484,-1.3484,-1.2542,-1.1953,-1.1784,0.0,0.0,0.0,0.0,0.0,0.0,0.0,0.0,0.0,0.0,0.0,0.0,0.0,0.0,0.0,0.0,0.0,0.0,0.0,0.0,0.0,0.0,0.0,0.0,0.0,0.0,0.0,0.0,0.0,0.0,0.0,0.0,0.0,0.0,0.0,0.0,0.0,0.0,0.0,0.0,0.0,0.0,0.0,0.0,0.0,0.0,0.0,0.0,0.0,0.0,0.0,0.0,0.0,0.0,0.0,0.0,0.0,0.0,0.0,0.0,0.0,0.0,0.0,0.0,0.0,0.0,0.0,0.0,0.0,0.0,0.0,0.0,0.0,0.0,0.0,0.0,0.0,0.0,0.0,0.0,0.0,0.0,0.0,0.0,0.0,0.0,0.0,0.0,0.0,0.0,0.0,0.0,0.0,0.0,0.0,0.0,0.0,0.0,0.0,0.0,0.0,0.0,0.0,0.0,0.0,0.0,0.0,0.0,-1.5652,-1.488,-1.4479,-1.4376,-1.3423,-1.2785,0.0,0.0,0.0,0.0,0.0,0.0,0.0,0.0,0.0,0.0,0.0,0.0,0.0,0.0,0.0,0.0,0.0,0.0,0.0,0.0,0.0,0.0,0.0,0.0,0.0,0.0,0.0,0.0,0.0,0.0,0.0,0.0,0.0,0.0,0.0,0.0,0.0,0.0,0.0,0.0,0.0,0.0,0.0,0.0,0.0,0.0,0.0,0.0,0.0,0.0,0.0,0.0,0.0,0.0,0.0,0.0,0.0,0.0,0.0,0.0,0.0,0.0,0.0,0.0,0.0,0.0,0.0,0.0,0.0,0.0,0.0,0.0,0.0,0.0,0.0,0.0,0.0,0.0,0.0,0.0,0.0,0.0,0.0,0.0,0.0,0.0,0.0,0.0,0.0,0.0,0.0,0.0,0.0,0.0,0.0,0.0,0.0,0.0,0.0,0.0,0.0,0.0,0.0,0.0,0.0,0.0,0.0,0.0,0.0,-1.6638,-1.6676,-1.6318,-1.5555,-1.4736,-1.4002,0.0,0.0,0.0,0.0,0.0,0.0,0.0,0.0,0.0,0.0,0.0,0.0,0.0,0.0,0.0,0.0,0.0,0.0,0.0,0.0,0.0,0.0,0.0,0.0,0.0,0.0,0.0,0.0,0.0,0.0,0.0,0.0,0.0,0.0,0.0,0.0,0.0,0.0,0.0,0.0,0.0,0.0,0.0,0.0,0.0,0.0,0.0,0.0,0.0,0.0,0.0,0.0,0.0,0.0,0.0,0.0,0.0,0.0,0.0,0.0,0.0,0.0,0.0,0.0,0.0,0.0,0.0,0.0,0.0,0.0,0.0,0.0,0.0,0.0,0.0,0.0,0.0,0.0,0.0,0.0,0.0,0.0,0.0,0.0,0.0,0.0,0.0,0.0,0.0,0.0,0.0,0.0,0.0,0.0,0.0,0.0,0.0,0.0,0.0,0.0,0.0,0.0,0.0,0.0,0.0,0.0,0.0,0.0,-1.6453,-1.7719,-1.7933,-1.7773,-1.7244,-1.6055,-1.5029,0.0,0.0,0.0,0.0,0.0,0.0,0.0,0.0,0.0,0.0,0.0,0.0,0.0,0.0,0.0,0.0,0.0,0.0,0.0,0.0,0.0,0.0,0.0,0.0,0.0,0.0,0.0,0.0,0.0,0.0,0.0,0.0,0.0,0.0,0.0,0.0,0.0,0.0,0.0,0.0,0.0,0.0,0.0,0.0,0.0,0.0,0.0,0.0,0.0,0.0,0.0,0.0,0.0,0.0,0.0,0.0,0.0,0.0,0.0,0.0,0.0,0.0,0.0,0.0,0.0,0.0,0.0,0.0,0.0,0.0,0.0,0.0,0.0,0.0,0.0,0.0,0.0,0.0,0.0,0.0,0.0,0.0,0.0,0.0,0.0,0.0,0.0,0.0,0.0,0.0,0.0,0.0,0.0,0.0,0.0,0.0,0.0,0.0,0.0,0.0,0.0,0.0,0.0,0.0,0.0,0.0,0.0,0.0,-1.7398,-1.8812,-1.8878,-1.893,-1.8954,-1.731,-1.5971,0.0,0.0,0.0,0.0,0.0,0.0,0.0,0.0,0.0,0.0,0.0,0.0,0.0,0.0,0.0,0.0,0.0,0.0,0.0,0.0,0.0,0.0,0.0,0.0,0.0,0.0,0.0,0.0,0.0,0.0,0.0,0.0,0.0,0.0,0.0,0.0,0.0,0.0,0.0,0.0,0.0,0.0,0.0,0.0,0.0,0.0,0.0,0.0,0.0,0.0,0.0,0.0,0.0,0.0,0.0,0.0,0.0,0.0,0.0,0.0,0.0,0.0,0.0,0.0,0.0,0.0,0.0,0.0,0.0,0.0,0.0,0.0,0.0,0.0,0.0,0.0,0.0,0.0,0.0,0.0,0.0,0.0,0.0,0.0,0.0,0.0,0.0,0.0,0.0,0.0,0.0,0.0,0.0,0.0,0.0,0.0,0.0,0.0,0.0,0.0,0.0,0.0,0.0,0.0,0.0,0.0,0.0,0.0,-1.8383,-1.9834,-1.9919,-1.9929,-1.9843,-1.8565,-1.7213,0.0,0.0,0.0,0.0,0.0,0.0,0.0,0.0,0.0,0.0,0.0,0.0,0.0,0.0,0.0,0.0,0.0,0.0,0.0,0.0,0.0,0.0,0.0,0.0,0.0,0.0,0.0,0.0,0.0,0.0,0.0,0.0,0.0,0.0,0.0,0.0,0.0,0.0,0.0,0.0,0.0,0.0,0.0,0.0,0.0,0.0,0.0,0.0,-1.1977,0.0,0.0,0.0,0.0,0.0,0.0,0.0,0.0,0.0,0.0,0.0,0.0,0.0,0.0,0.0,0.0,0.0,0.0,0.0,0.0,0.0,0.0,0.0,0.0,0.0,0.0,0.0,0.0,0.0,0.0,0.0,0.0,0.0,0.0,0.0,0.0,0.0,0.0,0.0,0.0,0.0,0.0,0.0,0.0,0.0,0.0,0.0,0.0,0.0,0.0,0.0,0.0,0.0,0.0,0.0,0.0,0.0,0.0,0.0,-1.9186,-2.0701,-2.0797,-2.0763,-2.0644,-1.9808,-1.8491,0.0,0.0,0.0,0.0,0.0,0.0,0.0,0.0,0.0,0.0,0.0,0.0,0.0,0.0,0.0,0.0,0.0,0.0,0.0,0.0,0.0,0.0,0.0,0.0,0.0,0.0,0.0,0.0,0.0,0.0,0.0,0.0,0.0,0.0,0.0,0.0,0.0,0.0,0.0,0.0,0.0,0.0,0.0,0.0,0.0,0.0,0.0,0.0,0.0,0.0,0.0,0.0,0.0,0.0,0.0,0.0,0.0,0.0,0.0,0.0,0.0,0.0,0.0,0.0,0.0,0.0,0.0,0.0,0.0,0.0,0.0,0.0,0.0,0.0,0.0,0.0,0.0,0.0,0.0,0.0,0.0,0.0,0.0,0.0,0.0,0.0,0.0,0.0,0.0,0.0,0.0,0.0,0.0,0.0,0.0,0.0,0.0,0.0,0.0,0.0,0.0,0.0,0.0,0.0,0.0,0.0,0.0,-1.8933,-1.9886,-2.1469,-2.1568,-2.1524,-2.1415,-2.1023,-1.9672,-1.7461,0.0,0.0,0.0,0.0,0.0,0.0,0.0,0.0,0.0,0.0,0.0,0.0,0.0,0.0,0.0,0.0,0.0,0.0,0.0,0.0,0.0,0.0,0.0,0.0,0.0,0.0,0.0,0.0,0.0,0.0,0.0,0.0,0.0,0.0,0.0,0.0,0.0,0.0,-1.1353,-1.199,0.0,0.0,0.0,0.0,0.0,0.0,0.0,0.0,-1.3757,0.0,0.0,0.0,0.0,0.0,0.0,0.0,0.0,0.0,0.0,0.0,0.0,0.0,0.0,0.0,0.0,0.0,0.0,0.0,0.0,0.0,0.0,0.0,0.0,0.0,0.0,0.0,0.0,0.0,0.0,0.0,0.0,0.0,0.0,0.0,0.0,0.0,0.0,0.0,0.0,0.0,0.0,0.0,0.0,0.0,0.0,0.0,0.0,0.0,0.0,0.0,0.0,0.0,0.0,0.0,0.0,-1.9312,-1.9651,-2.0591,-2.218,-2.2231,-2.2164,-2.2056,-2.1642,-2.0546,-1.8699,0.0,0.0,0.0,0.0,0.0,0.0,0.0,0.0,0.0,0.0,0.0,0.0,0.0,0.0,0.0,0.0,0.0,0.0,0.0,0.0,0.0,0.0,0.0,0.0,0.0,0.0,0.0,0.0,0.0,0.0,0.0,0.0,0.0,0.0,0.0,0.0,0.0,0.0,0.0,-1.2833,-1.3209,0.0,0.0,0.0,0.0,0.0,0.0,0.0,0.0,-1.482,0.0,0.0,0.0,0.0,0.0,0.0,0.0,0.0,0.0,0.0,0.0,0.0,0.0,0.0,0.0,0.0,0.0,0.0,0.0,0.0,0.0,0.0,0.0,0.0,0.0,0.0,0.0,0.0,0.0,0.0,0.0,0.0,0.0,0.0,0.0,0.0,0.0,0.0,0.0,0.0,0.0,0.0,0.0,0.0,0.0,0.0,0.0,0.0,0.0,0.0,0.0,0.0,0.0,0.0,0.0,-1.9924,-2.0302,-2.1253,-2.2805,-2.2857,-2.2798,-2.2616,-2.2192,-2.1071,0.0,0.0,0.0,0.0,0.0,0.0,0.0,0.0,0.0,0.0,0.0,0.0,0.0,0.0,0.0,0.0,0.0,0.0,0.0,0.0,0.0,0.0,0.0,0.0,0.0,0.0,0.0,0.0,0.0,0.0,0.0,0.0,0.0,0.0,0.0,0.0,0.0,0.0,0.0,0.0,-1.3972,-1.4593,-1.4912,0.0,0.0,0.0,0.0,0.0,0.0,-1.6197,-1.6022,0.0,0.0,0.0,0.0,0.0,0.0,0.0,0.0,0.0,0.0,0.0,0.0,0.0,0.0,0.0,0.0,0.0,0.0,0.0,0.0,0.0,0.0,0.0,0.0,0.0,0.0,0.0,0.0,0.0,0.0,0.0,0.0,0.0,0.0,0.0,0.0,0.0,0.0,0.0,0.0,0.0,0.0,0.0,0.0,0.0,0.0,0.0,0.0,0.0,0.0,0.0,0.0,0.0,0.0,0.0,-2.0573,-2.0898,-2.1811,-2.3333,-2.344,-2.3324,-2.3098,-2.2678,-2.1562,0.0,0.0,0.0,0.0,0.0,0.0,0.0,0.0,0.0,0.0,0.0,0.0,0.0,0.0,0.0,0.0,0.0,0.0,0.0,0.0,0.0,0.0,0.0,0.0,0.0,0.0,0.0,0.0,0.0,0.0,0.0,0.0,0.0,0.0,0.0,0.0,0.0,0.0,0.0,0.0,0.0,-1.5942,-1.6146,-1.6873,0.0,0.0,0.0,0.0,-1.744,-1.7372,0.0,0.0,0.0,0.0,0.0,0.0,0.0,0.0,0.0,0.0,0.0,0.0,0.0,0.0,0.0,0.0,0.0,0.0,0.0,0.0,0.0,0.0,0.0,0.0,0.0,0.0,0.0,0.0,0.0,0.0,0.0,0.0,0.0,0.0,0.0,0.0,0.0,0.0,0.0,0.0,0.0,0.0,0.0,0.0,0.0,0.0,0.0,0.0,0.0,0.0,0.0,0.0,0.0,0.0,0.0,0.0,-2.1041,-2.1311,-2.2185,-2.3726,-2.3816,-2.3692,-2.3455,-2.317,-2.2086,0.0,0.0,0.0,0.0,0.0,0.0,0.0,0.0,0.0,0.0,0.0,0.0,0.0,0.0,0.0,0.0,0.0,0.0,0.0,0.0,0.0,0.0,0.0,0.0,0.0,0.0,0.0,0.0,0.0,0.0,0.0,0.0,0.0,0.0,0.0,0.0,0.0,0.0,0.0,0.0,0.0,-1.6806,-1.7673,-1.795,-1.8104,0.0,0.0,-1.8667,-1.8608,-1.8608,0.0,0.0,0.0,0.0,0.0,0.0,0.0,0.0,0.0,0.0,0.0,0.0,0.0,0.0,0.0,0.0,0.0,0.0,0.0,0.0,0.0,0.0,0.0,0.0,0.0,0.0,0.0,0.0,0.0,0.0,0.0,0.0,0.0,0.0,0.0,0.0,0.0,0.0,0.0,0.0,0.0,0.0,0.0,0.0,0.0,0.0,0.0,0.0,0.0,0.0,0.0,0.0,0.0,0.0,0.0,-1.9828,-2.1479,-2.1691,-2.2568,-2.4155,-2.4192,-2.4079,-2.386,-2.3562,-2.2452,0.0,0.0,0.0,0.0,0.0,0.0,0.0,0.0,0.0,0.0,0.0,0.0,0.0,0.0,0.0,0.0,0.0,0.0,0.0,0.0,0.0,0.0,0.0,0.0,0.0,0.0,0.0,0.0,0.0,0.0,0.0,0.0,0.0,0.0,0.0,0.0,0.0,0.0,0.0,0.0,0.0,0.0,-1.9275,-1.977,0.0,0.0,0.0,-2.0129,-2.0129,0.0,0.0,0.0,0.0,0.0,0.0,0.0,0.0,0.0,0.0,0.0,0.0,0.0,0.0,0.0,0.0,0.0,0.0,0.0,0.0,0.0,0.0,0.0,0.0,0.0,0.0,0.0,0.0,0.0,0.0,0.0,0.0,0.0,0.0,0.0,0.0,0.0,0.0,0.0,0.0,0.0,0.0,0.0,0.0,0.0,0.0,0.0,0.0,0.0,0.0,0.0,0.0,0.0,0.0,0.0,0.0,0.0,-2.1882,-2.2058,-2.294,-2.4535,-2.4524,-2.4388,-2.4174,-2.3862,0.0,0.0,0.0,0.0,0.0,0.0,0.0,0.0,0.0,0.0,0.0,0.0,0.0,0.0,0.0,0.0,0.0,0.0,0.0,0.0,0.0,0.0,0.0,0.0,0.0,0.0,0.0,0.0,0.0,0.0,0.0,0.0,0.0,0.0,0.0,0.0,0.0,0.0,0.0,0.0,0.0,0.0,-2.0279,-2.0639,-2.1335,-2.1911,0.0,0.0,-2.1536,-2.1536,-2.094,-2.045,0.0,0.0,0.0,0.0,0.0,0.0,0.0,0.0,0.0,0.0,0.0,0.0,0.0,0.0,0.0,0.0,0.0,0.0,0.0,0.0,0.0,0.0,0.0,0.0,0.0,0.0,0.0,0.0,0.0,0.0,0.0,0.0,0.0,0.0,0.0,0.0,0.0,0.0,0.0,0.0,0.0,0.0,0.0,0.0,0.0,0.0,0.0,0.0,0.0,0.0,0.0,0.0,0.0,0.0,0.0,-2.2224,-2.2394,-2.324,-2.4795,-2.4823,-2.4636,-2.4389,-2.4118,-2.3019,0.0,0.0,0.0,0.0,0.0,0.0,0.0,0.0,0.0,0.0,0.0,0.0,0.0,0.0,0.0,0.0,0.0,0.0,0.0,0.0,0.0,0.0,0.0,0.0,0.0,0.0,0.0,0.0,0.0,0.0,0.0,0.0,0.0,0.0,0.0,0.0,0.0,0.0,0.0,0.0,0.0,-2.1316,-2.155,-2.2168,-2.2671,0.0,0.0,-2.2764,-2.2764,-2.2192,-2.1754,-2.1678,0.0,0.0,0.0,0.0,0.0,0.0,0.0,0.0,0.0,0.0,0.0,0.0,0.0,0.0,0.0,0.0,0.0,0.0,0.0,0.0,0.0,0.0,0.0,0.0,0.0,0.0,0.0,0.0,0.0,0.0,0.0,0.0,0.0,0.0,0.0,0.0,0.0,0.0,0.0,0.0,0.0,0.0,0.0,0.0,0.0,0.0,0.0,0.0,0.0,0.0,0.0,0.0,0.0,-2.0809,-2.244,-2.2579,-2.343,-2.4986,-2.5032,-2.4888,-2.47,-2.4441,-2.3382,0.0,0.0,0.0,0.0,0.0,0.0,0.0,0.0,0.0,0.0,0.0,0.0,0.0,0.0,0.0,0.0,0.0,0.0,0.0,0.0,0.0,0.0,0.0,0.0,0.0,0.0,0.0,0.0,-1.7329,-1.7855,-1.855,0.0,0.0,0.0,0.0,0.0,0.0,0.0,0.0,0.0,0.0,-2.3084,-2.3792,-2.436,0.0,0.0,-2.4668,-2.4417,-2.4312,-2.3733,-2.3055,-2.256,-2.2051,0.0,0.0,0.0,0.0,0.0,0.0,0.0,0.0,0.0,0.0,0.0,0.0,0.0,0.0,0.0,0.0,0.0,0.0,0.0,0.0,0.0,0.0,0.0,0.0,0.0,0.0,0.0,0.0,0.0,0.0,0.0,0.0,0.0,0.0,0.0,0.0,0.0,0.0,0.0,0.0,0.0,0.0,0.0,0.0,0.0,0.0,0.0,0.0,0.0,0.0,0.0,0.0,-2.0983,-2.2671,-2.2737,-2.3582,-2.5233,-2.5217,-2.5094,-2.4953,-2.4685,-2.3773,0.0,0.0,0.0,0.0,0.0,0.0,0.0,0.0,0.0,0.0,0.0,0.0,0.0,0.0,0.0,0.0,0.0,0.0,0.0,0.0,0.0,0.0,0.0,0.0,0.0,0.0,0.0,0.0,-1.8982,-1.9614,-2.0312,0.0,0.0,0.0,0.0,0.0,0.0,0.0,0.0,0.0,0.0,-2.4948,-2.5539,-2.613,-2.652,-2.6587,-2.6263,-2.5936,-2.5767,-2.5148,-2.4426,-2.3837,0.0,0.0,0.0,0.0,0.0,0.0,0.0,0.0,0.0,0.0,0.0,0.0,0.0,0.0,0.0,0.0,0.0,0.0,0.0,0.0,0.0,0.0,0.0,0.0,0.0,0.0,0.0,0.0,0.0,0.0,-2.3057,0.0,0.0,0.0,0.0,0.0,0.0,0.0,0.0,0.0,0.0,0.0,0.0,0.0,0.0,0.0,0.0,0.0,0.0,0.0,0.0,0.0,0.0,-2.1152,-2.2852,-2.2912,-2.3729,-2.5329,-2.5332,-2.5222,-2.5113,-2.4847,-2.4161,-2.3044,0.0,0.0,0.0,0.0,0.0,0.0,0.0,0.0,0.0,0.0,0.0,0.0,0.0,0.0,0.0,0.0,0.0,0.0,0.0,0.0,0.0,0.0,0.0,0.0,0.0,0.0,-2.0556,-2.0894,-2.1344,0.0,0.0,0.0,0.0,0.0,0.0,0.0,0.0,0.0,0.0,-2.58,-2.669,-2.6591,-2.7111,-2.7464,-2.7282,-2.7268,-2.7232,-2.7078,-2.6446,-2.5921,0.0,0.0,0.0,0.0,0.0,0.0,0.0,0.0,0.0,0.0,0.0,0.0,0.0,0.0,0.0,0.0,0.0,0.0,0.0,0.0,0.0,0.0,0.0,0.0,0.0,0.0,0.0,-2.4375,-2.4443,0.0,0.0,0.0,0.0,0.0,0.0,0.0,0.0,0.0,0.0,0.0,-2.503,-2.4738,0.0,0.0,0.0,0.0,0.0,0.0,0.0,0.0,0.0,0.0,0.0,0.0,-2.1806,-2.2926,-2.354,-2.4361,-2.5418,-2.5401,-2.5313,-2.5228,-2.5006,-2.4068,-2.2306,0.0,0.0,0.0,0.0,0.0,0.0,0.0,0.0,0.0,0.0,0.0,0.0,0.0,0.0,0.0,0.0,0.0,0.0,0.0,0.0,0.0,0.0,0.0,0.0,0.0,-2.1393,0.0,0.0,0.0,0.0,0.0,0.0,0.0,0.0,0.0,0.0,0.0,-2.612,-2.7001,-2.7491,-2.7872,-2.8279,-2.8372,-2.8415,0.0,0.0,0.0,0.0,0.0,0.0,0.0,0.0,0.0,0.0,0.0,0.0,0.0,0.0,-2.2668,-2.1137,-2.0906,-2.0953,-2.1033,0.0,0.0,0.0,0.0,0.0,0.0,0.0,0.0,0.0,0.0,0.0,0.0,0.0,0.0,-2.5818,0.0,-2.5959,0.0,0.0,0.0,0.0,0.0,0.0,0.0,0.0,-2.6111,-2.6111,-2.6131,-2.5851,-2.5462,0.0,-2.4703,-2.3888,0.0,0.0,0.0,0.0,0.0,0.0,0.0,0.0,-2.2609,-2.3471,-2.4044,-2.4727,-2.5493,-2.5464,-2.5393,-2.5332,-2.508,-2.411,-2.2372,-2.117,-2.0063,0.0,0.0,0.0,0.0,0.0,0.0,0.0,0.0,0.0,0.0,0.0,0.0,0.0,0.0,0.0,0.0,0.0,0.0,0.0,0.0,0.0,0.0,0.0,-2.3278,0.0,0.0,0.0,0.0,0.0,0.0,0.0,0.0,0.0,-2.6399,-2.7071,-2.7984,-2.8846,-2.9023,-2.9237,-2.962,0.0,0.0,0.0,0.0,0.0,0.0,0.0,-2.8292,-2.7639,-2.7372,-2.7,-2.6223,-2.5976,-2.5807,-2.5568,0.0,0.0,-2.3326,-2.3041,-2.3041,-2.3136,-2.3512,-2.3846,-2.3961,-2.4307,-2.4659,0.0,0.0,0.0,0.0,0.0,0.0,0.0,0.0,-2.6878,-2.7,0.0,-2.7195,0.0,0.0,0.0,0.0,0.0,-2.7471,0.0,0.0,-2.7362,-2.7419,-2.7385,-2.6663,-2.6326,-2.632,-2.5649,-2.4904,-2.4101,-2.3474,0.0,0.0,0.0,0.0,0.0,0.0,-2.354,-2.4343,-2.444,-2.4827,-2.5562,-2.5531,-2.5456,-2.5406,-2.5018,-2.4327,-2.3313,-2.2221,-2.1152,-2.008,-1.9059,0.0,0.0,0.0,0.0,0.0,0.0,0.0,0.0,0.0,0.0,0.0,0.0,0.0,0.0,0.0,0.0,0.0,0.0,0.0,0.0,-2.4822,0.0,0.0,0.0,0.0,0.0,0.0,0.0,0.0,0.0,0.0,-2.8368,-2.9365,-3.0177,-3.0102,0.0,0.0,0.0,0.0,-3.0267,-3.0054,-2.9924,-2.9722,-2.938,-2.9243,-2.9074,-2.8935,0.0,0.0,-2.741,-2.7177,-2.6885,-2.6214,-2.6184,-2.5955,-2.5503,-2.5319,-2.5227,-2.5242,-2.5257,-2.5379,-2.5379,-2.5453,-2.5575,-2.5482,0.0,0.0,0.0,0.0,-2.6062,-2.6241,-2.6439,-2.6481,-2.6587,-2.6767,-2.6842,0.0,0.0,0.0,0.0,0.0,0.0,-2.7194,-2.7142,-2.7109,-2.7109,-2.7125,-2.6965,-2.6647,-2.6181,-2.6003,-2.557,-2.4899,-2.4784,-2.4166,-2.3135,0.0,0.0,0.0,0.0,-2.4159,-2.4417,-2.5005,-2.5414,-2.561,-2.5543,-2.5449,-2.5332,-2.5075,-2.4468,-2.3468,-2.2943,-2.2189,-2.1116,-2.0652,0.0,0.0,0.0,0.0,0.0,0.0,0.0,0.0,0.0,0.0,0.0,0.0,0.0,0.0,0.0,0.0,0.0,0.0,0.0,-2.5458,-2.5876,-2.6372,0.0,0.0,0.0,0.0,0.0,0.0,0.0,0.0,0.0,-3.1261,-3.1097,-3.1183,0.0,0.0,-3.1623,-3.1545,-3.124,-3.0965,-3.0788,0.0,0.0,0.0,-2.9913,-2.9694,-2.9572,-2.9273,-2.895,-2.8622,-2.8545,-2.842,-2.8201,-2.8186,-2.8155,-2.7984,-2.6765,-2.5909,-2.5925,-2.632,-2.6685,-2.6778,-2.7159,-2.7509,-2.5572,-2.5387,-2.5846,-2.612,-2.6317,-2.6508,-2.671,-2.6889,-2.7024,-2.7151,-2.7301,-2.7391,-2.7497,-2.7564,-2.7687,0.0,0.0,0.0,-2.7864,-2.7826,-2.7806,-2.7806,-2.7846,-2.755,-2.725,-2.6919,-2.6386,-2.5937,-2.5585,-2.5447,-2.4911,-2.4068,0.0,0.0,-2.4139,-2.4647,-2.4912,-2.4935,-2.5428,-2.5664,-2.56,-2.5531,-2.5445,-2.5312,-2.513,-2.4739,-2.4077,-2.3497,-2.2859,-2.2118,-2.1585,-2.1205,0.0,0.0,0.0,0.0,0.0,0.0,0.0,0.0,0.0,0.0,0.0,-2.2007,0.0,0.0,0.0,0.0,-2.5907,-2.6617,-2.6881,-2.7638,0.0,0.0,0.0,0.0,0.0,0.0,0.0,-3.2075,-3.2567,-3.2982,-3.3229,-3.2794,-3.2547,-3.2741,-3.2517,-3.2316,-3.2283,0.0,-3.176,-3.1901,-3.1602,-3.1338,-3.1215,-3.0983,-3.0645,-3.0033,-2.9782,-2.9605,-2.9425,-2.935,-2.9321,-2.9305,-2.9321,-2.9275,-2.9291,-2.8229,-2.7333,-2.7302,-2.7582,-2.7829,-2.7969,-2.831,-2.8556,-2.5642,-2.5917,-2.6539,-2.6937,-2.7181,-2.7522,-2.7701,-2.7771,-2.8017,-2.8174,-2.829,-2.8456,-2.8594,-2.8669,-2.8791,0.0,-2.8952,-2.8962,-2.898,-2.9044,-2.9017,-2.9021,-2.9119,-2.8341,-2.804,-2.8128,-2.674,-2.6129,-2.6146,-2.5592,-2.534,-2.5476,-2.5571,-2.5629,-2.5707,-2.5683,-2.5697,-2.5696,-2.569,-2.5671,-2.5586,-2.5531,-2.5423,-2.5303,-2.5176,-2.5032,-2.4879,-2.3941,-2.3308,-2.3087,-2.2209,-2.162,-2.1404,0.0,0.0,0.0,0.0,0.0,0.0,0.0,0.0,0.0,0.0,0.0,0.0,0.0,0.0,0.0,-2.7429,0.0,-2.8329,-2.9847,0.0,0.0,0.0,-3.2184,-3.2241,-3.2222,-3.2541,-3.3349,0.0,0.0,-3.4427,0.0,-3.403,-3.3476,-3.3118,-3.2934,-3.2876,-3.257,-3.2546,-3.2981,-3.2824,-3.2518,-3.2162,-3.1972,-3.1441,-3.0458,-3.0231,-3.013,-2.9913,-2.9798,-2.9742,-2.9697,-2.9592,-2.9563,-2.9534,-2.9454,-2.9412,-2.8934,-2.8858,-2.8811,-2.8795,-2.8811,-2.8779,-2.5162,-2.5486,-2.5921,-2.6383,-2.6775,-2.7038,-2.723,-2.7369,-2.7569,-2.7748,-2.784,-2.8063,-2.8228,-2.8406,-2.8484,-2.8543,-2.8626,-2.8669,-2.8694,-2.8712,-2.8761,-2.881,-2.8815,-2.8773,-2.8463,-2.7948,-2.714,-2.6545,-2.6096,-2.5512,-2.5303,-2.5418,-2.5554,-2.5644,-2.5696,-2.5701,-2.5699,-2.5693,-2.5701,-2.5648,-2.5525,-2.5468,-2.5387,-2.5302,-2.5168,-2.505,-2.4898,-2.4516,-2.4197,-2.4007,-2.3675,-2.3371,-2.313,-2.3063,0.0,0.0,0.0,0.0,0.0,0.0,0.0,0.0,0.0,-2.458,-2.559,0.0,-2.7082,0.0,-2.9169,-3.0509,-3.1297,-3.1748,0.0,0.0,-3.2362,-3.2722,-3.3311,-3.3406,-3.371,-3.4508,-3.4586,-3.4661,-3.4793,-3.471,-3.4539,-3.425,-3.3823,-3.3455,-3.3339,-3.3037,-3.2838,-3.2802,-3.2599,-3.2244,-3.2059,-3.1662,-3.1234,-3.0757,-3.0535,-3.0401,-3.0274,-3.0146,-3.0017,-2.9946,-2.9902,-2.9858,-2.9814,-2.9726,-2.9608,-2.9412,-2.9275,-2.9167,-2.9183,-2.9091,-2.8998,-2.4982,-2.5272,-2.5983,-2.6504,-2.6814,-2.6826,-2.6908,-2.6989,-2.7261,-2.7417,-2.7474,-2.773,-2.795,-2.8091,-2.8191,-2.8291,-2.8353,-2.8406,-2.8458,-2.8562,-2.8612,-2.8644,-2.8743,-2.8881,-2.8603,-2.7925,-2.7345,-2.6718,-2.609,-2.5487,-2.5264,-2.5385,-2.5537,-2.5628,-2.5697,-2.5698,-2.5699,-2.569,-2.5664,-2.5595,-2.5499,-2.5426,-2.536,-2.5252,-2.5115,-2.4994,-2.4851,-2.4723,-2.4547,-2.4358,-2.4228,-2.4056,-2.3837,-2.3792,-2.3887,0.0,0.0,0.0,0.0,0.0,0.0,0.0,0.0,0.0,0.0,0.0,-2.8324,0.0,-3.0771,-3.1895,-3.2483,-3.2896,-3.3172,-3.3253,-3.3627,-3.401,-3.447,-3.4527,-3.4684,-3.513,-3.5138,-3.5107,-3.5054,-3.4964,-3.4829,-3.4647,-3.4269,-3.3921,-3.3698,-3.3415,-3.3255,-3.3377,-3.3135,-3.2845,-3.2505,-3.184,-3.1291,-3.1021,-3.0797,-3.0651,-3.0543,-3.0401,-3.0231,-3.0103,-3.0017,-2.9973,-2.9902,-2.9786,-2.9697,-2.9608,-2.9457,-2.9305,-2.9213,-2.9167,-2.9091,-2.4926,-2.5194,-2.6215,-2.6738,-2.6857,-2.6738,-2.6708,-2.6826,-2.7072,-2.7181,-2.7244,-2.7552,-2.773,-2.7789,-2.794,-2.8053,-2.8172,-2.8182,-2.83,-2.8466,-2.851,-2.8594,-2.8743,-2.8772,-2.8489,-2.7966,-2.727,-2.6641,-2.6076,-2.5512,-2.5274,-2.5423,-2.5556,-2.5643,-2.5691,-2.5697,-2.5698,-2.5687,-2.5634,-2.5576,-2.5511,-2.5448,-2.5341,-2.5192,-2.5068,-2.4929,-2.4794,-2.4726,-2.462,-2.4412,-2.4284,-2.4172,-2.4016,-2.4049,-2.4351,0.0,-2.5143,0.0,0.0,0.0,0.0,0.0,0.0,0.0,0.0,-2.867,-2.9586,-3.1398,-3.2295,-3.2867,-3.3053,-3.3801,-3.4285,-3.4307,-3.4962,-3.5424,-3.5424,-3.5438,-3.543,-3.5407,-3.5345,-3.5285,-3.5226,-3.5108,-3.4964,-3.481,-3.4561,-3.425,-3.3991,-3.3698,-3.3651,-3.415,-3.3934,-3.33,-3.2891,-3.2162,-3.1504,-3.1252,-3.1032,-3.0871,-3.0749,-3.0543,-3.0375,-3.0231,-3.0076,-2.9989,-2.9902,-2.9786,-2.9697,-2.9637,-2.9396,-2.9259,-2.9167,-2.9121,-2.9091,-2.4926,-2.5146,-2.5697,-2.6024,-2.6224,-2.6449,-2.6873,-2.7343,-2.7131,-2.7184,-2.7434,-2.7526,-2.76,-2.773,-2.7893,-2.8014,-2.8042,-2.8191,-2.83,-2.8353,-2.851,-2.8587,-2.8601,-2.82,-2.7978,-2.783,-2.6637,-2.6073,-2.6086,-2.5492,-2.5274,-2.5379,-2.5543,-2.564,-2.5701,0.0,0.0,0.0,-2.5595,-2.5577,-2.5507,-2.5443,-2.5332,-2.5198,-2.5075,0.0,-2.4794,-2.4745,-2.462,-2.4412,-2.4321,0.0,0.0,0.0,0.0,0.0,0.0,0.0,0.0,0.0,0.0,0.0,-2.9676,-3.0053,-3.0261,-3.1147,-3.2188,-3.3268,-3.367,-3.4141,-3.4891,-3.511,-3.5239,-3.5316,-3.5463,-3.556,-3.556,-3.556,-3.5547,-3.5489,-3.5402,-3.5364,-3.5285,-3.516,-3.5039,-3.4908,-3.4689,-3.4473,-3.4191,-3.3842,-3.3632,-3.3581,-3.3152,-3.2702,-3.2317,-3.1906,-3.1542,-3.1423,-3.1112,-3.0912,-3.0831,-3.0584,-3.0359,-3.0231,-3.0076,-2.9946,-2.977,-2.9681,-2.9592,-2.9396,-2.9259,-2.9167,-2.9259,-2.9167,-2.9091,-2.4974,0.0,-2.5573,-2.6106,0.0,-2.7004,-2.7347,-2.7651,-2.7199,-2.7169,-2.7452,-2.7539,-2.7642,-2.7701,-2.7911,-2.8025,-2.8099,-2.8209,-2.8318,-2.8458,-2.8569,-2.8488,-2.8202,-2.7993,-2.7534,-2.6859,-2.6236,-2.5823,-2.5595,-2.5382,-2.5321,-2.5449,-2.5543,-2.5636,-2.5687,-2.5701,-2.5668,-2.5609,-2.5574,-2.5524,-2.5459,-2.5361,-2.5252,-2.5141,0.0,0.0,0.0,0.0,0.0,0.0,0.0,0.0,0.0,0.0,0.0,-2.6578,-2.7025,-2.768,-2.8542,-2.8716,-2.9152,-3.0132,-3.1487,-3.2109,-3.173,-3.2645,-3.3474,-3.4012,-3.4496,-3.4993,-3.5483,-3.5553,-3.5577,-3.5659,-3.5659,-3.5639,-3.5639,-3.5628,-3.5584,-3.5547,-3.5482,-3.5432,-3.5324,-3.5196,-3.5039,-3.485,-3.4647,-3.4404,-3.4148,-3.3876,-3.3643,-3.3256,-3.282,-3.2387,-3.2144,-3.1802,-3.1542,-3.1368,-3.1112,-3.0871,-3.0749,-3.0543,-3.0316,-3.0087,-2.9957,-2.9826,-2.9637,-2.9502,-2.9366,-2.9213,-2.9091,-2.8951,-2.9045,-2.8998,-2.8967,-2.5059,-2.541,-2.5729,-2.6409,-2.7191,-2.7533,-2.7742,-2.7777,0.0,0.0,0.0,-2.7612,-2.773,-2.7789,-2.7968,-2.8099,-2.8237,-2.8264,-2.8334,-2.8438,-2.8518,-2.8242,-2.7644,-2.7613,-2.6991,-2.5867,-2.5887,-2.5644,-2.5149,-2.5264,-2.5382,-2.5517,-2.5579,-2.5629,-2.5698,-2.5701,-2.5643,-2.5595,-2.5525,-2.5456,-2.5395,-2.5274,-2.5168,-2.5082,-2.4966,-2.4827,-2.4692,-2.4647,-2.4571,-2.4524,-2.5152,-2.5557,-2.5642,-2.6436,-2.7214,-2.7877,-2.8167,-2.8602,-2.9297,-2.9472,-3.0001,-3.1092,-3.2786,-3.3515,-3.2899,-3.3704,-3.4289,-3.441,-3.5097,-3.5541,-3.562,-3.5612,-3.5623,-3.5704,-3.5704,-3.5704,-3.5673,-3.5623,-3.5589,-3.5579,-3.5501,-3.5398,-3.5277,-3.5126,-3.4964,-3.4769,-3.4539,-3.4245,-3.3928,-3.3716,-3.3455,-3.2993,-3.2623,-3.2318,-3.2073,-3.1765,-3.1466,-3.123,-3.0992,-3.0733,-3.051,-3.0359,-3.013,-2.987,-2.9782,-2.9649,-2.9441,-2.9213,-2.9075,-2.9045,-2.8873,-2.8747,-2.87,-2.87,-2.87,-2.5416,-2.5663,-2.6063,-2.6414,-2.6723,-2.6995,-2.7274,-2.7542,-2.7487,-2.7509,-2.7672,-2.776,-2.7893,-2.8071,-2.8126,-2.8237,-2.838,-2.8562,-2.8324,0.0,-2.7912,-2.7619,-2.6927,-2.6358,-2.6068,-2.5935,-2.5479,-2.5225,-2.5214,-2.5301,-2.5471,-2.5568,-2.5598,-2.5616,-2.5691,-2.5629,-2.5571,-2.5512,-2.5518,-2.5456,-2.5387,-2.5274,-2.5138,-2.5019,-2.4953,-2.4846,-2.4698,-2.465,-2.4832,-2.53,-2.5448,-2.5777,-2.641,-2.7243,-2.7803,-2.8015,-2.8711,-2.9241,-2.9472,-2.9607,-3.0396,-3.2033,-3.3199,-3.3794,-3.3837,-3.4604,-3.5172,-3.5297,-3.547,-3.5604,-3.5673,-3.5693,-3.5673,-3.5704,-3.5704,-3.5673,-3.5631,-3.5601,-3.5565,-3.5515,-3.5393,-3.527,-3.5122,-3.4963,-3.4772,-3.4626,-3.434,-3.4005,-3.355,-3.328,-3.3037,-3.2719,-3.2404,-3.2144,-3.1856,-3.1542,-3.1274,-3.1055,-3.0773,-3.0485,-3.0274,-3.0044,-2.987,-2.9726,-2.9531,-2.9335,-2.9183,-2.9013,-2.8873,-2.8716,-2.8541,-2.8444,-2.8286,-2.811,-2.8189,-2.5717,-2.5977,-2.65,-2.6759,-2.6842,-2.7198,-2.7509,-2.7766,-2.7922,-2.794,-2.7911,-2.8035,-2.8191,-2.8273,-2.8406,-2.8536,-2.8594,-2.827,-2.8027,-2.7791,-2.7481,-2.699,-2.6338,-2.6062,-2.5789,-2.547,-2.5258,-2.5214,-2.5321,-2.5449,-2.5538,-2.5615,-2.5644,-2.566,-2.5644,-2.5625,-2.5556,-2.5444,-2.5461,-2.5393,-2.5293,-2.519,-2.5106,-2.4993,-2.4903,-2.4806,-2.4701,-2.503,-2.5282,-2.5485,-2.635,-2.6954,-2.7236,-2.8113,-2.8602,-2.8664,-2.9105,-2.9412,-2.9492,-3.0509,-3.1468,-3.237,-3.3673,-3.4483,-3.4568,-3.5025,-3.5345,-3.5482,-3.5554,-3.5572,-3.5628,-3.5639,-3.5639,-3.5639,-3.5639,-3.5628,-3.5572,-3.5515,-3.5443,-3.5379,-3.5273,-3.5141,-3.5,-3.4831,-3.4607,-3.4386,-3.4012,-3.356,-3.3111,-3.2848,-3.2621,-3.2454,-3.2232,-3.1912,-3.1579,-3.1312,-3.1038,-3.0773,-3.0526,-3.0258,-3.0044,-2.9766,-2.9605,-2.9396,-2.9213,-2.9029,-2.8842,-2.8716,-2.8573,-2.8429,-2.8299,-2.8046,-2.7613,-2.704,-2.704,-2.5994,-2.6297,-2.6877,-2.7142,-2.7247,-2.7642,-2.795,-2.8136,-2.8398,-2.838,-2.8255,-2.8388,-2.8484,-2.8536,-2.8694,-2.8724,-2.8581,-2.8088,-2.768,-2.749,-2.6972,-2.6347,-2.5781,-2.5825,-2.5608,-2.516,-2.5196,-2.5339,-2.5434,-2.555,-2.5615,-2.5636,-2.5664,-2.5645,-2.5604,-2.5556,-2.5505,-2.541,-2.5378,-2.5313,-2.5201,-2.513,-2.5051,-2.4977,-2.485,-2.482,-2.4965,-2.5427,-2.582,-2.6094,-2.7251,-2.7945,-2.8081,-2.878,-2.9178,-2.92,-2.931,-2.9433,-2.9643,-3.1242,-3.2279,-3.239,-3.396,-3.4982,-3.5035,-3.5174,-3.532,-3.5427,-3.5482,-3.5502,-3.5547,-3.556,-3.556,-3.556,-3.5547,-3.5522,-3.5443,-3.5374,-3.5339,-3.5239,-3.5089,-3.4945,-3.4811,-3.4626,-3.4363,-3.3986,-3.3532,-3.3111,-3.2784,-3.242,-3.2197,-3.2073,-3.1894,-3.1637,-3.1312,-3.0998,-3.0716,-3.0426,-3.0189,-2.9913,-2.9677,-2.9454,-2.9243,-2.9029,-2.8826,-2.8685,-2.8494,-2.8196,-2.7926,-2.7719,-2.7485,-2.7176,-2.6549,-2.6016,-2.5953,-2.6297,-2.6691,-2.7038,-2.7478,-2.7911,-2.8146,-2.8309,-2.8466,-2.8662,-2.8834,-2.8868,-2.8743,-2.8725,-2.8858,-2.8915,-2.8669,-2.8192,-2.8144,-2.7419,-2.6251,-2.6151,-2.5778,-2.5171,-2.5237,-2.532,-2.534,-2.5453,-2.5498,-2.557,-2.5593,-2.5631,-2.5681,-2.5618,-2.5613,-2.5587,-2.5478,-2.541,-2.5388,-2.5292,-2.5209,-2.5198,-2.5075,-2.4974,-2.4898,-2.4787,-2.5017,-2.5607,-2.5689,-2.6357,-2.7627,-2.7822,-2.8198,-2.8778,-2.9048,-2.9152,-2.9218,-2.9289,-2.9414,-2.9739,-3.1203,-3.2145,-3.2411,-3.3828,-3.4812,-3.4832,-3.5001,-3.5196,-3.5289,-3.5345,-3.5407,-3.5443,-3.5424,-3.5424,-3.5411,-3.5422,-3.5393,-3.5296,-3.5254,-3.5157,-3.5037,-3.4851,-3.4693,-3.4542,-3.4293,-3.3954,-3.3476,-3.3142,-3.2784,-3.242,-3.2055,-3.1728,-3.1487,-3.1372,-3.1274,-3.0998,-3.0658,-3.0326,-3.0103,-2.9798,-2.9515,-2.9259,-2.9029,-2.8748,-2.8653,-2.8384,-2.8176,-2.7844,-2.7504,-2.6856,-2.6587,-2.6206,-2.5682,-2.5497,-2.5254,-2.5523,-2.6724,-2.71,-2.7382,-2.7818,-2.8282,-2.8518,-2.8676,-2.8827,-2.903,-2.9144,-2.9159,-2.8751,-2.8484,-2.8458,-2.8567,-2.824,-2.7568,-2.7146,-2.6695,-2.61,-2.5716,-2.539,-2.5203,-2.5274,-2.5354,-2.5464,-2.5525,-2.5574,-2.5593,-2.5633,-2.5662,-2.5654,-2.5615,-2.557,-2.5478,-2.5393,-2.5322,-2.5282,-2.5145,-2.5082,-2.5032,-2.4961,-2.4893,-2.479,-2.4657,-2.4955,-2.5671,-2.606,-2.6794,-2.7859,-2.8331,-2.8709,-2.8957,-2.9062,-2.913,-2.9134,-2.9243,-2.9349,-2.9471,-3.0579,-3.1519,-3.2143,-3.3294,-3.4143,-3.4632,-3.481,-3.487,-3.4964,-3.5141,-3.527,-3.5266,-3.5281,-3.5247,-3.5251,-3.5239,-3.5171,-3.507,-3.5,-3.4908,-3.4771,-3.4586,-3.4371,-3.4197,-3.385,-3.3419,-3.3001,-3.2719,-3.2386,-3.2055,-3.1654,-3.1295,-3.1044,-3.0821,-3.0675,-3.0576,-3.0326,-3.0044,-2.9738,-2.9486,-2.9183,-2.8889,-2.8668,-2.8477,-2.8253,-2.7753,-2.7346,-2.703,-2.6531,-2.5971,-2.5534,-2.4974,-2.4425,-2.4378,-2.404,-2.4036,-2.7147,-2.75,-2.7858,-2.8246,-2.8651,-2.8868,-2.9034,-2.9114,-2.9113,-2.9232,-2.9363,-2.8551,-2.7988,-2.7806,-2.8026,-2.7719,-2.6971,-2.6427,-2.6136,-2.5994,-2.5423,-2.5236,-2.5348,-2.5434,-2.5486,-2.5546,-2.5591,-2.5636,-2.5599,-2.5655,-2.5619,-2.558,-2.557,-2.5472,-2.5374,-2.5293,-2.5212,-2.5141,-2.5013,-2.4921,-2.4823,-2.4813,-2.4764,-2.4666,-2.4561,-2.4871,-2.5634,-2.6313,-2.7022,-2.7831,-2.8553,-2.8929,-2.8929,-2.8975,-2.904,-2.9044,-2.9152,-2.924,-2.9289,-3.0097,-3.1019,-3.196,-3.2807,-3.3615,-3.4289,-3.4539,-3.4583,-3.4604,-3.4831,-3.4982,-3.5072,-3.5053,-3.5035,-3.4981,-3.4982,-3.4926,-3.485,-3.4713,-3.4567,-3.445,-3.4245,-3.4005,-3.3743,-3.3332,-3.2925,-3.2553,-3.2266,-3.1966,-3.1634,-3.1218,-3.0861,-3.0642,-3.03,-3.007,-3.0097,-2.9941,-2.9694,-2.938,-2.9075,-2.8795,-2.8542,-2.8332,-2.7939,-2.7482,-2.6943,-2.6419,-2.6031,-2.549,-2.4835,-2.4425,-2.3884,-2.3363,-2.3382,-2.284,-2.2747,-2.7577,-2.7936,-2.8507,-2.8827,-2.8993,-2.9233,-2.9378,-2.9345,-2.8778,-2.8969,-2.9342,-2.8151,-2.73,-2.6936,-2.7252,-2.7053,-2.6492,-2.6416,-2.6051,-2.5466,-2.539,-2.5422,-2.5511,-2.5564,-2.5591,-2.5593,-2.5648,-2.5644,-2.5598,-2.56,-2.5564,-2.5518,-2.5441,-2.5367,-2.5293,-2.5171,-2.5087,-2.5006,-2.4884,-2.4749,-2.4623,-2.4561,-2.4564,-2.4582,-2.4532,-2.4818,-2.5485,-2.6195,-2.694,-2.7684,-2.8419,-2.881,-2.881,-2.881,-2.8834,-2.8905,-2.897,-2.9085,-2.927,-2.9902,-3.0765,-3.1689,-3.2455,-3.331,-3.3998,-3.4232,-3.4293,-3.4316,-3.4386,-3.4524,-3.4653,-3.4714,-3.4733,-3.4713,-3.4649,-3.4626,-3.4604,-3.4367,-3.4197,-3.4023,-3.3815,-3.3494,-3.3081,-3.2816,-3.247,-3.2109,-3.1821,-3.1504,-3.11,-3.0757,-3.0468,-3.0172,-2.987,-2.9589,-2.9722,-2.9544,-2.9198,-2.8873,-2.8605,-2.8271,-2.8057,-2.775,-2.719,-2.6649,-2.6096,-2.558,-2.499,-2.4336,-2.3649,-2.3145,-2.2894,-2.2587,-2.264,-2.239,-2.2283,-2.7736,-2.8578,-2.8971,-2.923,-2.9341,-2.9044,-2.8957,-2.8954,-2.8303,-2.816,-2.826,-2.7366,-2.6862,-2.6745,-2.6343,-2.6044,-2.5794,-2.5829,-2.5716,-2.5503,-2.5523,-2.5552,-2.5559,-2.5629,-2.5672,-2.5663,-2.5642,-2.5593,-2.554,-2.5499,-2.5456,-2.5418,-2.5321,-2.5243,-2.5164,-2.5057,-2.494,-2.4861,-2.4707,-2.4561,-2.4462,-2.4356,-2.4284,-2.421,-2.4266,-2.4633,-2.5338,-2.6042,-2.6786,-2.7528,-2.8276,-2.8662,-2.8662,-2.8662,-2.8705,-2.8712,-2.8737,-2.881,-2.8965,-2.9208,-2.9793,-3.0701,-3.1513,-3.2324,-3.3105,-3.3659,-3.3972,-3.3998,-3.3998,-3.4055,-3.4136,-3.4344,-3.4458,-3.439,-3.4363,-3.4269,-3.4124,-3.3998,-3.3842,-3.356,-3.3232,-3.2862,-3.2519,-3.2231,-3.1896,-3.1582,-3.1334,-3.1021,-3.0601,-3.0267,-2.9984,-2.9722,-2.9319,-2.8951,-2.881,-2.8951,-2.8779,-2.8462,-2.8091,-2.7542,-2.7205,-2.6862,-2.6352,-2.5531,-2.5023,-2.4529,-2.3908,-2.3331,-2.2607,-2.2414,-2.2077,-2.203,-2.1996,-2.1902,-2.1793,-2.7529,-2.8278,-2.8575,-2.8763,-2.8917,-2.8491,-2.8387,-2.8408,-2.7697,-2.7448,-2.7431,-2.6688,-2.6327,-2.6273,-2.5779,-2.5512,-2.5473,-2.5507,-2.5571,-2.561,-2.56,-2.5609,-2.5603,-2.5644,-2.5655,-2.5654,-2.557,-2.5502,-2.5422,-2.5363,-2.5339,-2.5284,-2.5179,-2.5056,-2.4961,-2.4837,-2.4734,-2.4629,-2.4461,-2.4357,-2.4247,-2.4135,-2.4018,-2.3935,-2.3955,-2.4265,-2.4798,-2.5484,-2.6204,-2.6959,-2.7698,-2.8214,-2.8448,-2.8484,-2.8484,-2.8484,-2.8466,-2.8492,-2.8612,-2.8662,-2.9082,-2.9972,-3.0801,-3.1605,-3.2391,-3.3195,-3.3616,-3.3671,-3.3625,-3.3597,-3.3634,-3.3831,-3.3961,-3.3979,-3.3954,-3.385,-3.368,-3.355,-3.3302,-3.3001,-3.2586,-3.2231,-3.1985,-3.1694,-3.1355,-3.1044,-3.0781,-3.0477,-3.0097,-2.975,-2.9438,-2.9243,-2.8811,-2.8431,-2.8158,-2.8125,-2.8076,-2.7795,-2.7364,-2.6832,-2.6258,-2.5918,-2.5325,-2.4465,-2.384,-2.3354,-2.2808,-2.2233,-2.1985,-2.1821,-2.1712,-2.1616,-2.1568,-2.1506,-2.141,-2.6972,-2.7225,-2.7277,-2.7595,-2.779,-2.7731,-2.7766,-2.774,-2.7025,-2.6834,-2.6928,-2.6072,-2.5756,-2.5722,-2.5652,-2.5583,-2.5585,-2.5579,-2.5572,-2.5597,-2.5604,-2.5602,-2.5586,-2.559,-2.5585,-2.5557,-2.5459,-2.536,-2.5283,-2.5205,-2.5168,-2.5063,-2.4955,-2.4828,-2.4697,-2.457,-2.4476,-2.4375,-2.4192,-2.4077,-2.3996,-2.3876,-2.375,-2.37,-2.3638,-2.3674,-2.3833,-2.4545,-2.5308,-2.5971,-2.6683,-2.7371,-2.8049,-2.8201,-2.8201,-2.8174,-2.8201,-2.8246,-2.8282,-2.8371,-2.8738,-2.9511,-3.0451,-3.1265,-3.1934,-3.2821,-3.3364,-3.3345,-3.325,-3.3172,-3.3172,-3.3172,-3.3309,-3.3615,-3.3447,-3.335,-3.3232,-3.3001,-3.2684,-3.2335,-3.1949,-3.164,-3.1414,-3.1123,-3.0821,-3.0435,-3.014,-2.9897,-2.9544,-2.9182,-2.8858,-2.8669,-2.8286,-2.7894,-2.761,-2.7357,-2.7225,-2.7049,-2.6577,-2.6079,-2.5342,-2.4854,-2.4218,-2.3399,-2.2972,-2.2505,-2.2138,-2.1671,-2.1622,-2.1471,-2.1326,-2.1229,-2.1215,-2.1166,-2.1019,-2.7297,-2.7456,-2.7579,-2.7697,-2.7731,-2.7287,-2.7129,-2.7122,-2.6315,-2.6018,-2.6027,-2.5753,-2.5605,-2.5622,-2.5613,-2.5598,-2.5603,-2.5563,-2.5558,-2.5592,-2.5601,-2.5559,-2.5535,-2.5549,-2.5499,-2.5395,-2.5265,-2.5146,-2.5077,-2.4981,-2.4877,-2.4799,-2.47,-2.4556,-2.4422,-2.4301,-2.4173,-2.4039,-2.3899,-2.3774,-2.3682,-2.3571,-2.3481,-2.3365,-2.336,-2.3295,-2.3283,-2.4147,-2.4935,-2.5656,-2.6357,-2.7081,-2.7688,-2.7847,-2.7847,-2.7847,-2.7847,-2.7876,-2.795,-2.7979,-2.8106,-2.8635,-2.9726,-3.0529,-3.0993,-3.2135,-3.283,-3.2866,-3.2784,-3.2784,-3.2784,-3.2737,-3.2784,-3.3063,-3.3001,-3.2844,-3.2619,-3.2283,-3.195,-3.1696,-3.1393,-3.11,-3.0804,-3.0493,-3.0182,-2.9881,-2.9572,-2.9273,-2.8967,-2.8622,-2.8334,-2.8189,-2.776,-2.7408,-2.7137,-2.6578,-2.6096,-2.5899,-2.5524,-2.5091,-2.4391,-2.3717,-2.3042,-2.254,-2.2103,-2.1757,-2.1394,-2.1215,-2.118,-2.1131,-2.1033,-2.097,-2.0921,-2.0822,-2.0723,-2.668,-2.679,-2.6919,-2.6986,-2.7009,-2.652,-2.6373,-2.6342,-2.5835,-2.5605,-2.5619,-2.5562,-2.5574,-2.5565,-2.5537,-2.5515,-2.5492,-2.5426,-2.5403,-2.5446,-2.5515,-2.5492,-2.5423,-2.5359,-2.5255,-2.513,-2.503,-2.4917,-2.4807,-2.4685,-2.4601,-2.4508,-2.4391,-2.4248,-2.4118,-2.3963,-2.3819,-2.3732,-2.358,-2.3463,-2.3348,-2.3223,-2.3144,-2.307,-2.3003,-2.2927,-2.2903,-2.3458,-2.4252,-2.5312,-2.6271,-2.7033,-2.747,-2.7504,-2.7504,-2.7522,-2.7522,-2.7552,-2.7582,-2.763,-2.7672,-2.7976,-2.9202,-3.0082,-3.0381,-3.1524,-3.2334,-3.2369,-3.2352,-3.2352,-3.2318,-3.2214,-3.2214,-3.2299,-3.2453,-3.2351,-3.1985,-3.162,-3.1355,-3.1067,-3.0804,-3.0477,-3.0199,-2.9881,-2.9572,-2.9303,-2.8982,-2.8701,-2.8383,-2.8042,-2.786,-2.7595,-2.7188,-2.6878,-2.6654,-2.5936,-2.5029,-2.4667,-2.4357,-2.3935,-2.3378,-2.2699,-2.2013,-2.1708,-2.1301,-2.1229,-2.0921,-2.0822,-2.0785,-2.0736,-2.0673,-2.0586,-2.0536,-2.0472,-2.0372,-2.5365,-2.5421,-2.549,-2.5648,-2.5718,-2.5677,-2.5683,-2.5618,-2.5586,-2.558,-2.5561,-2.5492,-2.5468,-2.544,-2.539,-2.5335,-2.5283,-2.5206,-2.5133,-2.5126,-2.5197,-2.5236,-2.5203,-2.5061,-2.4885,-2.4776,-2.4771,-2.4655,-2.447,-2.4366,-2.4301,-2.4174,-2.4019,-2.3896,-2.3756,-2.3566,-2.3473,-2.3394,-2.3199,-2.3095,-2.3045,-2.2876,-2.2747,-2.2747,-2.2615,-2.2552,-2.2542,-2.2767,-2.35,-2.4982,-2.6333,-2.7095,-2.7164,-2.7181,-2.7181,-2.7164,-2.7149,-2.7181,-2.7213,-2.7261,-2.7341,-2.7476,-2.8756,-2.9726,-2.99,-3.1046,-3.1932,-3.1949,-3.1877,-3.1821,-3.1821,-3.1674,-3.1579,-3.1504,-3.1748,-3.1694,-3.1334,-3.1078,-3.0781,-3.051,-3.0156,-2.9837,-2.9589,-2.9257,-2.8997,-2.8669,-2.8334,-2.8042,-2.786,-2.756,-2.7218,-2.6959,-2.6616,-2.6336,-2.604,-2.4998,-2.4127,-2.3733,-2.332,-2.2656,-2.2383,-2.1781,-2.1327,-2.0974,-2.0759,-2.0623,-2.0523,-2.0485,-2.0385,-2.0334,-2.0283,-2.0195,-2.0131,-2.0067,-2.0016,-2.552,-2.5551,-2.5559,-2.5586,-2.5598,-2.554,-2.5531,-2.5511,-2.5471,-2.5444,-2.543,-2.5335,-2.5265,-2.5194,-2.5124,-2.5069,-2.5005,-2.493,-2.4831,-2.4728,-2.4666,-2.4738,-2.4804,-2.4708,-2.4551,-2.4437,-2.4389,-2.4284,-2.4118,-2.3964,-2.3842,-2.3741,-2.3562,-2.3463,-2.3353,-2.3188,-2.306,-2.2927,-2.285,-2.2712,-2.2579,-2.2419,-2.232,-2.2265,-2.2198,-2.213,-2.2207,-2.309,-2.3835,-2.4632,-2.6058,-2.6825,-2.6825,-2.6825,-2.6825,-2.6825,-2.6825,-2.6825,-2.6825,-2.6858,-2.6908,-2.7027,-2.8288,-2.9123,-2.9191,-3.0537,-3.127,-3.1389,-3.1329,-3.1235,-3.1235,-3.11,-3.0925,-3.0838,-3.0965,-3.1004,-3.0757,-3.0452,-3.0156,-2.9853,-2.9544,-2.9257,-2.8997,-2.8606,-2.8319,-2.8155,-2.776,-2.7408,-2.7306,-2.693,-2.6563,-2.6336,-2.6054,-2.5783,-2.5273,-2.4148,-2.3324,-2.2896,-2.2255,-2.1419,-2.1236,-2.103,-2.0725,-2.0523,-2.0372,-2.0271,-2.022,-2.0182,-2.0093,-1.999,-1.9926,-1.9823,-1.9772,-1.972,-1.9617,-2.5547,-2.556,-2.5523,-2.552,-2.5515,-2.5408,-2.5352,-2.533,-2.5283,-2.5241,-2.5184,-2.5091,-2.4991,-2.4879,-2.4826,-2.4762,-2.4678,-2.4623,-2.4508,-2.4316,-2.4155,-2.421,-2.4335,-2.4318,-2.4192,-2.4023,-2.3943,-2.3837,-2.3685,-2.3473,-2.3353,-2.3283,-2.3102,-2.2985,-2.2857,-2.2738,-2.2607,-2.2463,-2.2381,-2.226,-2.2163,-2.1998,-2.1878,-2.1836,-2.1794,-2.1804,-2.2221,-2.3161,-2.3902,-2.4494,-2.5631,-2.6487,-2.6504,-2.6487,-2.6487,-2.6504,-2.6504,-2.6504,-2.6504,-2.6487,-2.6504,-2.6756,-2.7864,-2.8515,-2.8917,-3.0007,-3.0895,-3.0821,-3.074,-3.0699,-3.0634,-3.0477,-3.0267,-3.007,-3.0038,-3.0081,-3.0113,-2.9853,-2.9528,-2.9212,-2.8935,-2.8606,-2.8446,-2.7993,-2.776,-2.7575,-2.7152,-2.6945,-2.6788,-2.6283,-2.5892,-2.5783,-2.5453,-2.5133,-2.4745,-2.3821,-2.2949,-2.2457,-2.1642,-2.0681,-2.0513,-2.0449,-2.0271,-2.0169,-2.0016,-1.9926,-1.9875,-1.9823,-1.9772,-1.9668,-1.9565,-1.9512,-1.946,-1.9356,-1.9316,-2.5488,-2.5454,-2.5382,-2.5348,-2.5322,-2.5207,-2.5098,-2.5061,-2.5018,-2.4949,-2.4855,-2.4766,-2.464,-2.4516,-2.4454,-2.4388,-2.4301,-2.4211,-2.4041,-2.3844,-2.3656,-2.3635,-2.3705,-2.3824,-2.3717,-2.3526,-2.3437,-2.3312,-2.314,-2.2933,-2.2799,-2.2754,-2.2586,-2.2436,-2.2303,-2.2164,-2.2079,-2.1998,-2.1823,-2.1751,-2.1661,-2.1524,-2.1432,-2.1417,-2.1535,-2.1714,-2.2246,-2.3004,-2.3627,-2.3967,-2.5372,-2.6035,-2.6134,-2.6134,-2.6118,-2.6118,-2.6134,-2.6134,-2.6118,-2.6118,-2.6134,-2.6349,-2.7441,-2.8213,-2.851,-2.9551,-3.0326,-3.0251,-3.0208,-3.0113,-3.0,-2.981,-2.9528,-2.9273,-2.912,-2.912,-2.9257,-2.9166,-2.8889,-2.8637,-2.8271,-2.7993,-2.781,-2.7473,-2.71,-2.7034,-2.6616,-2.6283,-2.6068,-2.5673,-2.5398,-2.5287,-2.4908,-2.4465,-2.4068,-2.3537,-2.2769,-2.2098,-2.1212,-2.0444,-2.0256,-2.0116,-1.9925,-1.9759,-1.9708,-1.9617,-1.9512,-1.946,-1.9356,-1.9316,-1.9198,-1.9263,-1.9263,-1.9146,-1.9093,-2.5272,-2.5195,-2.512,-2.5053,-2.4981,-2.4872,-2.4752,-2.47,-2.4598,-2.4538,-2.4456,-2.4318,-2.4211,-2.4099,-2.3984,-2.3883,-2.3762,-2.3635,-2.3419,-2.3165,-2.3122,-2.2908,-2.288,-2.3076,-2.3183,-2.3032,-2.2797,-2.2686,-2.2546,-2.2347,-2.2198,-2.2175,-2.1991,-2.1811,-2.1718,-2.1612,-2.1493,-2.1417,-2.1355,-2.1245,-2.115,-2.1023,-2.0958,-2.0989,-2.1284,-2.1544,-2.1886,-2.2912,-2.3563,-2.3988,-2.4869,-2.5626,-2.568,-2.5717,-2.5717,-2.5733,-2.5733,-2.5712,-2.5717,-2.5717,-2.5733,-2.5912,-2.6964,-2.7826,-2.7924,-2.9026,-2.9713,-2.9722,-2.9633,-2.9454,-2.9227,-2.9044,-2.8795,-2.8559,-2.8367,-2.8174,-2.8046,-2.8158,-2.8238,-2.8091,-2.771,-2.7372,-2.7321,-2.6826,-2.6549,-2.6443,-2.6108,-2.5673,-2.5342,-2.5077,-2.4851,-2.4751,-2.435,-2.3943,-2.3625,-2.3096,-2.2369,-2.1744,-2.0915,-2.033,-2.0138,-1.9879,-1.9687,-1.9515,-1.9344,-1.9251,-1.9146,-1.9052,-1.8999,-1.8946,-1.8839,-1.8839,-1.8827,-1.8827,-1.8881,-2.4937,-2.4803,-2.4761,-2.4662,-2.4579,-2.447,-2.4352,-2.4227,-2.4137,-2.4041,-2.3926,-2.3803,-2.3678,-2.3512,-2.3441,-2.3328,-2.3165,-2.2979,-2.278,-2.2582,-2.251,-2.2303,-2.2051,-2.2186,-2.2341,-2.2402,-2.2203,-2.2062,-2.1936,-2.1748,-2.1598,-2.1538,-2.137,-2.1245,-2.1103,-2.1055,-2.0958,-2.0828,-2.0763,-2.0681,-2.0563,-2.0478,-2.0593,-2.081,-2.1121,-2.1418,-2.2202,-2.284,-2.3409,-2.3869,-2.4451,-2.4974,-2.5208,-2.5301,-2.5301,-2.5317,-2.5317,-2.5317,-2.5301,-2.5317,-2.5406,-2.5648,-2.67,-2.7264,-2.7806,-2.864,-2.9071,-2.9074,-2.8982,-2.8811,-2.8527,-2.835,-2.8155,-2.7894,-2.771,-2.7494,-2.7276,-2.7429,-2.7645,-2.7444,-2.7086,-2.6826,-2.6616,-2.6215,-2.5946,-2.5837,-2.5398,-2.4951,-2.4851,-2.458,-2.4305,-2.4086,-2.3734,-2.3471,-2.3191,-2.2677,-2.1947,-2.1357,-2.0843,-2.0382,-2.0121,-1.9845,-1.9526,-1.9377,-1.9203,-1.8946,-1.8827,-1.8732,-1.8708,-1.8661,-1.8607,-1.8464,-1.8433,-1.8491,-1.8611,-2.4514,-2.4383,-2.4316,-2.421,-2.4062,-2.3964,-2.3826,-2.3681,-2.3653,-2.3482,-2.3305,-2.3259,-2.3076,-2.2905,-2.283,-2.2703,-2.2495,-2.2351,-2.2147,-2.1919,-2.1878,-2.1642,-2.1399,-2.1368,-2.1399,-2.1642,-2.1552,-2.1446,-2.1323,-2.115,-2.0975,-2.0878,-2.0795,-2.0614,-2.0496,-2.0429,-2.0361,-2.0239,-2.0154,-2.0085,-1.9995,-1.9955,-2.0156,-2.058,-2.1151,-2.1579,-2.2329,-2.2836,-2.3194,-2.3779,-2.3839,-2.4078,-2.4451,-2.4751,-2.4831,-2.4846,-2.4806,-2.4791,-2.4791,-2.4838,-2.5033,-2.5612,-2.6283,-2.691,-2.7534,-2.8078,-2.8434,-2.8431,-2.8334,-2.8189,-2.7845,-2.771,-2.7524,-2.7269,-2.7115,-2.6841,-2.6616,-2.6774,-2.6774,-2.6774,-2.6443,-2.6162,-2.5946,-2.5673,-2.5453,-2.5175,-2.4681,-2.435,-2.4234,-2.406,-2.3734,-2.3437,-2.3198,-2.2896,-2.264,-2.2323,-2.1584,-2.1284,-2.0748,-2.0464,-2.017,-1.9925,-1.9691,-1.9277,-1.9061,-1.8912,-1.8826,-1.889,-1.8744,-1.8545,-1.8559,-1.8634,-1.8553,-1.8281,-1.8464,-2.3966,-2.3903,-2.372,-2.3613,-2.3486,-2.3282,-2.3171,-2.31,-2.2954,-2.2848,-2.2721,-2.2617,-2.2485,-2.2341,-2.2192,-2.1994,-2.1744,-2.1642,-2.1491,-2.1228,-2.1134,-2.0975,-2.0698,-2.0614,-2.0514,-2.0431,-2.0599,-2.0747,-2.0632,-2.0481,-2.0311,-2.0224,-2.007,-1.9929,-1.9839,-1.9732,-1.9675,-1.9617,-1.9545,-1.9523,-1.9524,-1.9553,-1.9771,-2.0352,-2.1097,-2.171,-2.2075,-2.2615,-2.2951,-2.3054,-2.3157,-2.3304,-2.3508,-2.3867,-2.4094,-2.4193,-2.4193,-2.4219,-2.4177,-2.4239,-2.4502,-2.504,-2.5772,-2.6428,-2.699,-2.7549,-2.7849,-2.781,-2.766,-2.7458,-2.7108,-2.6967,-2.6759,-2.6563,-2.6365,-2.6096,-2.5797,-2.5728,-2.5906,-2.5974,-2.5742,-2.5508,-2.5342,-2.5063,-2.4794,-2.4509,-2.4176,-2.3839,-2.3662,-2.3424,-2.3125,-2.2884,-2.2653,-2.2347,-2.2087,-2.1803,-2.1389,-2.1292,-2.0981,-2.0634,-2.0362,-2.0125,-1.9867,-1.9515,-1.924,-1.9171,-1.909,-1.9009,-1.8905,-1.8701,-1.8778,-1.8924,-1.8628,-1.8414,-1.8684,-2.3328,-2.3183,-2.3069,-2.2947,-2.2822,-2.2652,-2.2538,-2.2476,-2.2269,-2.213,-2.2034,-2.1936,-2.179,-2.1612,-2.1505,-2.1275,-2.1071,-2.0991,-2.0764,-2.0516,-2.04,-2.028,-2.0,-1.9909,-1.9717,-1.9609,-1.9717,-1.9894,-1.9965,-1.9788,-1.966,-1.9551,-1.9427,-1.9281,-1.9221,-1.9199,-1.9049,-1.8988,-1.8927,-1.9046,-1.9244,-1.9393,-1.985,-2.0472,-2.0923,-2.1476,-2.1872,-2.2161,-2.242,-2.2434,-2.254,-2.2632,-2.2723,-2.2904,-2.3275,-2.3553,-2.3655,-2.364,-2.3729,-2.3894,-2.4418,-2.4953,-2.5563,-2.6169,-2.6668,-2.7077,-2.7203,-2.71,-2.6907,-2.6645,-2.651,-2.6297,-2.6068,-2.5851,-2.5701,-2.5425,-2.5077,-2.4951,-2.5021,-2.5147,-2.4964,-2.4838,-2.4851,-2.4523,-2.4189,-2.3852,-2.3616,-2.3378,-2.3138,-2.2884,-2.258,-2.2273,-2.2037,-2.1788,-2.1537,-2.1273,-2.1071,-2.1019,-2.0933,-2.0595,-2.04,-2.0169,-1.9998,-1.982,-1.961,-1.9293,-1.9059,-1.8914,-1.8824,-1.8802,-1.8758,-1.8736,-1.8665,-1.8637,-1.8884,-2.2574,-2.2432,-2.2378,-2.2241,-2.2074,-2.1977,-2.1907,-2.1777,-2.1612,-2.143,-2.1323,-2.1245,-2.1071,-2.0862,-2.0731,-2.0614,-2.0311,-2.0296,-2.0089,-1.9808,-1.9687,-1.9522,-1.9369,-1.9184,-1.9035,-1.8808,-1.8731,-1.8846,-1.9169,-1.9132,-1.8997,-1.8898,-1.8793,-1.8679,-1.8616,-1.8553,-1.8461,-1.8372,-1.8446,-1.8644,-1.907,-1.9628,-2.0147,-2.0625,-2.0781,-2.1156,-2.156,-2.1704,-2.1779,-2.1827,-2.1935,-2.1983,-2.1996,-2.2044,-2.2366,-2.2958,-2.3183,-2.3243,-2.3418,-2.381,-2.4389,-2.4916,-2.5394,-2.5936,-2.6347,-2.6467,-2.6418,-2.6244,-2.6082,-2.5948,-2.5825,-2.5619,-2.5425,-2.5245,-2.5034,-2.4821,-2.4465,-2.4292,-2.4163,-2.4163,-2.4163,-2.4176,-2.4176,-2.3943,-2.3543,-2.3305,-2.3078,-2.2836,-2.2592,-2.2396,-2.2149,-2.1788,-2.1474,-2.1221,-2.0967,-2.0828,-2.0635,-2.0506,-2.0377,-2.0182,-2.0128,-2.0041,-1.9944,-1.9781,-1.9415,-1.9111,-1.8924,-1.891,-1.9076,-1.9027,-1.876,-1.8749,-1.8932,-1.8985,-1.9061,-2.1832,-2.182,-2.1628,-2.146,-2.1319,-2.1197,-2.1103,-2.1023,-2.0926,-2.0795,-2.0599,-2.0599,-2.0413,-2.0224,-1.9984,-1.9823,-1.9645,-1.9522,-1.9391,-1.9147,-1.8997,-1.8831,-1.8616,-1.8461,-1.8291,-1.8068,-1.7948,-1.8201,-1.8408,-1.8408,-1.8397,-1.8293,-1.8147,-1.8068,-1.7948,-1.7922,-1.776,-1.7733,-1.8133,-1.8608,-1.9181,-1.9727,-2.0047,-2.0273,-2.0628,-2.0908,-2.1015,-2.1091,-2.114,-2.114,-2.1264,-2.1326,-2.1326,-2.141,-2.1833,-2.2366,-2.2804,-2.3124,-2.3223,-2.3738,-2.4261,-2.4704,-2.5029,-2.5381,-2.5723,-2.5825,-2.566,-2.5397,-2.5272,-2.5272,-2.5104,-2.4821,-2.4694,-2.4567,-2.4408,-2.4131,-2.378,-2.3649,-2.3531,-2.3365,-2.3292,-2.3424,-2.3484,-2.3198,-2.2909,-2.2714,-2.2531,-2.2285,-2.2037,-2.1851,-2.1577,-2.1146,-2.0955,-2.07,-2.0518,-2.0313,-2.0248,-2.0064,-1.9998,-1.9868,-1.9736,-1.9736,-1.9671,-1.9488,-1.9167,-1.9049,-1.9008,-1.9104,-1.935,-1.9221,-1.8891,-1.9093,-1.9467,-1.938,-1.9101,-2.0536,-2.0879,-2.0813,-2.0715,-2.0616,-2.0449,-2.0348,-2.0296,-2.0139,-2.0015,-1.9859,-1.9808,-1.963,-1.9413,-1.9192,-1.9058,-1.8921,-1.8831,-1.8602,-1.8436,-1.8279,-1.8121,-1.7922,-1.776,-1.7557,-1.7421,-1.7256,-1.716,-1.7407,-1.7652,-1.776,-1.7611,-1.7503,-1.738,-1.7323,-1.7269,-1.7366,-1.7666,-1.8248,-1.8819,-1.9166,-1.9613,-1.9922,-1.9935,-2.018,-2.032,-2.0346,-2.0396,-2.0434,-2.0446,-2.056,-2.0806,-2.1028,-2.1159,-2.1419,-2.197,-2.2564,-2.2936,-2.3163,-2.3694,-2.4132,-2.4434,-2.4641,-2.4956,-2.5106,-2.4978,-2.4865,-2.4694,-2.4593,-2.4536,-2.4421,-2.4189,-2.4073,-2.3897,-2.3721,-2.3484,-2.3258,-2.3065,-2.2944,-2.2714,-2.2543,-2.2592,-2.2702,-2.2531,-2.2347,-2.2223,-2.1975,-2.1714,-2.1474,-2.1296,-2.0955,-2.0549,-2.0366,-2.0248,-2.0064,-1.9868,-1.9868,-1.9736,-1.9736,-1.9605,-1.9407,-1.9341,-1.9274,-1.9085,-1.8772,-1.8783,-1.9019,-1.8977,-1.8916,-1.8957,-1.8931,-1.9085,-1.9152,-1.8998,-1.8762,-1.9266,-1.9728,-1.9919,-1.9934,-1.9864,-1.9722,-1.9615,-1.9543,-1.9354,-1.9207,-1.9095,-1.8983,-1.8779,-1.8626,-1.8447,-1.8344,-1.8266,-1.8108,-1.7868,-1.7707,-1.7544,-1.7421,-1.7256,-1.706,-1.6934,-1.6892,-1.6625,-1.6454,-1.6497,-1.668,-1.6837,-1.6947,-1.685,-1.6765,-1.6718,-1.6878,-1.7118,-1.7772,-1.8337,-1.8772,-1.9045,-1.9356,-1.9517,-1.9579,-1.9592,-1.9604,-1.9592,-1.9695,-1.9747,-1.9972,-2.0127,-2.0431,-2.0794,-2.1028,-2.1281,-2.1749,-2.2255,-2.2609,-2.3005,-2.3519,-2.3899,-2.4073,-2.419,-2.4355,-2.4221,-2.4131,-2.4015,-2.4002,-2.3943,-2.3897,-2.378,-2.3543,-2.3378,-2.3258,-2.3078,-2.2836,-2.2665,-2.2531,-2.2334,-2.2149,-2.1901,-2.1714,-2.1776,-2.1851,-2.1737,-2.1612,-2.1411,-2.121,-2.0967,-2.0722,-2.0453,-2.0042,-1.9987,-1.9868,-1.9671,-1.955,-1.9483,-1.9407,-1.9407,-1.9274,-1.9075,-1.8942,-1.8885,-1.8684,-1.8482,-1.8549,-1.8674,-1.8549,-1.8482,-1.8617,-1.8684,-1.8617,-1.8549,-1.8482,-1.8482,-1.8214,-1.8212,-1.8884,-1.9109,-1.9006,-1.8954,-1.8869,-1.8717,-1.8693,-1.8539,-1.8344,-1.8187,-1.8028,-1.7868,-1.7787,-1.7679,-1.7544,-1.7365,-1.724,-1.7102,-1.6934,-1.671,-1.6582,-1.6411,-1.6281,-1.612,-1.5932,-1.58,-1.568,-1.568,-1.5944,-1.6188,-1.6219,-1.6132,-1.632,-1.6678,-1.7241,-1.7811,-1.8256,-1.8558,-1.8799,-1.9004,-1.9028,-1.904,-1.9028,-1.904,-1.904,-1.9141,-1.9322,-1.9631,-1.9849,-2.0195,-2.0609,-2.0763,-2.1113,-2.1624,-2.1795,-2.2098,-2.2508,-2.3081,-2.3554,-2.3631,-2.361,-2.3603,-2.3509,-2.345,-2.339,-2.3258,-2.3185,-2.3185,-2.3065,-2.2896,-2.2775,-2.258,-2.2457,-2.2223,-2.2099,-2.1975,-2.1788,-2.1526,-2.1336,-2.121,-2.1019,-2.1083,-2.1158,-2.1106,-2.0903,-2.07,-2.0377,-2.0194,-1.9933,-1.9736,-1.9671,-1.9539,-1.9351,-1.9218,-1.9152,-1.9008,-1.8942,-1.8808,-1.8607,-1.8549,-1.8617,-1.8482,-1.8347,-1.8347,-1.8337,-1.8347,-1.8347,-1.8482,-1.8482,-1.8357,-1.8347,-1.8347,-1.8414,-1.7365,-1.7365,-1.7639,-1.7948,-1.8212,-1.8173,-1.8147,-1.8028,-1.7948,-1.7787,-1.7598,-1.7393,-1.7282,-1.7199,-1.7018,-1.6934,-1.685,-1.6693,-1.6552,-1.6411,-1.6238,-1.6064,-1.5944,-1.5768,-1.5635,-1.5513,-1.5367,-1.5187,-1.5062,-1.4971,-1.4915,-1.5153,-1.5471,-1.5761,-1.6021,-1.6584,-1.7225,-1.7587,-1.7985,-1.83,-1.8359,-1.8464,-1.8464,-1.8464,-1.8452,-1.8452,-1.8511,-1.8791,-1.9001,-1.9259,-1.9608,-2.0018,-2.0416,-2.0546,-2.0889,-2.1289,-2.141,-2.1552,-2.1794,-2.2482,-2.2919,-2.2884,-2.2884,-2.2836,-2.2678,-2.2678,-2.2616,-2.2543,-2.2531,-2.2531,-2.2482,-2.2359,-2.2161,-2.2025,-2.1839,-2.1663,-2.1474,-2.1411,-2.1285,-2.1083,-2.0828,-2.0646,-2.0518,-2.0313,-2.0453,-2.0593,-2.0388,-2.0194,-1.9933,-1.966,-1.9473,-1.9341,-1.9274,-1.9142,-1.8952,-1.8818,-1.8751,-1.8617,-1.8539,-1.8482,-1.8347,-1.8337,-1.8337,-1.8279,-1.8144,-1.8144,-1.8134,-1.8144,-1.8212,-1.8212,-1.8221,-1.8154,-1.8212,-1.8212,-1.8319,-1.6481,-1.6522,-1.6534,-1.696,-1.7475,-1.7475,-1.7434,-1.7338,-1.7269,-1.7073,-1.6905,-1.6693,-1.662,-1.6522,-1.6349,-1.6207,-1.6175,-1.6013,-1.5869,-1.5724,-1.5579,-1.5445,-1.5277,-1.5153,-1.5074,-1.4937,-1.4743,-1.4558,-1.4419,-1.4337,-1.441,-1.458,-1.4791,-1.5155,-1.5717,-1.6503,-1.7142,-1.7337,-1.7562,-1.7865,-1.7854,-1.7865,-1.7865,-1.7867,-1.7957,-1.8081,-1.8216,-1.8509,-1.8939,-1.9166,-1.9448,-1.9821,-2.0127,-2.0353,-2.0511,-2.0767,-2.0892,-2.0903,-2.1071,-2.1577,-2.2137,-2.2037,-2.2037,-2.1987,-2.1937,-2.1937,-2.1925,-2.1925,-2.1925,-2.1874,-2.1886,-2.1663,-2.1537,-2.1463,-2.1336,-2.1158,-2.0967,-2.0903,-2.0711,-2.0582,-2.0399,-2.0216,-2.002,-1.99,-1.9943,-1.9987,-1.9802,-1.9671,-1.9539,-1.9274,-1.9075,-1.9008,-1.8931,-1.8741,-1.8539,-1.8549,-1.8482,-1.8482,-1.8337,-1.8279,-1.8212,-1.8221,-1.8144,-1.7988,-1.793,-1.7862,-1.7881,-1.7901,-1.7959,-1.8008,-1.8018,-1.8018,-1.8076,-1.8086,-1.8213,-1.5447,-1.5623,-1.576,-1.6256,-1.682,-1.6931,-1.6735,-1.6552,-1.6509,-1.6405,-1.6231,-1.6088,-1.5944,-1.58,-1.5668,-1.5591,-1.5513,-1.539,-1.5255,-1.5096,-1.4949,-1.4789,-1.4697,-1.4569,-1.4477,-1.4233,-1.4104,-1.3962,-1.3873,-1.3841,-1.3969,-1.4231,-1.4505,-1.4768,-1.5186,-1.6055,-1.6743,-1.7102,-1.7168,-1.7179,-1.7245,-1.7256,-1.7267,-1.7396,-1.7603,-1.7756,-1.7995,-1.8365,-1.8735,-1.9091,-1.9277,-1.9594,-1.991,-1.9976,-2.0041,-2.015,-2.0107,-2.0096,-2.0161,-2.0816,-2.1158,-2.1296,-2.1296,-2.1296,-2.1233,-2.1233,-2.1233,-2.1296,-2.1233,-2.1256,-2.1181,-2.1076,-2.1047,-2.1054,-2.0969,-2.0872,-2.0786,-2.0742,-2.061,-2.0587,-2.0215,-1.9845,-1.9592,-1.9481,-1.9477,-1.9456,-1.9239,-1.9142,-1.9106,-1.8952,-1.8751,-1.8607,-1.8539,-1.8405,-1.8279,-1.8269,-1.8202,-1.8212,-1.8144,-1.8008,-1.8057,-1.8056,-1.7949,-1.7754,-1.7937,-1.8078,-1.7846,-1.7596,-1.7906,-1.8199,-1.7949,-1.7949,-1.794,-1.8018,-1.8123,-1.4704,-1.5028,-1.5051,-1.522,-1.5478,-1.5812,-1.5913,-1.5824,-1.5736,-1.5659,-1.557,-1.5367,-1.5266,-1.5175,-1.5006,-1.4926,-1.488,-1.4651,-1.4501,-1.4501,-1.4316,-1.414,-1.4057,-1.3999,-1.3894,-1.3752,-1.3631,-1.3634,-1.379,-1.3621,-1.378,-1.4108,-1.4417,-1.4874,-1.5466,-1.6035,-1.6455,-1.6549,-1.657,-1.657,-1.6627,-1.6658,-1.6795,-1.7,-1.721,-1.7462,-1.7735,-1.8186,-1.8596,-1.8807,-1.8944,-1.9217,-1.9441,-1.9462,-1.9452,-1.9462,-1.9462,-1.9462,-1.9528,-1.9922,-2.0194,-2.0497,-2.0714,-2.0789,-2.0873,-2.0862,-2.0797,-2.0778,-2.0792,-2.0828,-2.0841,-2.093,-2.0908,-2.1136,-2.1098,-2.104,-2.0924,-2.0924,-2.0807,-2.0749,-2.0472,-2.0031,-1.9712,-1.942,-1.9331,-1.9239,-1.9041,-1.8887,-1.8768,-1.8677,-1.8502,-1.8279,-1.8144,-1.8008,-1.7969,-1.8144,-1.8104,-1.8094,-1.7919,-1.7666,-1.7743,-1.7963,-1.797,-1.7887,-1.8176,-1.8366,-1.8009,-1.7872,-1.8256,-1.8419,-1.8014,-1.7887,-1.7937,-1.7983,-1.8075,-1.3707,-1.4054,-1.4114,-1.4236,-1.4387,-1.4949,-1.5232,-1.5198,-1.5074,-1.4937,-1.488,-1.4731,-1.4593,-1.4501,-1.4373,-1.4291,-1.4233,-1.4035,-1.3884,-1.3836,-1.3647,-1.3525,-1.3478,-1.3392,-1.3344,-1.3268,-1.3332,-1.3392,-1.3416,-1.3436,-1.3681,-1.4029,-1.443,-1.4723,-1.5219,-1.5588,-1.5968,-1.5999,-1.5989,-1.5999,-1.605,-1.6171,-1.6384,-1.6618,-1.6921,-1.7244,-1.7557,-1.7944,-1.8258,-1.8339,-1.8548,-1.8741,-1.8741,-1.8741,-1.8741,-1.8741,-1.8961,-1.908,-1.9276,-1.9503,-1.9907,-2.0247,-2.0312,-2.0489,-2.072,-2.0885,-2.0796,-2.0718,-2.0609,-2.0649,-2.0809,-2.0816,-2.0898,-2.1101,-2.1062,-2.0981,-2.0889,-2.0797,-2.0665,-2.0636,-2.0514,-2.0072,-1.971,-1.9456,-1.9246,-1.9036,-1.8828,-1.8693,-1.8567,-1.8498,-1.8409,-1.8211,-1.812,-1.8165,-1.8151,-1.8199,-1.8109,-1.7934,-1.7779,-1.7642,-1.7812,-1.8146,-1.8112,-1.7996,-1.8072,-1.8119,-1.8202,-1.8239,-1.8239,-1.8128,-1.7806,-1.7738,-1.7854,-1.7986,-1.8203,-1.2508,-1.2787,-1.2987,-1.3283,-1.3647,-1.4247,-1.4536,-1.4523,-1.443,-1.4326,-1.4165,-1.4176,-1.4035,-1.381,-1.3773,-1.3726,-1.3621,-1.3478,-1.3324,-1.3218,-1.3074,-1.2997,-1.2939,-1.2939,-1.2909,-1.2897,-1.3039,-1.3181,-1.2958,-1.3349,-1.3663,-1.3864,-1.4194,-1.4372,-1.4681,-1.4885,-1.5235,-1.5294,-1.5469,-1.5488,-1.5556,-1.5778,-1.6062,-1.6354,-1.6733,-1.7028,-1.7385,-1.7638,-1.7813,-1.7891,-1.7998,-1.794,-1.794,-1.8008,-1.8008,-1.8135,-1.8636,-1.8884,-1.9134,-1.9464,-1.9736,-2.0032,-2.0188,-2.0491,-2.0743,-2.0823,-2.07,-2.0722,-2.0642,-2.0801,-2.0889,-2.091,-2.0942,-2.0915,-2.0885,-2.0803,-2.0638,-2.0494,-2.0286,-2.0171,-2.0119,-1.9845,-1.959,-1.9319,-1.9247,-1.9079,-1.8909,-1.8797,-1.8663,-1.8552,-1.8461,-1.8316,-1.8309,-1.8422,-1.8432,-1.8164,-1.8035,-1.7851,-1.8035,-1.8035,-1.8202,-1.8193,-1.81,-1.7979,-1.7848,-1.7947,-1.8239,-1.8145,-1.7868,-1.776,-1.7938,-1.7768,-1.7917,-1.8193,-1.8406,-1.1772,-1.219,-1.2512,-1.2706,-1.2852,-1.3035,-1.343,-1.3858,-1.3763,-1.3647,-1.361,-1.3399,-1.3314,-1.3218,-1.32,-1.3113,-1.3065,-1.2968,-1.2813,-1.2706,-1.2598,-1.2461,-1.2426,-1.2544,-1.2605,-1.2748,-1.2892,-1.3168,-1.3385,-1.3681,-1.3696,-1.3868,-1.393,-1.3923,-1.3923,-1.3992,-1.4369,-1.468,-1.4916,-1.5088,-1.5247,-1.5545,-1.5832,-1.6224,-1.6431,-1.6777,-1.7039,-1.7142,-1.7245,-1.7254,-1.7254,-1.7245,-1.7442,-1.7461,-1.7508,-1.8018,-1.826,-1.8466,-1.8889,-1.9064,-1.9424,-1.9826,-1.9949,-2.0195,-2.0463,-2.0596,-2.0545,-2.0545,-2.0586,-2.0669,-2.073,-2.0792,-2.0884,-2.0903,-2.0869,-2.0795,-2.0636,-2.0561,-2.0337,-2.0187,-2.0046,-1.9734,-1.945,-1.9363,-1.9294,-1.9177,-1.9012,-1.8802,-1.877,-1.8561,-1.8498,-1.8414,-1.832,-1.8385,-1.8088,-1.7803,-1.7794,-1.7784,-1.8004,-1.8076,-1.7899,-1.7886,-1.8011,-1.8024,-1.7846,-1.8091,-1.8469,-1.8214,-1.7796,-1.8223,-1.8406,-1.8154,-1.8006,-1.8257,-1.8483,-1.0847,-1.1297,-1.1702,-1.196,-1.2157,-1.2175,-1.2471,-1.2842,-1.2997,-1.3035,-1.2939,-1.2793,-1.2696,-1.2647,-1.2618,-1.2578,-1.2569,-1.2421,-1.2323,-1.2274,-1.2144,-1.2113,-1.2115,-1.2261,-1.2378,-1.2556,-1.2793,-1.2989,-1.3331,-1.3501,-1.3519,-1.3442,-1.3467,-1.3407,-1.3441,-1.3612,-1.3821,-1.4136,-1.4444,-1.4639,-1.496,-1.531,-1.5719,-1.5975,-1.6116,-1.6396,-1.6576,-1.6621,-1.6621,-1.663,-1.6621,-1.6691,-1.6875,-1.6958,-1.7174,-1.7675,-1.8128,-1.8387,-1.8789,-1.8995,-1.9317,-1.9535,-1.9688,-1.9735,-2.0072,-2.0277,-2.0342,-2.0436,-2.0406,-2.0426,-2.0512,-2.0586,-2.0745,-2.0894,-2.0837,-2.0779,-2.0779,-2.0692,-2.0527,-2.0285,-2.0041,-1.9719,-1.9511,-1.9399,-1.9152,-1.8894,-1.862,-1.8523,-1.8461,-1.8476,-1.8524,-1.8506,-1.8366,-1.8261,-1.787,-1.7646,-1.7793,-1.7863,-1.7882,-1.7908,-1.7717,-1.7683,-1.7769,-1.7899,-1.7923,-1.8017,-1.8035,-1.8078,-1.7929,-1.8218,-1.8218,-1.7951,-1.7822,-1.8275,-1.8406,-0.9839,-1.028,-1.0707,-1.1172,-1.1592,-1.1628,-1.1619,-1.1678,-1.2126,-1.2323,-1.2283,-1.2224,-1.2126,-1.2067,-1.2026,-1.2026,-1.2026,-1.1927,-1.1908,-1.1872,-1.1802,-1.1816,-1.1982,-1.2059,-1.2307,-1.2461,-1.2668,-1.2923,-1.2806,-1.2912,-1.3042,-1.2981,-1.3001,-1.3034,-1.3021,-1.329,-1.3516,-1.3728,-1.3955,-1.4193,-1.4678,-1.5093,-1.5488,-1.5617,-1.5895,-1.6193,-1.6193,-1.6202,-1.6202,-1.6202,-1.6202,-1.6202,-1.6395,-1.667,-1.6928,-1.7367,-1.789,-1.8235,-1.852,-1.8806,-1.8961,-1.9149,-1.9213,-1.9191,-1.9394,-1.9899,-2.0024,-2.0101,-1.9995,-1.9995,-2.0111,-2.0072,-2.0256,-2.0235,-2.0245,-2.0177,-2.0177,-2.0098,-1.9872,-1.9706,-1.9469,-1.9231,-1.9073,-1.8843,-1.8594,-1.8434,-1.8273,-1.804,-1.8006,-1.8178,-1.8231,-1.8276,-1.8135,-1.7987,-1.7942,-1.7828,-1.786,-1.7937,-1.784,-1.7734,-1.7502,-1.7515,-1.7513,-1.7513,-1.7488,-1.7432,-1.7375,-1.7473,-1.7473,-1.7473,-1.7473,-1.74,-1.761,-1.7963,-1.8098,-0.9213,-0.9684,-1.0319,-1.0746,-1.0913,-1.082,-1.0879,-1.0922,-1.0981,-1.1335,-1.1805,-1.1637,-1.1528,-1.1528,-1.1528,-1.1477,-1.1477,-1.1497,-1.1567,-1.161,-1.1626,-1.175,-1.1931,-1.2131,-1.2347,-1.2564,-1.2738,-1.2852,-1.274,-1.2655,-1.2552,-1.2514,-1.2609,-1.2775,-1.271,-1.3022,-1.3279,-1.3442,-1.3679,-1.3974,-1.456,-1.498,-1.5292,-1.5283,-1.5471,-1.5497,-1.5497,-1.5497,-1.5497,-1.5488,-1.5488,-1.5631,-1.6054,-1.6302,-1.6784,-1.7242,-1.7588,-1.7839,-1.8118,-1.8346,-1.8407,-1.8434,-1.8514,-1.8603,-1.8825,-1.9301,-1.9618,-1.9618,-1.9618,-1.9618,-1.9618,-1.9618,-1.9618,-1.9618,-1.9618,-1.9618,-1.9539,-1.939,-1.924,-1.9002,-1.8834,-1.8674,-1.8514,-1.8273,-1.8023,-1.7789,-1.7716,-1.7554,-1.7465,-1.7504,-1.7504,-1.7568,-1.7666,-1.7577,-1.7635,-1.7635,-1.7546,-1.7465,-1.7342,-1.7269,-1.7212,-1.7131,-1.6976,-1.6976,-1.6886,-1.6902,-1.6902,-1.6902,-1.6902,-1.6902,-1.6902,-1.691,-1.6934,-1.7147,-1.7383,-0.8549,-0.9151,-0.9811,-1.0138,-1.0198,-1.0138,-1.0146,-1.0198,-1.0146,-1.0352,-1.0828,-1.0871,-1.0913,-1.0922,-1.0972,-1.0989,-1.0971,-1.1104,-1.1149,-1.1276,-1.1483,-1.1655,-1.1881,-1.2065,-1.2158,-1.2334,-1.2477,-1.252,-1.249,-1.2297,-1.2143,-1.2248,-1.2444,-1.2465,-1.2446,-1.2766,-1.3033,-1.3267,-1.3416,-1.3767,-1.4347,-1.4593,-1.484,-1.4832,-1.4919,-1.4935,-1.5078,-1.5078,-1.5141,-1.5287,-1.5361,-1.574,-1.6105,-1.6413,-1.6741,-1.7044,-1.7288,-1.7481,-1.7649,-1.7716,-1.7716,-1.7797,-1.7797,-1.7959,-1.7959,-1.8425,-1.8754,-1.8834,-1.9082,-1.9161,-1.9082,-1.9082,-1.9082,-1.9082,-1.9082,-1.9073,-1.8993,-1.8834,-1.8594,-1.8345,-1.8184,-1.8112,-1.7951,-1.7878,-1.7546,-1.7212,-1.7066,-1.6984,-1.6894,-1.6812,-1.6812,-1.682,-1.6984,-1.6984,-1.6976,-1.6894,-1.6894,-1.6812,-1.682,-1.6648,-1.6566,-1.6492,-1.6409,-1.6409,-1.6409,-1.6409,-1.6409,-1.6327,-1.6417,-1.6417,-1.6417,-1.6417,-1.6456,-1.6467,-1.6818,-0.7859,-0.8634,-0.9206,-0.9481,-0.951,-0.9517,-0.9517,-0.9517,-0.9517,-0.951,-0.9621,-1.0051,-1.0257,-1.036,-1.036,-1.0391,-1.0486,-1.0629,-1.0786,-1.102,-1.123,-1.1468,-1.1611,-1.1765,-1.1874,-1.1928,-1.2035,-1.2072,-1.2077,-1.1903,-1.1887,-1.205,-1.2131,-1.21,-1.238,-1.2654,-1.2891,-1.2963,-1.315,-1.344,-1.3775,-1.4072,-1.4281,-1.4425,-1.4497,-1.4649,-1.4721,-1.4792,-1.4919,-1.5138,-1.5357,-1.5697,-1.5988,-1.6248,-1.6434,-1.6748,-1.6944,-1.7066,-1.7147,-1.7155,-1.7155,-1.7237,-1.7229,-1.731,-1.731,-1.749,-1.7895,-1.8134,-1.8377,-1.8567,-1.8567,-1.8567,-1.8567,-1.8567,-1.8486,-1.8477,-1.8388,-1.8308,-1.7976,-1.7725,-1.7554,-1.7481,-1.7392,-1.731,-1.7066,-1.6738,-1.6566,-1.6409,-1.6245,-1.6319,-1.6319,-1.6237,-1.6327,-1.6319,-1.6394,-1.6425,-1.6441,-1.6327,-1.6327,-1.6162,-1.5922,-1.5831,-1.5741,-1.5831,-1.5831,-1.5861,-1.5846,-1.5748,-1.5839,-1.5974,-1.5974,-1.5943,-1.5987,-1.61,-1.6309,-0.7324,-0.8078,-0.8482,-0.8769,-0.8935,-0.8962,-0.8956,-0.8956,-0.8956,-0.8962,-0.9008,-0.9061,-0.9263,-0.9658,-0.9718,-0.9874,-1.0126,-1.025,-1.0635,-1.0975,-1.1034,-1.1285,-1.1456,-1.1431,-1.1603,-1.1608,-1.1556,-1.1616,-1.1682,-1.1617,-1.1595,-1.1772,-1.204,-1.1984,-1.1988,-1.2226,-1.2469,-1.2576,-1.2649,-1.2893,-1.3193,-1.3557,-1.392,-1.4065,-1.4201,-1.4201,-1.4281,-1.4274,-1.4444,-1.47,-1.5017,-1.5436,-1.5779,-1.5983,-1.6124,-1.6354,-1.6542,-1.6476,-1.6582,-1.6582,-1.6582,-1.6574,-1.6582,-1.668,-1.6778,-1.6884,-1.7219,-1.7438,-1.7655,-1.7811,-1.7778,-1.7859,-1.7859,-1.7859,-1.7859,-1.7778,-1.7688,-1.7679,-1.7507,-1.7319,-1.7122,-1.6934,-1.673,-1.6656,-1.6492,-1.6245,-1.6245,-1.6095,-1.6095,-1.5967,-1.5778,-1.5831,-1.586,-1.5922,-1.6095,-1.6148,-1.6163,-1.6042,-1.5899,-1.5851,-1.5592,-1.509,-1.509,-1.543,-1.5288,-1.5175,-1.5147,-1.5445,-1.5295,-1.5367,-1.5404,-1.5397,-1.5447,-1.5763,-1.6082]}]]